[[{"header":{"parameterUnit":"m.s-1","parameterCategory":1,"la1":30.6,"la2":29.2853,"lo1":-89.7004,"lo2":-87.6739,"dy":0.0162,"dx":0.0183,"nx":112,"ny":82,"refTime":"2025-02-24T06:00:00:Z","depth":0,"parameterNumber":2,"parameterNumberName":"U-component_of_WINDS"},"data":[0.0,0.0,0.0,0.0,0.0,0.0,0.0,0.0,0.0,0.0,0.0,0.0,0.0,0.0,0.0,0.0,0.0,0.0,0.0,0.0,0.0,0.0,0.0,0.0,0.0,0.0,0.0,0.0,0.0,0.0,0.0,0.0,0.0,0.0,0.0,0.0,0.0,0.0,0.0,0.0,0.0,0.0,0.0,0.0,0.0,0.0,0.0,0.0,0.0,0.0,0.0,0.0,0.0,0.0,0.0,0.0,0.0,0.0,0.0,0.0,0.0,0.0,0.0,0.0,0.0,0.0,0.0,0.0,0.0,0.0,0.0,0.0,0.0,0.0,0.0,0.0,0.0,0.0,0.0,0.0,0.0,0.0,0.0,0.0,0.0,0.0,0.0,0.0,0.0,0.0,0.0,3.3701,3.8516,4.1551,4.1529,4.1983,4.0747,3.7143,0.0,0.0,0.0,0.0,0.0,0.0,0.0,0.0,0.0,0.0,0.0,0.0,0.0,0.0,0.0,0.0,0.0,0.0,0.0,0.0,0.0,0.0,0.0,0.0,0.0,0.0,0.0,0.0,0.0,0.0,0.0,0.0,0.0,0.0,0.0,0.0,0.0,0.0,0.0,0.0,0.0,0.0,0.0,0.0,0.0,0.0,0.0,0.0,0.0,0.0,0.0,0.0,0.0,0.0,0.0,0.0,0.0,0.0,0.0,0.0,0.0,0.0,0.0,0.0,0.0,0.0,0.0,0.0,0.0,0.0,0.0,0.0,0.0,0.0,0.0,0.0,0.0,0.0,0.0,0.0,0.0,0.0,0.0,0.0,0.0,0.0,0.0,0.0,0.0,0.0,0.0,0.0,0.0,0.0,0.0,0.0,0.0,0.0,0.0,0.0,0.0,0.0,0.0,0.0,3.4017,3.9566,4.0921,4.1949,4.3273,4.2621,4.0917,3.8065,0.0,0.0,0.0,0.0,0.0,0.0,0.0,0.0,0.0,0.0,0.0,0.0,0.0,0.0,0.0,0.0,0.0,0.0,0.0,0.0,0.0,0.0,0.0,0.0,0.0,0.0,0.0,0.0,0.0,0.0,0.0,0.0,0.0,0.0,0.0,0.0,0.0,0.0,0.0,0.0,0.0,0.0,0.0,0.0,0.0,0.0,0.0,0.0,0.0,0.0,0.0,0.0,0.0,0.0,0.0,0.0,0.0,0.0,0.0,0.0,0.0,0.0,0.0,0.0,0.0,0.0,0.0,0.0,0.0,0.0,0.0,0.0,0.0,0.0,0.0,0.0,0.0,0.0,0.0,0.0,0.0,0.0,0.0,0.0,0.0,0.0,0.0,0.0,0.0,0.0,0.0,0.0,0.0,0.0,0.0,0.0,0.0,0.0,0.0,0.0,0.0,0.0,0.0,3.197,3.5662,4.0348,4.2068,4.3116,4.3754,4.3634,4.2359,3.9525,3.8478,0.0,0.0,0.0,0.0,0.0,0.0,0.0,0.0,0.0,0.0,0.0,0.0,0.0,0.0,0.0,0.0,0.0,0.0,0.0,0.0,0.0,0.0,0.0,0.0,0.0,0.0,0.0,0.0,0.0,0.0,0.0,0.0,0.0,0.0,0.0,0.0,0.0,0.0,0.0,0.0,0.0,0.0,0.0,0.0,0.0,0.0,0.0,0.0,0.0,0.0,0.0,0.0,0.0,0.0,0.0,0.0,0.0,0.0,0.0,0.0,0.0,0.0,0.0,0.0,0.0,0.0,0.0,0.0,0.0,0.0,0.0,0.0,0.0,0.0,0.0,0.0,0.0,0.0,0.0,0.0,0.0,0.0,0.0,0.0,0.0,0.0,0.0,0.0,0.0,0.0,0.0,0.0,0.0,0.0,0.0,0.0,0.0,0.0,0.0,0.0,0.0,0.0,3.4365,3.754,4.0576,4.3006,4.4419,4.4421,4.5014,4.4075,4.0961,3.9909,0.0,0.0,0.0,0.0,0.0,0.0,0.0,0.0,0.0,0.0,0.0,0.0,0.0,0.0,0.0,0.0,0.0,0.0,0.0,0.0,0.0,0.0,0.0,0.0,0.0,0.0,0.0,0.0,0.0,0.0,0.0,0.0,0.0,0.0,0.0,0.0,0.0,0.0,0.0,0.0,0.0,0.0,0.0,0.0,0.0,0.0,0.0,0.0,0.0,0.0,0.0,0.0,0.0,0.0,0.0,0.0,0.0,0.0,0.0,0.0,0.0,0.0,0.0,0.0,0.0,0.0,0.0,0.0,0.0,0.0,0.0,0.0,0.0,0.0,0.0,0.0,0.0,0.0,0.0,0.0,0.0,0.0,0.0,0.0,0.0,0.0,0.0,0.0,0.0,0.0,0.0,0.0,0.0,0.0,0.0,0.0,0.0,0.0,0.0,0.0,0.0,0.0,3.6728,4.0559,4.2431,4.423,4.5566,4.6172,4.6778,4.5617,4.2096,4.085,0.0,0.0,0.0,0.0,0.0,0.0,0.0,0.0,0.0,0.0,0.0,0.0,0.0,0.0,0.0,0.0,0.0,0.0,0.0,0.0,0.0,0.0,0.0,0.0,0.0,0.0,0.0,0.0,0.0,0.0,0.0,0.0,0.0,0.0,0.0,0.0,0.0,0.0,0.0,0.0,0.0,0.0,0.0,0.0,0.0,0.0,0.0,0.0,0.0,0.0,0.0,0.0,0.0,0.0,0.0,0.0,0.0,0.0,0.0,0.0,0.0,0.0,0.0,0.0,0.0,0.0,0.0,0.0,0.0,0.0,0.0,0.0,0.0,0.0,0.0,0.0,0.0,0.0,0.0,0.0,0.0,0.0,0.0,0.0,0.0,0.0,0.0,0.0,0.0,0.0,0.0,0.0,0.0,0.0,0.0,0.0,0.0,0.0,0.0,0.0,0.0,0.0,3.7031,4.0921,0.0,4.4804,4.6216,4.639,4.6979,4.6029,4.2948,0.0,0.0,0.0,0.0,0.0,0.0,0.0,0.0,0.0,0.0,0.0,0.0,0.0,0.0,0.0,0.0,0.0,0.0,0.0,0.0,0.0,0.0,0.0,0.0,0.0,0.0,0.0,0.0,0.0,0.0,0.0,0.0,0.0,0.0,0.0,0.0,0.0,0.0,0.0,0.0,0.0,0.0,0.0,0.0,0.0,0.0,0.0,0.0,0.0,0.0,0.0,0.0,0.0,0.0,0.0,0.0,0.0,0.0,0.0,0.0,0.0,0.0,0.0,0.0,0.0,0.0,0.0,0.0,0.0,0.0,0.0,0.0,0.0,0.0,0.0,0.0,0.0,0.0,0.0,0.0,0.0,0.0,0.0,0.0,0.0,0.0,0.0,0.0,0.0,0.0,0.0,0.0,0.0,0.0,0.0,0.0,0.0,0.0,0.0,0.0,0.0,0.0,3.3116,3.8132,4.2068,0.0,4.5686,4.7078,4.7175,4.7827,4.6895,4.382,0.0,0.0,0.0,0.0,0.0,0.0,0.0,0.0,0.0,0.0,0.0,0.0,0.0,0.0,0.0,0.0,0.0,0.0,0.0,0.0,0.0,0.0,0.0,0.0,0.0,0.0,0.0,0.0,0.0,0.0,0.0,0.0,0.0,0.0,0.0,0.0,0.0,0.0,0.0,0.0,0.0,0.0,0.0,0.0,0.0,0.0,0.0,0.0,0.0,0.0,0.0,0.0,0.0,0.0,0.0,0.0,0.0,0.0,0.0,0.0,0.0,0.0,0.0,0.0,0.0,0.0,0.0,0.0,0.0,0.0,0.0,0.0,0.0,0.0,0.0,0.0,0.0,0.0,0.0,0.0,0.0,0.0,0.0,0.0,0.0,0.0,0.0,0.0,0.0,0.0,0.0,0.0,0.0,0.0,0.0,0.0,0.0,0.0,0.0,0.0,0.0,0.0,3.4973,4.0441,4.4537,4.54,4.7011,4.8231,4.8853,4.9537,4.8378,0.0,0.0,0.0,0.0,0.0,0.0,0.0,0.0,0.0,0.0,0.0,0.0,0.0,0.0,0.0,0.0,0.0,0.0,0.0,0.0,0.0,0.0,0.0,0.0,0.0,0.0,0.0,0.0,0.0,0.0,0.0,0.0,0.0,0.0,0.0,0.0,0.0,0.0,0.0,0.0,0.0,0.0,0.0,0.0,0.0,0.0,0.0,0.0,0.0,0.0,0.0,0.0,0.0,0.0,0.0,0.0,0.0,0.0,0.0,0.0,0.0,0.0,0.0,0.0,0.0,0.0,0.0,0.0,0.0,0.0,0.0,0.0,0.0,0.0,0.0,0.0,0.0,0.0,0.0,0.0,0.0,0.0,0.0,0.0,0.0,0.0,0.0,0.0,0.0,0.0,0.0,0.0,0.0,0.0,0.0,0.0,0.0,0.0,0.0,0.0,0.0,0.0,0.0,3.5105,4.046,4.4537,4.54,4.7012,4.8235,4.8834,4.9613,4.8458,4.472,0.0,0.0,0.0,0.0,0.0,0.0,0.0,0.0,0.0,0.0,0.0,0.0,0.0,0.0,0.0,0.0,0.0,0.0,0.0,0.0,0.0,0.0,0.0,0.0,0.0,0.0,0.0,0.0,0.0,0.0,0.0,0.0,0.0,0.0,0.0,0.0,0.0,0.0,0.0,0.0,0.0,0.0,0.0,0.0,0.0,0.0,0.0,0.0,0.0,0.0,0.0,0.0,0.0,0.0,0.0,0.0,0.0,0.0,0.0,0.0,0.0,0.0,0.0,0.0,0.0,0.0,0.0,0.0,0.0,0.0,0.0,0.0,0.0,0.0,0.0,0.0,0.0,0.0,0.0,0.0,0.0,0.0,0.0,0.0,0.0,0.0,0.0,0.0,0.0,0.0,0.0,0.0,0.0,0.0,0.0,0.0,0.0,0.0,0.0,0.0,0.0,0.0,3.6167,4.1474,4.5534,4.6436,4.7683,4.8845,4.9854,4.9968,4.9,4.6676,0.0,0.0,0.0,0.0,0.0,0.0,0.0,0.0,0.0,0.0,0.0,0.0,0.0,0.0,0.0,0.0,0.0,0.0,0.0,0.0,0.0,0.0,0.0,0.0,0.0,0.0,0.0,0.0,0.0,0.0,0.0,0.0,0.0,0.0,0.0,0.0,0.0,0.0,0.0,0.0,0.0,0.0,0.0,0.0,0.0,0.0,0.0,0.0,0.0,0.0,0.0,0.0,0.0,0.0,0.0,0.0,0.0,0.0,0.0,0.0,0.0,0.0,0.0,0.0,0.0,0.0,0.0,0.0,0.0,0.0,0.0,0.0,0.0,0.0,0.0,0.0,0.0,0.0,0.0,0.0,0.0,0.0,0.0,0.0,0.0,0.0,0.0,0.0,0.0,0.0,0.0,0.0,0.0,0.0,0.0,0.0,0.0,0.0,0.0,0.0,0.0,0.0,3.7768,4.3063,4.7088,4.8106,4.8833,4.9854,5.1372,5.0537,4.9816,4.9472,0.0,0.0,0.0,0.0,0.0,0.0,0.0,0.0,0.0,0.0,0.0,0.0,0.0,0.0,0.0,0.0,0.0,0.0,0.0,0.0,0.0,0.0,0.0,0.0,0.0,0.0,0.0,0.0,0.0,0.0,0.0,0.0,0.0,0.0,0.0,0.0,0.0,0.0,0.0,0.0,0.0,0.0,0.0,0.0,0.0,0.0,0.0,0.0,0.0,0.0,0.0,0.0,0.0,0.0,0.0,0.0,0.0,0.0,0.0,0.0,2.2488,0.0,0.0,0.0,0.0,0.0,0.0,0.0,0.0,0.0,0.0,0.0,0.0,0.0,0.0,0.0,0.0,0.0,0.0,0.0,0.0,0.0,0.0,0.0,0.0,0.0,0.0,0.0,0.0,0.0,0.0,0.0,0.0,0.0,0.0,0.0,0.0,0.0,0.0,0.0,0.0,0.0,3.8626,4.3445,4.7377,4.8952,4.9816,5.0613,5.1429,5.1161,5.0258,4.8604,0.0,0.0,0.0,0.0,0.0,0.0,0.0,0.0,0.0,0.0,0.0,0.0,0.0,0.0,0.0,0.0,0.0,0.0,0.0,0.0,0.0,0.0,0.0,0.0,0.0,0.0,0.0,0.0,0.0,0.0,0.0,0.0,0.0,0.0,0.0,0.0,0.0,0.0,0.0,0.0,0.0,0.0,0.0,0.0,0.0,0.0,0.0,0.0,0.0,0.0,0.0,0.0,0.0,0.0,0.0,0.0,0.0,0.0,0.0,0.0,0.0,2.3907,0.0,0.0,0.0,0.0,0.0,0.0,0.0,0.0,0.0,0.0,0.0,0.0,0.0,0.0,0.0,0.0,0.0,0.0,0.0,0.0,0.0,0.0,0.0,0.0,0.0,0.0,0.0,0.0,0.0,0.0,0.0,0.0,0.0,0.0,0.0,0.0,0.0,0.0,0.0,0.0,3.8929,4.3942,4.7934,4.926,5.0064,5.0955,5.204,5.1509,5.1017,5.0685,4.8571,0.0,0.0,0.0,0.0,0.0,0.0,0.0,0.0,0.0,0.0,0.0,0.0,0.0,0.0,0.0,0.0,0.0,0.0,0.0,0.0,0.0,0.0,0.0,0.0,0.0,0.0,0.0,0.0,0.0,0.0,0.0,0.0,0.0,0.0,0.0,0.0,0.0,0.0,0.0,0.0,0.0,0.0,0.0,0.0,0.0,0.0,0.0,0.0,0.0,0.0,0.0,0.0,0.0,2.5421,2.6011,2.6039,2.6488,2.7376,2.8546,2.7691,2.7723,2.8156,0.0,0.0,0.0,0.0,0.0,0.0,0.0,0.0,0.0,0.0,0.0,0.0,0.0,0.0,0.0,0.0,0.0,0.0,0.0,0.0,0.0,0.0,0.0,0.0,0.0,3.1902,3.2524,0.0,0.0,0.0,0.0,0.0,0.0,0.0,0.0,0.0,0.0,0.0,0.0,3.961,4.4651,4.8548,4.974,5.0466,5.1442,5.29,5.2083,5.1989,5.3188,5.0118,4.8029,0.0,0.0,0.0,0.0,0.0,0.0,0.0,0.0,0.0,0.0,0.0,0.0,0.0,0.0,0.0,0.0,0.0,0.0,0.0,0.0,0.0,0.0,0.0,0.0,0.0,0.0,0.0,0.0,0.0,0.0,0.0,0.0,1.799,1.8251,0.0,0.0,0.0,0.0,0.0,0.0,0.0,0.0,0.0,0.0,0.0,0.0,0.0,0.0,2.3046,2.5317,2.6514,2.6676,2.8395,2.9216,2.9313,3.017,3.067,3.09,3.1551,0.0,2.8119,2.786,0.0,0.0,0.0,0.0,0.0,0.0,0.0,0.0,0.0,0.0,0.0,0.0,0.0,0.0,0.0,0.0,0.0,0.0,0.0,0.0,0.0,0.0,3.4395,3.5035,3.5395,3.5699,0.0,3.2731,2.9683,3.0187,2.9606,0.0,0.0,0.0,0.0,0.0,0.0,0.0,4.2074,4.578,4.9009,5.1395,5.2315,5.3088,5.3855,5.3552,5.327,5.316,5.1136,4.9169,4.7425,4.5547,0.0,0.0,0.0,0.0,0.0,0.0,0.0,0.0,0.0,0.0,0.0,0.0,0.0,0.0,0.0,0.0,0.0,0.0,0.0,0.0,0.0,0.0,0.0,0.0,0.0,0.0,0.0,0.0,0.0,1.7377,1.8633,1.8589,1.7993,1.7427,0.0,0.0,0.0,0.0,0.0,0.0,0.0,0.0,0.0,2.4557,2.5021,2.5642,2.6521,2.8118,2.8973,2.9128,3.0456,3.115,3.1218,3.1769,3.2009,3.206,3.261,3.2081,3.0731,2.988,2.8542,2.6909,0.0,0.0,0.0,0.0,2.5134,2.5523,2.8146,2.8895,0.0,0.0,0.0,0.0,0.0,0.0,0.0,0.0,0.0,0.0,0.0,0.0,0.0,3.6362,3.6778,3.7005,3.7856,3.6283,3.4372,0.0,3.1917,3.0583,2.9231,0.0,0.0,0.0,0.0,0.0,4.2722,4.6009,4.9105,5.1722,5.2221,5.2842,5.4014,5.3846,5.3545,5.3128,5.1772,5.0319,4.89,4.6264,4.3862,0.0,0.0,0.0,0.0,0.0,0.0,0.0,0.0,0.0,0.0,0.0,0.0,0.0,0.0,0.0,0.0,0.0,0.0,0.0,0.0,0.0,0.0,0.0,0.0,0.0,0.0,0.0,0.0,1.8779,1.9881,1.9295,1.9289,1.8901,0.0,0.0,0.0,0.0,0.0,0.0,2.4248,2.436,2.528,2.7301,2.7641,2.8357,2.9501,3.0398,3.0902,3.1079,3.1847,3.2214,3.2284,3.2557,3.2639,3.2639,3.282,3.2916,3.2827,3.1709,3.0693,2.9782,2.8601,2.7554,2.6786,2.739,2.7643,2.8038,3.0637,3.1509,3.1424,3.1259,0.0,3.1299,2.9905,0.0,0.0,0.0,0.0,3.1318,3.3885,3.4526,3.5054,3.7198,3.7671,3.7896,3.8726,3.8745,3.8024,0.0,3.4651,3.3256,3.1503,0.0,0.0,0.0,0.0,4.1204,4.3772,4.6448,4.9124,5.176,5.2086,5.2689,5.3995,5.4047,5.3857,5.348,5.2407,5.1359,5.0416,4.7424,4.5199,4.395,0.0,0.0,0.0,0.0,0.0,0.0,0.0,0.0,0.0,0.0,0.0,0.0,0.0,0.0,0.0,0.0,0.0,0.0,0.0,0.0,0.0,0.0,0.0,0.0,0.0,0.0,0.0,0.0,0.0,2.0841,2.2365,0.0,0.0,0.0,0.0,2.2929,2.3274,2.4407,2.67,2.6948,2.7669,2.9109,2.9862,3.0362,3.0627,3.1369,3.1841,3.202,3.2335,3.2473,3.2507,3.2707,3.2773,3.2773,3.269,3.277,3.3011,3.3111,3.2198,3.0684,3.0085,2.8956,2.7844,2.9485,3.0148,3.059,3.3222,3.3622,3.2881,3.225,3.1034,3.0096,3.1638,3.0979,0.0,0.0,3.3393,3.3998,3.6551,3.7198,3.7427,3.8334,3.8601,3.8828,3.9599,3.9123,3.8515,0.0,3.8196,3.7634,3.5885,0.0,3.6557,3.8252,3.9528,4.1892,4.6227,4.7615,4.9197,5.1816,5.2664,5.3318,5.4052,5.4543,5.4735,5.443,5.3302,5.2251,5.1378,4.9581,4.7385,4.4796,4.3925,0.0,0.0,0.0,0.0,0.0,0.0,0.0,0.0,0.0,0.0,0.0,0.0,0.0,0.0,0.0,0.0,0.0,0.0,0.0,0.0,0.0,0.0,0.0,0.0,0.0,0.0,0.0,0.0,2.1905,2.3244,0.0,0.0,2.2895,2.4003,2.5706,2.6302,2.7444,2.9418,2.9538,3.0023,3.0956,3.1214,3.1405,3.1477,3.1862,3.2144,3.2353,3.2539,3.2639,3.2725,3.3434,3.3763,3.3734,3.4365,3.474,3.4883,3.4888,3.3918,3.239,3.2234,3.1892,3.1518,3.2327,3.2631,3.281,3.3876,3.413,3.3982,3.3834,3.3387,3.3123,3.4233,3.4179,3.4069,3.5562,3.5979,3.6342,3.7902,3.8201,3.8329,3.9288,3.9892,4.0318,4.0579,4.0851,4.1022,4.0863,3.9534,3.8229,3.7623,3.8505,3.921,3.8956,4.1093,4.3751,4.656,4.7675,4.9409,5.2531,5.305,5.3632,5.4778,5.4941,5.4822,5.4538,5.296,5.1857,5.1416,4.9729,4.8103,4.6627,4.5692,4.3435,0.0,0.0,0.0,0.0,0.0,0.0,0.0,0.0,0.0,0.0,0.0,0.0,0.0,0.0,0.0,0.0,0.0,0.0,0.0,0.0,0.0,0.0,0.0,0.0,0.0,0.0,2.4723,2.3127,2.4974,2.5922,2.4756,2.5467,2.6686,2.8347,2.8868,2.9799,3.1358,3.1655,3.1882,3.2109,3.2299,3.2352,3.2197,3.2476,3.2739,3.3064,3.3395,3.3618,3.3737,3.4433,3.4763,3.4767,3.5485,3.5828,3.589,3.5846,3.5199,3.4172,3.3948,3.388,3.3913,3.3872,3.3895,3.4035,3.4507,3.4955,3.5315,3.5428,3.5469,3.5581,3.6107,3.6324,3.6578,3.7467,3.7737,3.7991,3.8969,3.9345,3.9643,4.03,4.1057,4.1598,4.1598,4.2265,4.2853,4.2735,4.1118,3.9754,3.9754,4.0749,4.1149,3.9929,4.2221,4.4652,4.6219,4.7735,4.9719,5.255,5.328,5.3897,5.4811,5.4372,5.4186,5.4552,5.2731,5.1705,5.1914,4.9913,4.8398,4.7566,4.5954,4.366,4.0666,0.0,0.0,0.0,0.0,0.0,0.0,0.0,0.0,0.0,0.0,0.0,0.0,0.0,0.0,0.0,0.0,0.0,0.0,0.0,0.0,0.0,0.0,0.0,2.2929,2.4865,2.5957,2.4733,2.7694,2.9184,2.758,2.8577,2.9764,3.0803,3.0785,3.1255,3.2454,3.3125,3.3196,3.256,3.3125,3.3248,3.2894,3.3248,3.3688,3.4148,3.4898,3.5305,3.5504,3.5674,3.5788,3.5851,3.5869,3.5901,3.5994,3.5994,3.6024,3.5994,3.5084,3.4775,3.4783,3.4083,3.3976,3.429,3.5311,3.6205,3.6932,3.6986,3.6986,3.7047,3.7182,3.7228,3.742,3.8316,3.8631,3.8928,3.9825,4.0703,4.1412,4.1431,4.2079,4.2629,4.2629,4.3289,4.387,4.3801,4.3099,4.2511,4.2454,4.2477,4.23,4.1588,4.3005,0.0,4.5455,4.7911,5.0162,5.178,5.3253,5.4092,5.4046,5.2911,5.2911,5.461,5.2716,5.1966,5.2839,5.03,4.8453,4.7533,4.471,4.2883,4.2179,0.0,0.0,0.0,0.0,0.0,0.0,0.0,0.0,0.0,0.0,0.0,0.0,0.0,0.0,0.0,0.0,0.0,0.0,0.0,0.0,0.0,0.0,2.4519,2.4717,2.6967,2.8621,2.8617,2.9662,3.0371,3.0356,3.0152,3.0642,3.2214,3.1676,3.1727,3.2752,3.2935,3.3219,3.3641,3.3668,3.3986,3.4615,3.4673,3.4865,3.5181,3.5544,3.5716,3.5752,3.657,3.6843,3.6721,3.7458,3.7758,3.7789,3.7726,3.7807,3.779,3.6261,3.5743,3.5805,3.5146,3.5043,3.5403,3.6296,3.6798,3.7052,3.7075,3.7099,3.7257,3.7886,3.8124,3.8401,3.9214,3.9548,3.9863,4.0781,4.1201,4.1565,4.2197,4.2957,4.3542,4.3542,4.4684,4.5688,4.5665,4.5456,4.4858,4.3502,4.3341,4.332,4.3226,4.4744,0.0,4.7261,4.9124,5.051,5.0873,5.1809,5.2579,5.3041,5.2626,5.3032,5.4673,5.3395,5.2669,5.2912,5.1343,4.9713,4.8088,4.5443,4.3415,0.0,0.0,0.0,0.0,0.0,0.0,0.0,0.0,0.0,0.0,0.0,0.0,0.0,0.0,0.0,0.0,0.0,0.0,0.0,0.0,0.0,0.0,2.4544,2.6915,2.7701,2.9005,3.0136,3.0818,3.1362,3.1719,3.1977,3.168,3.1818,3.2699,3.2311,3.2446,3.3377,3.3737,3.413,3.4658,3.4865,3.5148,3.5526,3.5661,3.5906,3.625,3.6644,3.6871,3.6953,3.7539,3.7758,0.0,3.8245,3.8541,3.859,3.8559,3.8652,0.0,0.0,0.0,0.0,0.0,3.6273,3.6849,3.7394,3.7812,3.8117,3.8183,3.8206,3.83,3.8776,3.9241,3.9705,4.022,4.0688,4.1176,4.1753,4.2195,4.2618,4.3135,4.4145,4.5001,4.5001,4.6027,4.6957,4.6957,4.691,0.0,4.4971,4.4512,4.4243,4.3928,4.5451,4.6971,4.7894,4.9894,5.1433,5.2122,5.2867,5.3468,5.3798,5.3,0.0,0.0,0.0,5.2186,5.1656,5.0583,0.0,0.0,0.0,0.0,0.0,0.0,0.0,0.0,3.7911,3.6903,0.0,0.0,0.0,0.0,0.0,0.0,0.0,0.0,0.0,0.0,0.0,0.0,0.0,0.0,0.0,0.0,2.7058,2.9945,3.0876,3.0787,3.0969,3.196,3.2721,3.3068,3.283,3.3019,3.305,3.2719,3.2902,3.3387,3.4203,0.0,0.0,0.0,0.0,3.6474,3.6118,3.6492,3.6934,3.7393,3.7907,3.8267,3.851,3.8478,3.8478,3.851,3.8541,3.859,3.8738,3.8792,3.8881,3.8847,3.7886,3.7573,3.7589,3.7259,3.7586,3.8227,3.8484,0.0,0.0,3.9689,3.9746,3.9797,3.9863,4.049,4.117,4.1241,4.1867,4.2544,4.2705,4.3361,4.4055,4.4246,4.543,4.6538,4.6634,4.7277,4.7861,4.7861,4.7748,4.7447,4.6725,4.5982,4.517,4.4325,4.5776,4.7278,4.8102,5.0449,5.2586,5.4028,0.0,0.0,5.5096,5.3499,5.3195,5.4817,5.3043,5.1446,5.038,4.9455,4.8807,4.8581,4.6134,4.5836,4.7864,4.6245,4.5116,4.4304,3.9231,3.7553,0.0,0.0,0.0,0.0,0.0,0.0,0.0,0.0,0.0,0.0,0.0,0.0,0.0,0.0,0.0,2.4487,2.7475,2.9981,3.0876,3.1546,3.2234,3.3096,3.3372,3.3473,3.3444,3.3569,3.3597,3.3415,3.3984,3.4389,3.4594,3.5299,0.0,3.6848,3.6967,3.7293,3.7895,3.7929,3.8103,3.8407,0.0,0.0,3.8658,3.8701,3.8652,3.851,3.8743,3.8822,3.8792,3.891,3.9036,3.911,3.8915,3.8469,3.8021,3.8721,3.8689,3.8375,3.918,3.9595,3.9758,3.9845,4.034,4.0908,4.0975,4.1522,0.0,4.2212,4.2392,4.2743,4.3454,4.3823,4.4341,4.5759,4.6292,4.6713,4.7463,4.8216,4.8757,4.8827,4.8762,4.8653,4.8505,4.7691,4.6806,4.6035,4.7468,4.8974,4.9865,5.1677,5.2715,5.2302,5.297,5.3379,5.3238,5.2825,5.3278,5.4876,5.4314,5.3687,5.3144,5.2159,5.1266,5.0388,4.897,4.7802,4.6961,4.6655,4.6091,4.5212,4.3542,4.2302,0.0,0.0,0.0,0.0,0.0,0.0,0.0,0.0,0.0,0.0,0.0,1.9917,2.1632,0.0,2.4806,2.6064,2.8633,3.0672,3.1177,3.2273,3.3205,3.355,3.3698,3.3698,3.3605,3.4147,3.4412,3.4217,3.4954,3.5622,3.6083,3.6364,3.6947,3.7888,3.7799,3.8031,3.8572,3.8515,3.8797,3.9399,3.9332,3.9583,4.0099,3.9644,3.9441,3.9423,3.9047,3.8921,3.895,3.9064,3.9202,3.9354,3.9395,3.9133,3.8833,3.9352,3.9312,3.9053,3.9576,4.0083,4.0514,4.0577,4.119,4.1895,4.1939,4.2484,4.3126,4.3171,4.3501,4.3964,4.4448,4.4891,4.5468,4.633,4.7191,4.7936,4.8398,4.9117,4.9644,4.9691,4.9644,4.9463,4.9086,4.8919,4.859,4.7815,4.8503,4.9743,5.1535,5.254,5.3231,5.3609,5.3989,5.4364,5.4683,5.4592,5.4572,5.4795,5.4616,5.4352,5.4017,5.3014,5.236,5.2103,5.0321,4.9113,4.8548,4.7769,4.7007,4.6241,4.5918,4.4913,0.0,0.0,0.0,0.0,0.0,0.0,0.0,0.0,1.953,2.2538,2.2207,2.2057,2.4179,2.5129,2.6118,2.7853,2.9911,3.1414,3.171,3.3121,3.4072,3.4045,3.4126,3.4126,3.3964,3.4889,3.5376,3.5154,3.5923,3.6732,3.747,3.7516,3.7851,3.8628,3.8687,3.8841,3.9043,3.9166,3.9632,4.0392,4.0392,4.0774,4.1494,4.0767,4.05,4.0597,3.9676,3.9333,3.9434,3.9339,3.9481,3.9796,3.9881,3.9962,4.0051,3.9924,4.0028,4.0231,4.0295,4.084,4.1494,4.1537,4.2151,4.2859,4.2859,4.3406,4.4087,4.4132,4.4611,4.5186,4.5404,4.5982,4.6617,4.6963,4.8111,4.914,4.9335,4.9866,5.0325,5.0325,5.0278,5.0045,4.9377,4.9792,4.9945,4.9124,4.935,5.0435,5.2724,5.3212,5.3925,5.542,5.5573,5.5873,5.6607,5.6499,5.5968,5.4944,5.4678,5.4439,5.4198,5.3348,5.2957,5.3142,5.1143,5.0156,5.018,4.8948,4.7947,4.7256,4.7333,4.6471,1.643,1.6831,1.7874,1.8448,1.8848,1.9614,0.0,0.0,2.6115,2.6182,2.5884,2.5958,2.7134,2.7278,2.7838,2.9711,3.0723,3.1648,3.2612,3.4123,3.5169,3.5298,3.5221,3.5195,3.5273,3.6048,3.6478,3.6316,3.7072,3.7542,3.7595,3.8247,3.87,3.8862,3.9564,3.9933,3.9963,4.0762,4.1278,4.1412,4.1441,4.1508,4.1688,4.1566,4.151,4.152,4.0792,4.057,4.0641,3.987,4.007,4.0839,4.091,4.1396,4.1992,4.1203,4.1415,4.2109,4.2109,4.2278,4.2521,4.2541,4.3073,4.3759,4.3759,4.4306,4.4969,4.5036,4.5135,4.5385,4.6237,4.6506,4.6988,4.8604,4.9041,4.9321,5.0172,5.0358,5.039,5.039,5.039,5.0352,5.0256,5.0268,5.0011,4.9124,5.0363,5.1794,5.2858,5.3731,5.4597,5.5431,5.5504,5.5796,5.645,5.6463,5.6292,5.5932,5.5145,5.459,5.4453,5.4139,5.3534,5.2679,5.2229,5.1161,4.9501,4.9499,4.9062,4.8139,4.8347,4.7536,2.0497,1.947,0.0,0.0,2.2644,2.337,2.3693,2.4709,2.595,2.7161,2.7313,2.7464,2.82,2.837,2.8824,0.0,3.0973,3.2088,3.3505,3.476,3.574,3.6304,3.6696,3.6756,3.624,3.6928,3.7357,3.7257,3.7978,3.8422,3.846,3.8736,3.9201,3.9797,4.0121,4.0529,4.1091,4.1444,4.1901,4.2406,4.2406,4.2725,4.3306,4.281,4.2324,4.1873,4.1623,4.1569,4.1582,4.1248,4.1354,4.1765,4.1882,4.2439,4.3107,4.2227,4.2177,4.2506,4.2506,4.2895,4.3399,4.3399,4.3993,4.4701,4.4701,4.4968,4.5213,4.5254,4.5621,4.6101,4.6487,4.7352,4.8294,4.9003,4.9537,4.9953,5.0358,5.039,5.0348,5.039,5.0367,5.0325,5.0325,5.0325,5.0359,5.0508,5.1189,5.2005,5.2897,5.3782,5.4818,5.6069,5.6613,5.6976,5.713,5.7596,5.7376,5.6209,5.5737,5.5227,5.4705,5.4318,5.3923,5.3386,5.2676,5.1869,5.0971,5.0131,4.9525,4.9213,4.8882,4.8345,2.2695,0.0,0.0,2.3971,2.5744,2.6592,2.6073,2.5909,2.6321,2.7982,2.8289,2.8364,2.8724,2.914,2.9724,3.0475,3.1492,3.2784,3.4558,3.5511,3.6376,3.7229,3.801,3.8196,3.7508,3.7939,3.8247,3.8247,3.8702,3.9036,3.9175,3.9342,3.9779,4.0514,4.0924,4.1455,4.2174,4.2361,4.2801,4.3446,4.3446,4.3867,4.4532,4.3904,4.3302,4.2761,4.2611,4.2542,4.2548,4.2375,4.2479,4.2754,4.2845,4.3403,4.411,4.3482,4.3295,4.3316,4.3316,4.374,4.4279,4.4279,4.476,4.5297,4.5297,4.5297,4.5335,4.5585,4.6124,4.6699,4.7219,4.8255,4.9254,4.9503,4.9975,5.0412,5.0457,5.0393,5.0371,5.0435,5.0412,5.0447,5.0654,5.0692,5.0975,5.1811,5.2207,5.264,5.328,5.4315,5.5423,5.66,5.7634,5.8157,5.7967,5.8538,5.8327,5.6948,5.6583,5.599,5.5145,5.4777,5.4368,5.3907,5.3142,5.2541,5.2143,5.1003,5.0359,5.025,4.9491,4.9191,0.0,0.0,2.364,2.5645,2.7246,2.8555,2.9435,2.9532,2.9438,2.9357,2.9251,2.9138,2.8998,2.9738,3.0676,3.1696,3.2577,3.3824,3.5773,3.6584,3.7248,3.8072,3.8877,3.9357,0.0,3.9219,3.9219,3.9335,3.9256,3.9256,3.9373,4.0139,4.0568,4.0606,4.21,4.3016,4.3156,4.3971,4.4467,4.4541,4.4621,4.4648,4.4693,4.4674,4.4681,4.4682,4.3956,4.3687,4.37,4.2911,4.3085,4.3847,4.3866,4.4386,4.5154,4.5135,4.5115,4.5115,4.5115,4.5178,4.5258,4.5258,4.5277,4.5297,4.5297,4.5297,4.5489,4.6315,4.6585,4.6988,4.8759,4.9199,4.9449,5.0433,5.0523,5.0435,5.0562,5.0542,5.0521,5.0582,5.0582,5.0832,5.1535,5.1664,5.1901,5.2657,5.3594,5.4219,5.4258,5.5696,5.6726,5.6715,5.8131,5.9015,5.8862,5.8881,5.8821,5.8647,5.7775,5.6846,5.5899,5.5676,5.502,5.3926,5.3795,5.3271,5.2299,5.2303,5.1935,5.1139,5.0415,5.0133,2.3294,0.0,2.5935,2.8114,2.9635,3.0612,3.0653,3.1035,3.1355,3.1141,3.0258,2.9411,2.9289,2.949,2.9981,3.0966,3.2783,3.4682,3.6509,3.7454,3.8282,3.911,3.9419,0.0,0.0,0.0,0.0,3.9391,3.9373,3.9589,4.0157,4.0536,4.1226,4.2377,4.3002,4.36,4.4191,4.4501,4.4659,4.4659,4.477,4.4821,4.484,4.4919,4.4986,4.4991,4.4775,4.5049,4.5567,4.5352,4.5755,4.656,4.6602,4.6409,4.6141,4.6181,4.6141,4.6001,4.5447,4.5297,4.5297,4.5297,4.5297,4.5392,4.5927,4.6099,4.6292,4.7195,4.789,4.8487,4.9123,4.974,5.0278,5.0546,5.0582,5.0562,5.0582,5.0562,5.0521,5.0582,5.1043,5.1461,5.1664,5.2139,5.279,5.3675,5.4081,5.4488,5.5025,5.6098,5.6989,5.7461,5.844,5.9302,5.9788,5.9748,5.941,5.8805,5.8426,5.7813,5.691,5.6149,5.5479,5.4985,5.4186,5.3626,5.3289,5.2771,5.2475,5.2323,5.1521,5.1183,2.5081,2.6269,2.7441,2.9813,3.0997,3.1599,3.1625,3.1992,3.2298,3.2145,3.0771,2.9569,2.9453,2.9675,2.9883,2.9907,3.2289,3.4661,3.6123,3.7112,3.8194,3.9566,4.0037,0.0,0.0,0.0,0.0,4.0046,4.0221,4.0615,4.1166,4.1562,4.2246,4.3337,4.3743,4.419,4.477,4.477,4.4815,4.4846,4.4919,4.4967,4.4967,4.5057,4.5278,4.5605,4.5652,4.6173,4.7016,4.7082,4.743,4.7947,4.7988,4.7623,4.7124,4.7144,4.7104,4.6927,4.6086,4.5969,4.6194,4.6258,4.6258,4.6332,4.687,4.7042,4.7235,4.8139,4.8814,4.9335,4.9701,5.0221,5.0663,5.0643,5.0603,5.0659,5.0988,5.1005,5.108,5.1469,5.1926,5.2343,5.2606,5.3311,5.4043,5.4664,5.4764,5.5071,5.5896,5.6731,5.7544,5.8284,5.9098,5.9769,6.0256,6.0216,5.9908,5.9254,5.9203,5.8761,5.7845,5.705,5.6281,5.5559,5.4764,5.4205,5.3907,5.3386,5.3199,5.3288,5.2519,5.2161,2.665,2.7585,2.8241,3.0703,3.1378,3.1688,3.2483,3.2607,3.2501,3.2354,3.0866,2.9589,0.0,0.0,3.0359,2.8883,3.1468,3.4055,3.5059,3.5894,3.7277,0.0,0.0,0.0,0.0,0.0,0.0,4.1302,0.0,4.2178,4.2356,4.3083,4.353,4.3567,4.4322,4.477,4.4895,4.4895,4.5005,4.516,4.5182,4.5201,4.5239,4.5258,4.5742,4.659,4.6577,4.7119,4.7984,4.8046,4.8105,4.8143,4.8143,4.8124,4.8085,4.8085,4.8085,4.7931,4.7106,4.7275,4.7821,4.7947,4.7968,4.7926,4.8046,4.8046,4.8239,4.9124,4.9355,4.9586,5.0529,5.0682,5.0642,5.0741,5.0622,5.0753,5.1663,5.1816,5.2064,5.2951,5.314,5.3423,5.4309,5.5052,5.5527,5.5573,5.5634,5.5961,5.6787,5.7604,5.8393,5.9128,5.9928,6.038,6.0313,6.0313,6.0235,6.0026,5.9994,5.957,5.8613,5.8317,5.7388,5.572,5.5433,5.4894,5.4091,5.4091,5.4127,5.4108,5.3342,5.3053,2.7421,2.8593,2.9895,3.1202,3.1981,3.2651,3.3455,3.4124,3.4168,3.2816,3.1162,2.9589,0.0,0.0,0.0,3.0463,3.379,0.0,3.7619,3.8534,0.0,0.0,0.0,4.1535,4.2145,4.2959,0.0,0.0,4.2648,4.2588,4.3232,4.3568,4.399,4.4524,4.4849,4.5014,4.5057,4.5103,4.5471,4.6145,4.6192,4.656,4.7171,4.7233,4.739,4.7622,4.7662,4.8182,4.8951,4.9009,4.9433,5.0009,5.0009,4.9586,4.8971,4.9009,4.899,4.8872,4.876,4.8394,4.7947,4.7988,4.7988,4.8083,4.8698,4.887,4.9083,5.0006,5.0276,5.0489,5.1355,5.1125,5.0817,5.1452,5.1105,5.0721,5.0952,5.1491,5.1991,5.2143,5.3155,5.4261,5.5086,5.537,5.5504,5.5527,5.613,5.6652,5.6863,5.7647,5.8443,5.9128,5.9963,6.0444,6.0361,6.0323,6.0235,6.0087,6.0026,5.9868,5.955,5.8826,5.7861,5.667,5.5911,5.5093,5.4254,5.4254,5.4306,5.4386,5.418,5.4152,2.8679,2.9882,3.1123,3.1956,3.2814,3.3434,3.3513,3.3868,3.3704,3.1913,3.018,0.0,0.0,0.0,0.0,0.0,0.0,0.0,3.7622,3.8804,4.0062,0.0,4.2041,0.0,4.3128,4.3926,4.4443,0.0,4.3964,4.3795,4.4288,4.433,4.4562,4.4972,4.5103,4.517,4.5213,4.564,4.6082,4.66,4.7026,4.7468,4.7947,4.7988,4.822,4.8566,0.0,4.9125,4.9913,4.9971,5.0471,5.1221,5.1221,5.0894,5.0451,5.0471,5.0221,4.9854,4.9933,4.9625,4.9182,4.9182,4.9162,4.9218,4.972,4.9854,5.0046,5.0891,5.1141,5.1237,5.1778,5.1568,5.126,5.1395,5.1375,5.1414,5.1761,5.2531,5.3205,5.3428,5.423,5.501,5.538,5.5504,5.5551,5.5551,5.6322,5.7036,5.742,5.8208,5.9004,5.9728,6.0238,6.0472,6.0417,6.038,6.0304,6.0197,6.0106,6.0026,5.995,5.9384,5.8472,5.7163,5.6911,5.6052,5.4461,5.4818,5.4867,5.459,5.459,5.4654,3.0158,3.1141,3.1939,3.2858,3.3641,3.3981,3.3103,3.2858,3.2281,3.0286,0.0,2.7555,2.7325,2.9303,3.0605,2.9478,0.0,3.6426,3.6861,3.8307,3.989,4.1415,4.3,4.4034,4.409,4.4775,4.5256,4.5379,4.5235,4.517,4.5213,4.517,4.5129,4.5129,4.5213,4.5335,4.5571,4.632,4.6819,4.7049,4.7817,4.8239,4.8354,4.8489,4.8931,4.9663,0.0,0.0,5.1049,5.1049,5.1472,5.2088,5.1952,5.1914,5.1895,5.1779,5.1298,5.0702,5.0683,5.0702,5.0702,5.0702,5.0643,5.0603,5.0663,5.074,5.0971,5.1602,5.1794,5.1853,5.2028,5.1991,5.178,5.1257,5.1718,5.2452,5.3146,5.3957,5.4804,5.564,5.5673,5.5589,5.561,5.5604,5.5618,5.5618,5.6464,5.7367,5.8093,5.8899,5.9676,6.0482,6.0525,6.0444,6.0389,6.0389,6.0361,6.0264,6.0167,6.0087,5.9994,5.989,5.9053,5.7484,5.8098,5.731,5.5012,5.5616,5.5541,5.4875,5.4761,5.4799,3.129,3.1675,3.2158,3.367,3.4171,3.4056,3.3179,3.2974,0.0,0.0,2.7977,2.7321,2.5879,2.7603,0.0,3.1648,0.0,0.0,0.0,0.0,4.1437,0.0,0.0,0.0,0.0,0.0,0.0,0.0,0.0,0.0,4.5359,4.5361,4.5341,4.5341,4.5361,4.5706,4.6473,4.6685,4.7473,4.8855,4.9067,4.9529,5.0259,5.0972,5.1376,5.1568,5.2338,0.0,5.2935,5.2935,5.3012,5.307,5.2281,5.1973,5.1896,5.1164,5.0818,5.0683,5.0623,5.0623,5.0623,5.0623,5.0603,5.0603,5.0542,5.1001,5.1557,5.167,5.1813,5.2048,5.2779,5.2512,5.2202,5.2741,5.3011,5.3204,5.3263,5.3836,5.4825,5.6428,5.6049,5.5686,5.651,5.6099,5.5703,5.5766,5.7116,5.8156,5.8204,5.8856,5.9594,6.0349,6.0417,6.0389,6.0323,6.038,6.0313,6.0148,6.0159,6.0099,5.9918,5.9904,5.9365,5.8297,5.8429,5.7872,5.6673,5.6163,5.5856,5.575,5.5089,5.4841,3.1748,3.2502,3.3353,3.4144,3.4704,3.4442,3.2257,0.0,0.0,0.0,2.6554,2.6273,2.5362,0.0,0.0,0.0,0.0,0.0,0.0,0.0,0.0,0.0,0.0,0.0,0.0,0.0,0.0,0.0,0.0,0.0,4.5438,4.54,4.5419,4.5438,4.5936,4.6378,4.6801,4.7741,4.8817,5.0029,5.0529,5.1222,5.2126,5.255,5.2723,5.2742,5.3204,0.0,5.3358,5.2877,5.2935,5.3242,5.23,5.1973,5.2011,5.1991,5.1741,5.1376,5.1356,5.1356,5.1299,5.0818,5.0604,5.0619,5.0998,5.142,5.1938,5.2842,5.3157,5.3317,5.3802,5.3668,5.3377,5.3356,5.3723,5.4186,5.4593,5.5287,5.5939,5.6345,5.6357,5.6291,5.6275,5.5972,5.592,5.6403,5.7499,5.8399,5.8773,5.9503,6.0092,6.0433,6.0444,6.0417,6.0352,6.0361,6.0361,6.0256,6.0256,6.0216,6.0095,6.0045,5.9614,5.8717,5.9115,5.8489,5.672,5.6727,5.6311,5.547,5.5072,5.496,3.2271,3.3403,3.4459,3.4652,3.5203,3.4805,3.1371,3.055,0.0,0.0,2.5388,2.5341,2.5222,0.0,2.9845,0.0,0.0,0.0,0.0,0.0,0.0,0.0,0.0,0.0,0.0,0.0,0.0,0.0,0.0,0.0,4.6014,4.5994,4.6013,4.6069,4.6815,4.7372,4.7738,4.891,5.0007,5.1027,5.149,5.2126,5.2837,5.303,5.3126,5.3145,5.3512,0.0,0.0,5.2837,5.2895,5.3241,5.23,5.2088,5.2357,5.28,5.255,5.203,5.1992,5.1914,5.1681,5.0913,5.0606,5.0677,5.148,5.1902,5.2423,5.3983,5.4408,5.4472,5.4574,5.4612,5.4533,5.4067,5.4473,5.5168,5.5864,5.6463,5.6753,5.6252,5.6501,5.6633,5.6092,5.5902,5.6135,5.7023,5.7728,5.8466,5.9354,6.0142,6.0604,6.0578,6.0525,6.0472,6.0408,6.0389,6.0389,6.0361,6.0352,6.0294,6.0264,6.0167,5.9813,5.9166,5.9775,5.9071,5.694,5.7338,5.6757,5.5294,5.5104,5.5085,3.3441,3.4274,3.4661,3.5389,3.564,3.4787,3.1294,0.0,0.0,2.6101,2.5351,2.5293,2.5209,2.6694,2.844,2.9937,3.1866,3.4553,0.0,0.0,0.0,0.0,0.0,0.0,0.0,0.0,0.0,0.0,0.0,0.0,0.0,4.7911,4.7946,4.7946,4.8077,4.8902,5.0445,4.9828,5.033,5.195,5.1256,5.0966,5.1063,5.1854,5.2236,5.231,5.3894,0.0,0.0,5.4254,5.4102,5.3297,5.2428,5.2584,5.3185,5.2471,5.2162,5.2085,5.203,5.1491,5.0797,5.0645,5.0644,5.0818,5.1565,5.2391,5.3259,5.4139,5.4474,5.4593,5.4593,5.4687,5.4951,5.5589,5.5822,5.5902,5.598,5.5962,5.6115,5.6769,5.6323,5.6073,5.6829,5.6387,5.6213,5.7137,5.7892,5.8701,5.9568,6.0215,6.0655,6.0753,6.0604,6.0444,6.0323,6.0361,6.0361,6.0294,6.0352,6.0332,6.0118,6.0118,6.008,6.0004,6.0061,5.9642,5.8671,5.7948,5.7149,5.6255,5.5474,5.5149,3.3913,3.4881,3.5357,3.564,3.4933,3.3548,3.1062,0.0,2.8261,2.5888,2.5341,2.5447,2.5894,2.6531,2.7541,2.9212,3.0849,3.3096,3.6435,0.0,0.0,0.0,0.0,0.0,0.0,0.0,0.0,0.0,0.0,0.0,0.0,4.8738,4.8214,4.8214,4.8784,4.9379,5.0002,5.0229,5.0941,5.2099,5.1752,5.1868,5.2442,5.2771,5.2942,5.2981,5.3694,0.0,0.0,5.3252,5.2981,5.2594,5.1674,5.1541,5.1908,5.2064,5.2103,5.2101,5.2064,5.2198,5.2292,5.1734,5.1945,5.2429,5.2588,5.324,5.4107,5.5034,5.5345,5.5401,5.5474,5.5511,5.5741,5.6592,5.6383,5.6134,5.6617,5.6714,5.6637,5.6444,5.6541,5.6618,5.6463,5.6172,5.6441,5.7869,5.8181,5.8789,6.0176,6.0565,6.0704,6.068,6.0552,6.0444,6.0491,6.0472,6.0417,6.038,5.992,5.9633,5.9502,5.9522,5.9274,5.8797,5.9254,5.8854,5.7518,5.712,5.6777,5.6507,5.6164,5.6332,3.3709,3.4979,3.5799,3.5745,3.4457,3.2725,0.0,2.9149,2.7403,2.5688,2.5313,2.5446,2.6009,2.6312,2.6941,2.8415,2.9813,3.1832,3.4985,3.7463,0.0,0.0,0.0,0.0,0.0,0.0,0.0,0.0,0.0,0.0,0.0,4.9621,4.9001,4.8964,4.9628,5.0088,5.0303,5.0687,5.1302,5.2133,5.1863,5.2092,5.2724,5.2727,5.2743,5.2759,0.0,0.0,0.0,5.2321,5.2031,5.176,5.1093,5.1153,5.1711,5.2312,5.2679,5.2906,5.2906,5.3155,5.3401,5.2782,5.3169,5.3868,5.3725,5.4073,5.4728,5.5672,5.5959,5.6012,5.6117,5.6098,5.622,5.6803,5.6478,5.617,5.6713,5.6884,5.6747,5.6145,5.6515,5.6728,5.6126,5.6012,5.6592,5.8333,5.8412,5.8883,6.0641,6.0827,6.0777,6.0729,6.0578,6.0525,6.0629,6.0578,6.0384,6.0108,5.9523,5.9056,5.8792,5.9002,5.885,5.8295,5.9106,5.8838,5.7411,5.7084,5.6988,5.7047,5.6754,5.699,3.2745,3.4486,3.5803,3.5803,3.4481,3.2705,0.0,2.911,2.7383,2.5576,2.519,2.5201,2.5217,2.5853,2.6713,2.7654,2.8549,3.0621,3.4911,3.5541,0.0,0.0,0.0,0.0,0.0,0.0,0.0,0.0,0.0,0.0,0.0,5.0863,5.0844,5.0773,5.0858,5.1312,5.2163,5.1331,5.1351,5.2182,5.1331,5.0925,5.0945,5.0935,5.0967,0.0,0.0,0.0,0.0,5.1954,5.1753,5.0899,5.0909,5.1918,5.3372,5.3462,5.402,5.4774,5.4774,5.4213,5.3498,5.3478,5.4078,5.4793,5.4774,5.4788,5.4959,5.576,5.6098,5.6199,5.6199,5.6199,5.6184,5.6117,5.6117,5.6082,5.6012,5.6012,5.6029,5.6082,5.6065,5.6029,5.6082,5.6046,5.6592,5.8333,5.8472,5.9031,6.077,6.0875,6.0846,6.0976,6.0823,6.0685,6.0685,6.0655,6.024,5.9351,5.9223,5.8834,5.8049,5.8776,5.9197,5.9178,6.0118,6.0144,5.9262,5.84,5.8023,5.8078,5.7142,5.6783,3.1098,3.1954,3.237,3.2329,3.0998,2.9536,2.885,2.7393,2.6025,2.5397,2.5241,2.5384,2.599,2.5814,2.6255,2.8341,2.8914,3.0186,0.0,0.0,0.0,0.0,0.0,0.0,0.0,0.0,0.0,0.0,0.0,0.0,0.0,5.0861,5.0877,5.0863,5.0893,5.1041,5.1312,5.1041,5.1041,5.1312,5.1041,5.0906,5.0906,5.096,0.0,0.0,0.0,0.0,0.0,5.3063,5.301,5.2763,5.2752,5.3065,5.353,5.3514,5.3672,5.3904,5.3904,5.4116,5.4387,5.4387,5.4948,5.5625,5.5625,5.5659,5.5765,5.6048,5.6156,5.6204,5.6251,5.6218,5.6325,5.6912,5.6571,5.6253,5.683,5.6485,5.6082,5.6098,5.6082,5.6065,5.6029,5.6012,5.6592,5.8333,5.8529,5.909,6.079,6.092,6.0877,6.0939,6.0872,6.0823,6.0777,6.0704,6.052,6.022,5.9651,5.921,5.8911,5.9141,5.9007,5.8451,5.9281,5.93,5.85,5.8207,5.8404,5.899,5.9388,5.8954,2.9343,3.0272,3.0742,3.0703,2.938,2.8063,2.7933,2.6583,2.5341,2.528,2.522,2.5373,2.5913,2.5836,2.6346,2.8338,2.8929,3.026,0.0,0.0,0.0,0.0,0.0,0.0,0.0,0.0,0.0,0.0,0.0,0.0,0.0,0.0,5.0909,5.0897,5.0909,5.0906,5.0906,5.0906,5.0906,5.0906,5.127,5.144,5.144,5.1814,0.0,0.0,0.0,0.0,0.0,5.3649,5.3615,5.3601,5.3611,5.3774,5.4045,5.4017,5.4175,5.4445,5.4445,5.4829,5.5274,5.5274,5.5639,5.6082,5.6082,5.6098,5.6164,5.6218,5.6246,5.6246,5.6291,5.6278,5.6368,5.6883,5.6815,5.6765,5.7288,5.6966,5.6714,5.7056,5.683,5.6679,5.6989,5.6759,5.711,5.8833,5.8797,5.9185,6.0829,6.1002,6.0962,6.092,6.0916,6.0911,6.0846,6.0777,6.0575,6.0224,5.9706,5.924,5.8909,5.9196,5.91,5.8601,5.9432,5.9605,5.913,5.913,5.9249,5.9488,6.0115,5.9659,0.0,2.916,3.0341,3.0334,2.9101,2.7873,2.775,2.6458,0.0,2.5225,2.5206,2.5228,2.5288,2.5951,2.6836,2.7832,2.8713,0.0,0.0,0.0,0.0,0.0,0.0,0.0,0.0,0.0,0.0,0.0,0.0,0.0,0.0,0.0,5.1003,5.1003,5.1061,5.1061,5.1003,5.1061,5.1099,5.1099,5.1978,5.2395,5.2414,5.3252,0.0,0.0,0.0,0.0,0.0,5.387,5.3857,5.379,5.3785,5.4235,5.4897,5.4887,5.5374,5.6012,5.6012,5.6046,5.6098,5.6098,5.6149,5.6199,5.6199,5.6199,5.6214,5.6265,5.6291,5.6311,5.6369,5.6388,5.6395,5.6403,5.7,5.7582,5.7505,5.7489,5.7757,5.8629,5.8099,5.7757,5.8649,5.8079,5.8051,5.9661,5.929,5.937,6.0904,6.1099,6.1061,6.0941,6.0978,6.0976,6.0914,6.0846,6.05,5.9755,5.9565,5.9173,5.8423,5.9091,5.9494,5.9494,6.0373,6.08,6.08,6.08,6.0442,5.9699,5.9642,5.9181,2.6036,0.0,2.6797,2.6722,2.6404,2.6083,0.0,2.5581,2.5292,2.529,2.5282,2.5485,2.615,2.6438,2.7093,2.8634,2.9629,0.0,0.0,0.0,0.0,0.0,0.0,0.0,0.0,0.0,0.0,0.0,0.0,0.0,0.0,0.0,5.1973,5.1964,5.2603,5.2627,5.1892,5.2601,5.2965,5.2965,5.3185,5.3291,5.331,5.3552,0.0,0.0,0.0,0.0,5.5696,5.5696,5.5676,5.5663,5.5603,5.571,5.5854,5.5807,5.5907,5.6082,5.6082,5.6133,5.6184,5.6184,5.6184,5.6199,5.619,5.6204,5.6204,5.6232,5.6213,5.6387,5.7028,5.7222,5.7377,5.8032,5.8348,5.8489,5.8464,5.8469,5.8552,5.876,5.861,5.8517,5.8696,5.8545,5.8742,5.9808,5.9859,6.0131,6.1145,6.121,6.1155,6.1061,6.102,6.0978,6.0981,6.0978,6.0858,6.0687,6.0602,6.0461,6.0269,6.0396,6.0469,6.0469,6.0685,6.0823,6.0888,6.0888,6.0795,6.0668,6.0034,5.9282,2.555,2.5579,2.5571,2.5473,2.5471,2.5476,2.5369,2.5361,2.5351,2.5351,0.0,2.6044,2.6506,2.7874,2.9002,2.9166,3.1262,0.0,0.0,0.0,0.0,0.0,0.0,0.0,0.0,0.0,0.0,0.0,0.0,0.0,0.0,0.0,5.2482,5.2884,5.3746,5.3756,5.2845,5.3359,5.3591,5.3591,5.4003,5.4192,5.4225,5.4673,5.5133,0.0,0.0,0.0,5.6291,5.6291,5.6291,5.6291,5.6232,5.6204,5.6209,5.6164,5.6149,5.6149,5.6149,5.618,5.6209,5.6209,5.6223,5.6238,5.6218,5.6504,5.6847,5.6847,5.6847,5.7042,5.7876,5.8109,5.8226,5.8692,5.9119,5.9391,5.9391,5.9396,5.9498,5.9934,5.9668,5.9517,5.9886,5.9619,5.9623,6.0476,6.0298,6.0375,6.1217,6.1245,6.1173,6.1099,6.1041,6.1,6.1002,6.1041,6.104,6.1,6.0957,6.0955,6.0955,6.0869,6.0846,6.0846,6.0888,6.0914,6.0959,6.0935,6.0804,6.048,5.9611,5.8742,2.5587,2.5885,2.6067,2.5546,2.5557,2.5681,2.5605,2.5597,0.0,0.0,0.0,0.0,0.0,2.9456,0.0,0.0,0.0,0.0,0.0,0.0,0.0,0.0,0.0,0.0,0.0,0.0,0.0,0.0,0.0,0.0,0.0,0.0,0.0,5.3785,5.4646,5.4757,5.4031,5.4012,5.3998,5.4017,5.4763,5.512,5.5139,5.5947,5.6297,0.0,0.0,0.0,5.6291,5.6291,5.6291,5.6291,5.6246,5.6199,5.6199,5.6194,5.6214,5.6214,5.6214,5.6223,5.6232,5.6232,5.6246,5.6311,5.6387,5.6964,5.7651,5.7904,5.7884,5.7981,5.8783,5.8997,5.9036,5.9163,5.976,6.0298,6.0289,6.0308,6.0522,6.125,6.0789,6.0522,6.1269,6.0789,6.0541,6.1205,6.0735,6.0546,6.1217,6.1245,6.1192,6.1117,6.1061,6.1022,6.1022,6.108,6.108,6.1022,6.102,6.0997,6.0997,6.0955,6.0933,6.0933,6.0976,6.0999,6.1002,6.1,6.0673,6.0054,5.9128,5.8297,2.5531,2.7123,2.8281,2.6042,2.6054,2.6571,2.6525,2.6497,2.6525,0.0,0.0,0.0,0.0,0.0,0.0,0.0,0.0,0.0,0.0,0.0,0.0,0.0,0.0,0.0,0.0,0.0,0.0,0.0,0.0,0.0,0.0,0.0,0.0,5.4783,5.5636,5.6018,5.5889,5.5889,5.5877,5.589,5.6025,5.6096,5.6096,5.6226,5.6304,0.0,0.0,5.6304,5.6291,5.6291,5.6291,5.6291,5.6291,5.6246,5.6199,5.6199,5.6185,5.6218,5.6265,5.6278,5.6291,5.6291,5.6291,5.6447,5.7165,5.7496,5.7904,5.9322,5.9177,5.8814,5.9687,5.9901,6.0095,6.0842,6.1094,6.1206,6.1192,6.1192,6.123,6.1381,6.1289,6.123,6.1381,6.1289,6.123,6.1366,6.1269,6.1216,6.1302,6.1294,6.1245,6.1173,6.1117,6.108,6.108,6.1099,6.1099,6.108,6.1041,6.1,6.0997,6.0976,6.0976,6.0976,6.0997,6.0999,6.1002,6.1002,6.0964,6.0905,6.0074,5.9223,2.6086,2.7077,2.8055,2.8262,2.9317,3.0178,2.9637,2.9547,2.9303,0.0,0.0,0.0,0.0,0.0,0.0,0.0,0.0,0.0,0.0,0.0,0.0,0.0,0.0,0.0,0.0,0.0,0.0,0.0,0.0,0.0,0.0,0.0,0.0,5.5695,5.6131,5.6347,5.6345,5.6377,5.6397,5.6353,5.6321,5.6302,5.6302,5.6341,5.6329,5.6291,0.0,5.6341,5.6297,5.6304,5.6304,5.6297,5.6304,5.6278,5.6246,5.6246,5.6246,5.6246,5.6291,5.6291,5.6369,5.6855,5.6991,5.7165,5.8001,5.8583,5.9108,5.9885,5.9813,5.9701,6.0575,6.0789,6.0886,6.1289,6.14,6.14,6.14,6.14,6.14,6.14,6.14,6.14,6.14,6.14,6.14,6.14,6.14,6.1386,6.1302,6.131,6.1261,6.121,6.1137,6.1099,6.1099,6.1099,6.1099,6.1099,6.108,6.1041,6.1,6.1021,6.1021,6.1,6.104,6.106,6.1041,6.1041,6.0848,6.0441,6.0053,5.9452,2.6578,2.7244,2.8228,3.045,3.1695,3.237,3.2239,3.1961,3.1443,0.0,0.0,0.0,0.0,0.0,0.0,0.0,0.0,0.0,0.0,0.0,0.0,0.0,0.0,0.0,0.0,0.0,0.0,0.0,0.0,0.0,0.0,0.0,5.5633,5.6294,5.6368,5.6398,5.6397,5.6465,5.6465,5.6397,5.6356,5.6325,5.6333,5.6375,5.6364,5.6304,5.6364,5.6375,5.6314,5.6329,5.6309,5.6302,5.6297,5.6304,5.6291,5.6291,5.6291,5.6291,5.6291,5.6427,5.6699,5.7373,5.7742,5.8053,5.8882,5.9581,6.0164,6.0378,6.0436,6.0592,6.1225,6.14,6.14,6.14,6.14,6.14,6.14,6.14,6.14,6.14,6.14,6.14,6.14,6.14,6.14,6.14,6.14,6.1386,6.1337,6.1326,6.1294,6.1261,6.1191,6.1136,6.1155,6.1155,6.1155,6.1117,6.1099,6.108,6.1022,6.108,6.108,6.1022,6.108,6.1099,6.1099,6.1117,6.0826,6.0208,6.0222,5.9791,2.6585,2.8572,3.0658,3.1656,3.0769,3.0296,3.2668,3.1999,0.0,3.272,0.0,0.0,0.0,0.0,0.0,0.0,0.0,0.0,0.0,0.0,0.0,0.0,0.0,0.0,0.0,0.0,0.0,0.0,0.0,0.0,0.0,0.0,0.0,5.6386,5.6398,5.6407,5.6407,5.6474,5.6474,5.6407,5.6407,5.6388,5.6386,5.6406,5.6356,5.6302,5.6375,5.6406,5.6386,5.6386,5.6364,5.6302,5.6302,5.6297,5.6291,5.6291,5.6291,5.6291,5.6291,5.6835,5.7528,5.7573,5.8149,5.8978,5.9838,6.0141,6.0355,6.1161,6.1394,6.1401,6.1394,6.14,6.14,6.14,6.14,6.14,6.14,6.14,6.14,6.14,6.14,6.14,6.14,6.14,6.14,6.14,6.14,6.14,6.1386,6.1386,6.1386,6.1386,6.1337,6.1291,6.1297,6.1297,6.1245,6.121,6.1117,6.1099,6.1099,6.1099,6.1099,6.1099,6.1099,6.1099,6.1099,6.115,6.1167,6.1113,6.1178,6.0724,2.7232,2.9116,3.104,3.246,3.2285,0.0,0.0,3.4367,3.3789,3.332,3.4048,0.0,0.0,0.0,0.0,0.0,0.0,0.0,0.0,0.0,0.0,0.0,0.0,0.0,0.0,0.0,0.0,0.0,0.0,0.0,0.0,0.0,0.0,5.6398,5.6437,5.6455,5.6455,5.6483,5.6483,5.6455,5.6417,5.6398,5.6406,5.6407,5.6347,5.6302,5.6377,5.6398,5.6398,5.6397,5.6397,5.6358,5.6325,5.6309,5.6291,5.6291,5.6641,5.7107,5.7107,5.7651,5.8441,5.9031,5.9432,5.9872,6.0733,6.1017,6.1075,6.1406,6.1503,6.1472,6.1421,6.1389,6.1408,6.14,6.14,6.14,6.14,6.14,6.14,6.14,6.14,6.14,6.14,6.1394,6.1408,6.14,6.1441,6.1454,6.1421,6.1389,6.1389,6.1389,6.1381,6.1352,6.1356,6.1291,6.1239,6.1203,6.1191,6.1155,6.1099,6.1099,6.1136,6.1169,6.1169,6.1203,6.1291,6.1302,6.1302,6.1255,6.1332,6.1186,2.8443,2.9783,3.1239,3.3517,0.0,0.0,3.5652,3.5768,3.5266,3.4853,3.5699,0.0,0.0,0.0,0.0,0.0,0.0,0.0,0.0,0.0,0.0,0.0,0.0,0.0,0.0,0.0,0.0,0.0,0.0,0.0,0.0,0.0,0.0,0.0,5.6474,5.6503,5.6503,5.6503,5.6503,5.6503,5.6455,5.6427,5.6407,5.6407,5.6398,5.6336,5.6407,5.6426,5.6417,5.6427,5.6417,5.6398,5.6325,5.6309,5.633,5.6602,5.7088,5.7632,5.7884,5.8525,5.9335,5.9976,6.0378,6.074,6.134,6.1526,6.1526,6.1526,6.1526,6.1495,6.144,6.1428,6.1402,6.14,6.14,6.14,6.14,6.14,6.14,6.14,6.14,6.1394,6.1394,6.1402,6.1415,6.1428,6.1447,6.146,6.1428,6.1421,6.1433,6.1433,6.1428,6.1434,6.1441,6.1347,6.1298,6.1264,6.1252,6.1223,6.1154,6.1171,6.1223,6.1268,6.1268,6.1318,6.14,6.1428,6.1394,6.1327,6.1396,6.144,3.0192,3.071,3.155,0.0,0.0,0.0,3.6221,3.5715,3.5221,3.7713,0.0,3.8481,0.0,0.0,0.0,0.0,0.0,0.0,0.0,0.0,0.0,0.0,0.0,0.0,0.0,0.0,0.0,0.0,0.0,0.0,0.0,0.0,0.0,0.0,5.6503,5.6503,5.6503,5.6503,5.6503,5.6503,5.6503,5.6455,5.6388,5.6474,5.6455,5.6388,5.6474,5.6503,5.6503,5.6503,5.6456,5.6386,5.6333,5.6309,5.6427,5.7282,5.7612,5.7729,5.8545,5.938,6.0112,6.0188,6.0803,6.1515,6.1568,6.1607,6.1607,6.1607,6.1549,6.1509,6.1495,6.146,6.1402,6.14,6.14,6.14,6.14,6.14,6.14,6.14,6.1408,6.1396,6.1396,6.1396,6.1428,6.1491,6.144,6.1428,6.1503,6.1498,6.1489,6.1489,6.1489,6.1498,6.1503,6.1503,6.1472,6.1415,6.1396,6.1356,6.1217,6.1318,6.14,6.14,6.14,6.14,6.1414,6.1479,6.1472,6.1396,6.1468,6.1489,2.8554,3.1079,0.0,3.3925,0.0,0.0,0.0,3.6135,0.0,0.0,0.0,0.0,0.0,0.0,0.0,0.0,0.0,0.0,0.0,0.0,0.0,0.0,0.0,0.0,0.0,0.0,0.0,0.0,0.0,0.0,0.0,0.0,0.0,0.0,5.6503,5.6503,5.6503,5.6503,5.6503,5.6503,5.6503,5.6455,5.6388,5.6474,5.6455,5.6388,5.6474,5.6503,5.6503,5.6503,5.6456,5.6406,5.6375,5.671,5.7243,5.7496,5.835,5.938,5.9632,6.0287,6.1033,6.1083,6.1281,6.1509,6.1578,6.1578,6.1519,6.1519,6.1518,6.1495,6.144,6.1408,6.1402,6.14,6.14,6.14,6.14,6.14,6.14,6.14,6.14,6.1408,6.1396,6.1396,6.1428,6.1491,6.1476,6.1498,6.1558,6.1568,6.1578,6.1578,6.1578,6.1578,6.1568,6.1526,6.1503,6.1472,6.1472,6.1434,6.1332,6.1381,6.1428,6.1479,6.1479,6.1503,6.1537,6.1558,6.1528,6.1468,6.1539,6.1578,3.0542,3.281,0.0,3.5612,3.6833,3.7868,3.8006,0.0,0.0,0.0,0.0,0.0,0.0,0.0,0.0,0.0,0.0,0.0,0.0,0.0,0.0,0.0,0.0,0.0,0.0,0.0,0.0,0.0,0.0,0.0,0.0,0.0,0.0,0.0,5.6503,5.6503,5.6503,5.6503,5.6503,5.6503,5.6503,5.6483,5.6446,5.6483,5.6483,5.6446,5.6483,5.6503,5.6503,5.6503,5.6456,5.6425,5.6766,5.7212,5.7677,5.8377,5.927,6.0203,6.0514,6.0955,6.1408,6.1484,6.1498,6.1519,6.1578,6.1578,6.1549,6.1549,6.1518,6.1503,6.146,6.1415,6.1389,6.1408,6.1414,6.14,6.1394,6.14,6.14,6.14,6.1414,6.1408,6.1447,6.144,6.1452,6.1537,6.1539,6.1549,6.1588,6.1607,6.1607,6.1607,6.1607,6.1607,6.1607,6.1558,6.1537,6.1537,6.1537,6.1526,6.1491,6.1491,6.1503,6.1537,6.1537,6.1558,6.1606,6.1606,6.1578,6.1539,6.1584,6.1612,3.4158,0.0,0.0,3.87,3.8451,0.0,0.0,0.0,0.0,0.0,0.0,0.0,0.0,0.0,0.0,0.0,0.0,0.0,0.0,0.0,0.0,0.0,0.0,0.0,0.0,0.0,0.0,0.0,0.0,0.0,0.0,0.0,0.0,0.0,5.6503,5.6503,5.6503,5.6503,5.6503,0.0,5.6503,5.6503,5.6503,5.6503,5.6503,5.6503,5.6503,5.6503,5.6503,5.6503,5.6514,5.6591,5.7391,5.7759,5.8025,5.9607,6.0249,6.0424,6.1162,6.1408,6.1421,6.1479,6.1489,6.1519,6.1578,6.1607,6.1588,6.1588,6.1548,6.1503,6.1503,6.1454,6.14,6.1402,6.1408,6.14,6.1402,6.1408,6.14,6.14,6.1389,6.1428,6.1484,6.1503,6.1526,6.1578,6.1607,6.1607,6.1607,6.1607,6.1607,6.1607,6.1607,6.1607,6.1607,6.1607,6.1607,6.1588,6.1588,6.1597,6.1597,6.1588,6.1607,6.1588,6.1588,6.1606,6.1603,6.1603,6.16,6.1595,6.1615,6.1621,3.0522,3.3607,0.0,0.0,3.8918,0.0,0.0,0.0,0.0,0.0,0.0,0.0,0.0,0.0,0.0,0.0,0.0,0.0,0.0,0.0,0.0,0.0,0.0,0.0,0.0,0.0,0.0,0.0,0.0,0.0,0.0,0.0,0.0,5.6503,5.6503,5.6503,5.6503,5.6503,5.6503,0.0,5.6503,5.6503,5.6503,5.6503,5.6503,5.6503,5.6503,5.6503,5.6503,5.6503,5.6855,5.7439,5.7634,5.849,5.9694,6.0063,6.0635,6.1258,6.1414,6.1476,6.1479,6.1509,6.1549,6.1578,6.1607,6.1559,6.1519,6.1519,6.1476,6.1428,6.1428,6.1408,6.14,6.1402,6.1408,6.14,6.14,6.1408,6.1402,6.1402,6.1428,6.1484,6.1498,6.1495,6.1495,6.1519,6.1578,6.1607,6.1607,6.1607,6.1607,6.1607,6.1607,6.1607,6.1607,6.1607,6.1597,6.1595,6.1595,6.1603,6.16,6.1606,6.1597,6.1595,6.1595,6.1603,6.1607,6.1607,6.1595,6.1595,6.1648,6.1673,3.1735,0.0,0.0,3.85,0.0,0.0,0.0,0.0,0.0,0.0,0.0,0.0,0.0,0.0,0.0,0.0,0.0,0.0,0.0,0.0,0.0,0.0,0.0,0.0,0.0,0.0,0.0,0.0,0.0,0.0,0.0,5.6498,5.6496,5.65,5.6492,5.6503,5.6503,5.6503,5.6503,5.6503,5.6503,5.6503,5.6503,5.6503,5.6503,5.6503,5.6503,5.6503,5.6522,5.6912,5.7331,5.777,5.8627,5.9474,6.028,6.067,6.1117,6.1507,6.1507,6.1498,6.1509,6.1549,6.1578,6.1607,6.1607,6.1578,6.1549,6.1549,6.1498,6.1445,6.1445,6.146,6.1454,6.146,6.1415,6.1408,6.1441,6.1447,6.146,6.146,6.1472,6.1495,6.1509,6.1539,6.1549,6.1549,6.1568,6.1597,6.1607,6.1607,6.1607,6.1607,6.1607,6.1607,6.1607,6.1607,6.1597,6.1603,6.1603,6.1592,6.1595,6.1592,6.1612,6.16,6.16,6.1627,6.1648,6.1648,6.1654,6.166,6.1685,6.171,3.34,0.0,3.6014,3.9993,4.1108,0.0,0.0,0.0,0.0,0.0,0.0,0.0,0.0,0.0,0.0,0.0,0.0,0.0,0.0,0.0,0.0,0.0,0.0,0.0,0.0,0.0,0.0,0.0,0.0,0.0,5.647,5.6491,5.6498,5.6496,5.65,5.6511,5.6492,5.6511,5.6503,5.6503,5.6503,5.6503,5.6503,5.6503,5.6503,5.6503,5.6503,5.6483,5.6541,5.7204,5.7653,5.8072,5.9513,6.0263,6.0604,6.1266,6.1519,6.1519,6.1519,6.1519,6.1519,6.1578,6.1607,6.1607,6.1607,6.1607,6.1607,6.1607,6.1549,6.1489,6.1489,6.1507,6.1503,6.1503,6.1472,6.144,6.1503,6.1503,6.1495,6.1495,6.1515,6.1526,6.1519,6.1558,6.1595,6.1588,6.1595,6.1603,6.1597,6.1597,6.1597,6.1597,6.1597,6.1597,6.1597,6.1588,6.1597,6.1603,6.1612,6.1619,6.1621,6.1628,6.1628,6.1628,6.1621,6.1648,6.1705,6.1705,6.171,6.1701,6.1701,6.1701,0.0,0.0,3.7514,0.0,4.1575,0.0,0.0,0.0,0.0,0.0,0.0,0.0,0.0,0.0,0.0,0.0,0.0,0.0,0.0,0.0,0.0,0.0,0.0,0.0,0.0,0.0,0.0,0.0,0.0,0.0,5.647,5.6491,5.6504,5.6498,5.6508,5.6492,5.6508,5.6492,5.6503,5.6503,5.6503,5.6503,5.6503,5.6503,5.6503,5.6503,5.6503,5.6474,5.6417,5.6534,5.7469,5.8841,5.9085,6.0108,6.1451,6.1549,6.1588,6.1588,6.1588,6.1588,6.1588,6.1607,6.1607,6.1607,6.1607,6.1607,6.1607,6.1607,6.1549,6.1489,6.1489,6.1507,6.1503,6.1503,6.1487,6.1498,6.1503,6.1507,6.1509,6.1509,6.1539,6.1598,6.1578,6.1586,6.1595,6.1588,6.1603,6.1607,6.1603,6.16,6.1607,6.1607,6.1592,6.1595,6.1595,6.1597,6.1606,6.1607,6.1595,6.1628,6.1671,6.1696,6.1696,6.1696,6.1685,6.1685,6.1696,6.1696,6.1696,6.1701,6.1701,6.1701,3.1481,3.5071,3.8544,0.0,4.2018,0.0,0.0,0.0,0.0,0.0,0.0,0.0,0.0,0.0,0.0,0.0,0.0,0.0,0.0,0.0,0.0,0.0,0.0,0.0,0.0,0.0,0.0,0.0,0.0,5.6172,5.6489,5.6491,5.6504,5.6504,5.6508,5.6492,5.6496,5.6492,5.6503,5.6503,5.6503,5.6503,5.6503,5.6503,5.6503,5.6503,5.6455,5.6417,5.6466,5.74,5.8267,5.9094,6.0029,6.0887,6.1607,6.1607,6.1607,6.1607,6.1607,6.1607,6.1607,6.1607,6.1607,6.1607,6.1607,6.1607,6.1607,6.1607,6.1578,6.1549,6.1549,6.1558,6.1548,6.1548,6.1558,6.1568,6.1558,6.1558,6.1549,6.1549,6.1578,6.1607,6.1607,6.1603,6.1592,6.1595,6.1627,6.1641,6.1607,6.1588,6.1595,6.1595,6.16,6.1603,6.1603,6.1597,6.1606,6.1595,6.1595,6.1628,6.1696,6.1701,6.1701,6.1701,6.1696,6.1696,6.1701,6.1701,6.1701,6.1701,6.1701,6.1701,0.0,0.0,3.7917,4.0916,4.1825,0.0,0.0,0.0,0.0,0.0,0.0,0.0,0.0,0.0,0.0,0.0,0.0,0.0,0.0,0.0,0.0,0.0,0.0,0.0,0.0,0.0,0.0,0.0,0.0,5.6563,5.6509,5.6497,5.6504,5.6504,5.6488,5.65,5.6496,5.6492,5.6503,5.6503,5.6503,5.6503,5.6503,5.6503,5.66,5.6795,5.6524,5.6514,5.6796,5.8059,5.8857,5.9424,6.0681,6.1344,6.1578,6.1588,6.1607,6.1607,6.1607,6.1607,6.1607,6.1607,6.1607,6.1607,6.1607,6.1607,6.1607,6.1607,6.1607,6.1607,6.1607,6.1607,6.1607,6.1607,6.1607,6.1607,6.1607,6.1607,6.1607,6.1597,6.1597,6.1597,6.1606,6.1619,6.1615,6.1592,6.166,6.1679,6.1621,6.1628,6.1628,6.1628,6.1634,6.1639,6.1639,6.1623,6.1603,6.1621,6.1621,6.1654,6.1696,6.1701,6.1701,6.1701,6.1701,6.1701,6.1701,6.1701,6.1701,6.1701,6.1705,6.169,0.0,3.2934,0.0,3.887,0.0,0.0,0.0,0.0,0.0,0.0,0.0,0.0,0.0,0.0,0.0,0.0,0.0,0.0,0.0,0.0,0.0,0.0,0.0,0.0,0.0,0.0,0.0,0.0,0.0,5.6563,5.6509,5.6509,5.6497,5.6504,5.6503,5.6496,5.6496,5.6492,5.6503,5.6503,5.6503,5.6503,5.6503,5.6503,5.6912,5.7594,5.6748,5.6825,5.7546,5.7624,5.8635,6.0144,6.0239,6.0767,6.1519,6.1578,6.1607,6.1607,6.1607,6.1607,6.1607,6.1607,6.1607,6.1607,6.1607,6.1607,6.1607,6.1607,6.1607,6.1607,6.1607,6.1607,6.1607,6.1607,6.1607,6.1607,6.1607,6.1607,6.1597,6.1595,6.1603,6.1603,6.1607,6.1648,6.1673,6.1615,6.166,6.1696,6.1699,6.1691,6.1696,6.1696,6.1685,6.1699,6.1699,6.1641,6.1621,6.1699,6.1699,6.1705,6.1701,6.1701,6.1701,6.1701,6.1701,6.1701,6.1701,6.1701,6.1701,6.1701,6.1701,6.1694,0.0,0.0,0.0,3.8039,0.0,0.0,0.0,0.0,0.0,0.0,0.0,0.0,0.0,0.0,0.0,0.0,0.0,0.0,0.0,0.0,0.0,0.0,0.0,0.0,0.0,0.0,0.0,0.0,0.0,0.0,5.6491,5.6491,5.6504,5.6503,5.6508,5.6753,5.7271,5.7271,5.7555,5.81,5.81,5.81,5.81,5.81,5.8266,5.853,5.8209,5.8217,5.8484,5.9043,5.9646,6.0249,6.081,6.1234,6.1519,6.1578,6.1607,6.1607,6.1607,6.1607,6.1607,6.1607,6.1607,6.1607,6.1607,6.1607,6.1588,6.1606,6.1597,6.1588,6.1606,6.1597,6.1588,6.1606,6.1603,6.1592,6.1592,6.1603,6.1595,6.16,6.1607,6.1607,6.1595,6.1667,6.1699,6.1673,6.1685,6.1696,6.1691,6.1696,6.1701,6.1701,6.1705,6.1699,6.1699,6.1648,6.1621,6.1699,6.1699,6.1705,6.1701,6.1701,6.1701,6.1701,6.1694,6.1694,6.1701,6.1701,6.1701,6.1701,6.1692,6.1698,3.2027,0.0,0.0,0.0,0.0,0.0,0.0,0.0,0.0,0.0,0.0,0.0,0.0,0.0,0.0,0.0,0.0,0.0,0.0,0.0,0.0,0.0,0.0,0.0,0.0,0.0,0.0,0.0,0.0,0.0,5.6491,5.6491,5.6498,5.6496,5.65,5.6756,5.7282,5.7301,5.7594,5.8159,5.8159,5.8159,5.8159,5.8431,5.8715,5.9017,5.9309,5.9396,5.9379,5.9969,6.0352,6.0663,6.1246,6.1484,6.1518,6.1549,6.1578,6.1607,6.1607,6.1607,6.1607,6.1607,6.1607,6.1607,6.1597,6.1597,6.1606,6.1612,6.1603,6.1595,6.1592,6.1603,6.1595,6.1592,6.1607,6.1615,6.1621,6.1627,6.16,6.1621,6.1621,6.1628,6.1634,6.166,6.1705,6.1705,6.1696,6.1701,6.1701,6.1701,6.1701,6.1701,6.1691,6.1705,6.1705,6.166,6.1654,6.1705,6.1705,6.1691,6.1701,6.1701,6.1701,6.1701,6.1701,6.1704,6.169,6.1705,6.1709,6.1701,6.1699,6.1707,0.0,0.0,0.0,0.0,0.0,0.0,0.0,0.0,0.0,0.0,0.0,0.0,0.0,0.0,0.0,0.0,0.0,0.0,0.0,0.0,0.0,0.0,0.0,0.0,0.0,0.0,0.0,0.0,0.0,5.6563,5.6509,5.6509,5.6491,5.6496,5.65,5.6503,5.6541,5.6541,5.6541,5.6561,5.6561,5.6561,5.66,5.7399,5.8237,5.9094,5.9951,6.0302,6.0229,6.0229,6.0689,6.14,6.1402,6.144,6.1503,6.1498,6.1549,6.1607,6.1607,6.1607,6.1607,6.1607,6.1607,6.1597,6.1595,6.1603,6.1603,6.1588,6.1595,6.1595,6.1595,6.1595,6.1595,6.1595,6.1595,6.1621,6.1699,6.1648,6.1621,6.1699,6.1699,6.1705,6.1696,6.1701,6.1701,6.1701,6.1701,6.1701,6.1701,6.1701,6.1701,6.1701,6.1701,6.1701,6.1701,6.1701,6.1701,6.1701,6.1701,6.1701,6.1701,6.1701,6.1701,6.1701,6.1701,6.169,6.1692,6.1694,6.1704,6.1699,6.1701,6.1701,3.0762,0.0,0.0,0.0,0.0,0.0,0.0,0.0,0.0,0.0,0.0,0.0,0.0,0.0,0.0,0.0,0.0,0.0,0.0,0.0,0.0,0.0,0.0,0.0,0.0,0.0,0.0,0.0,5.6558,5.6514,5.6509,5.6504,5.6503,5.6496,5.65,5.6775,5.736,5.736,5.7672,5.8314,5.8314,5.8314,5.8334,5.9191,5.9717,5.999,6.0867,6.1198,6.1137,6.1153,6.1233,6.1402,6.1396,6.144,6.1503,6.1498,6.1549,6.1607,6.1607,6.1607,6.1607,6.1607,6.1607,6.1597,6.1595,6.1603,6.1612,6.1667,6.1648,6.1595,6.1595,6.1648,6.1673,6.1673,6.166,6.1691,6.1691,6.1691,6.1691,6.1696,6.1696,6.1701,6.1701,6.169,6.1705,6.1701,6.169,6.1701,6.1701,6.1701,6.1701,6.1701,6.1701,6.1701,6.1701,6.1701,6.1701,6.1701,6.1701,6.1705,6.1701,6.1709,6.1701,6.1701,6.1692,6.1698,6.1704,6.1709,6.1707,6.1697,6.1705,6.1701,0.0,0.0,0.0,0.0,0.0,0.0,0.0,0.0,0.0,0.0,0.0,0.0,0.0,0.0,0.0,0.0,0.0,0.0,0.0,0.0,0.0,0.0,0.0,0.0,0.0,0.0,0.0,5.648,5.6514,5.6503,5.6504,5.6503,5.6508,5.65,5.6492,5.6717,5.7184,5.7204,5.7438,5.7964,5.7964,5.7964,5.8003,5.9211,5.9756,5.9834,6.1062,6.1578,6.1549,6.1518,6.1452,6.1396,6.1402,6.1447,6.1503,6.1507,6.1539,6.1607,6.1607,6.1607,6.1607,6.1607,6.1597,6.1606,6.1592,6.1619,6.1654,6.1679,6.166,6.1634,6.1634,6.166,6.171,6.171,6.1696,6.1701,6.1701,6.1701,6.1701,6.1701,6.1701,6.1705,6.1697,6.1709,6.1705,6.1697,6.1709,6.1701,6.1701,6.1701,6.1701,6.1701,6.1701,6.1701,6.1701,6.1701,6.1701,6.1701,6.1701,6.1705,6.1697,6.1704,6.1704,6.1704,6.1699,6.1704,6.1701,6.1701,6.1701,6.1701,6.1701,6.1701,0.0,3.0833,0.0,0.0,0.0,0.0,3.7885,3.9166,0.0,0.0,0.0,0.0,0.0,0.0,0.0,0.0,0.0,0.0,0.0,0.0,0.0,0.0,0.0,0.0,0.0,5.5065,5.5474,5.6425,5.6503,5.6491,5.6496,5.6496,5.6508,5.6511,5.6511,5.6503,5.6503,5.6503,5.6503,5.6503,5.6503,5.6503,5.6561,5.8237,5.8996,5.9094,6.0847,6.1607,6.1588,6.1519,6.1456,6.1408,6.1408,6.1454,6.1503,6.1503,6.1548,6.1607,6.1607,6.1607,6.1607,6.1607,6.1606,6.1603,6.1607,6.1648,6.1699,6.1696,6.1701,6.1701,6.1701,6.1701,6.1701,6.1701,6.1701,6.1701,6.1701,6.1701,6.1701,6.1701,6.1701,6.1701,6.1701,6.1701,6.1701,6.1701,6.1701,6.1701,6.1701,6.1701,6.1701,6.1701,6.1701,6.1701,6.1701,6.1701,6.1701,6.1701,6.1701,6.1701,6.1705,6.1697,6.1698,6.1698,6.1701,6.1701,6.1701,6.1701,6.1701,6.1701,6.1701,6.1701,3.0984,3.0817,3.0852,0.0,0.0,0.0,0.0,3.5234,0.0,0.0,0.0,0.0,0.0,0.0,0.0,0.0,0.0,0.0,0.0,0.0,0.0,0.0,0.0,0.0,0.0,5.4235,5.4855,5.6394,5.6504,5.6498,5.6496,5.6496,5.6488,5.6508,5.6492,5.6503,5.6503,5.6503,5.6503,5.6503,5.6503,5.6503,5.6561,5.8237,5.8996,5.9094,6.0847,6.1607,6.1588,6.1519,6.1489,6.1468,6.1472,6.1484,6.1498,6.1498,6.1539,6.1607,6.1607,6.1607,6.1607,6.1607,6.1606,6.1603,6.1607,6.1648,6.1699,6.1696,6.1701,6.1701,6.1701,6.1701,6.1701,6.1701,6.1701,6.1701,6.1701,6.1701,6.1701,6.1701,6.1701,6.1705,6.1701,6.1694,6.1705,6.1704,6.169,6.1701,6.1701,6.1701,6.1701,6.1701,6.1701,6.1701,6.1701,6.1697,6.1697,6.1701,6.1701,6.1697,6.1697,6.1692,6.1694,6.1694,6.1705,6.1701,6.1701,6.1701,6.1701,6.1701,6.1701,6.1696,0.0,0.0,3.029,3.0703,0.0,0.0,0.0,0.0,0.0,0.0,0.0,0.0,0.0,0.0,0.0,0.0,0.0,0.0,0.0,0.0,0.0,0.0,0.0,0.0,0.0,5.3688,5.4663,5.6374,5.651,5.6503,5.65,5.65,5.6472,5.6444,5.6455,5.6446,5.6446,5.6446,5.6474,5.6503,5.6503,5.6697,5.7145,5.8412,5.923,5.9717,6.1023,6.1607,6.1607,6.1559,6.1549,6.1549,6.1507,6.1507,6.1489,6.1489,6.1549,6.1607,6.1607,6.1607,6.1607,6.1607,6.1595,6.16,6.1595,6.1654,6.1691,6.1696,6.1701,6.1701,6.1701,6.1701,6.1701,6.1701,6.1701,6.1701,6.1701,6.1701,6.1701,6.1701,6.1701,6.1705,6.1694,6.1705,6.1705,6.1694,6.1705,6.1701,6.1701,6.1701,6.1701,6.1701,6.169,6.1694,6.1701,6.169,6.1701,6.1709,6.1698,6.1698,6.1709,6.1694,6.1701,6.1701,6.1701,6.1701,6.1701,6.1701,6.1701,6.1701,6.1701,6.1691,0.0,0.0,0.0,0.0,0.0,3.1641,0.0,0.0,0.0,3.8144,0.0,0.0,0.0,0.0,0.0,0.0,0.0,0.0,0.0,0.0,0.0,0.0,0.0,0.0,0.0,5.313,5.4437,5.6359,5.604,5.5974,5.6464,5.6503,5.6474,5.6388,5.6417,5.6417,5.6388,5.6417,5.6446,5.6503,5.6658,5.7068,5.773,5.8782,5.962,6.0341,6.1218,6.1607,6.1607,6.1607,6.1607,6.1588,6.1537,6.1518,6.1519,6.1519,6.1549,6.1607,6.1607,6.1607,6.1607,6.1607,6.1603,6.1595,6.1621,6.166,6.1701,6.1701,6.1701,6.1701,6.1701,6.1701,6.1701,6.1701,6.1701,6.1701,6.1701,6.1701,6.1701,6.1701,6.1701,6.1701,6.1701,6.1705,6.1705,6.1705,6.1705,6.1705,6.1705,6.1705,6.1705,6.1701,6.1697,6.1701,6.1694,6.1694,6.1707,6.1698,6.1701,6.1701,6.1701,6.1701,6.1701,6.1701,6.1701,6.1701,6.1701,6.1701,6.1696,6.1696,6.1696,6.1685,0.0,0.0,0.0,0.0,3.1383,0.0,0.0,0.0,3.3785,3.4066,0.0,0.0,0.0,0.0,0.0,0.0,0.0,0.0,0.0,0.0,0.0,0.0,0.0,0.0,0.0,0.0,5.3794,5.6313,5.434,5.4059,5.6386,5.6503,5.6474,5.6388,5.6455,5.6455,5.6388,5.6455,5.6483,5.6503,5.7223,5.7613,5.7749,5.9406,6.0204,6.0341,6.1218,6.1607,6.1607,6.1607,6.1607,6.1607,6.1578,6.1578,6.1588,6.1588,6.1588,6.1607,6.1607,6.1607,6.1607,6.1607,6.1603,6.1602,6.1666,6.1696,6.1701,6.1701,6.1701,6.1701,6.1701,6.1701,6.1701,6.1701,6.1701,6.1701,6.1701,6.1701,6.1701,6.1701,6.1701,6.1701,6.1701,6.1697,6.1707,6.1707,6.1707,6.1707,6.1707,6.1707,6.1701,6.1701,6.1701,6.1697,6.1698,6.1698,6.1698,6.169,6.1701,6.1701,6.1701,6.1701,6.1701,6.1701,6.1701,6.1701,6.1701,6.1701,6.1696,6.1699,6.1699,6.1667,0.0,0.0,0.0,0.0,0.0,0.0,0.0,0.0,3.3532,0.0,0.0,0.0,0.0,0.0,0.0,0.0,0.0,0.0,0.0,0.0,0.0,0.0,0.0,0.0,0.0,0.0,0.0,0.0,0.0,5.4762,5.6369,5.6437,5.6407,5.6347,5.6855,5.7118,5.7108,5.7624,5.7917,5.7944,5.8295,5.8724,5.923,5.9971,6.0575,6.1062,6.1432,6.1607,6.1607,6.1607,6.1607,6.1607,6.1607,6.1607,6.1607,6.1607,6.1607,6.1607,6.1607,6.1607,6.1597,6.1603,6.16,6.1602,6.1671,6.1701,6.1701,6.1701,6.1709,6.1697,6.1697,6.1697,6.1697,6.1697,6.1709,6.1701,6.1701,6.1701,6.1701,6.1701,6.1701,6.1701,6.1701,6.1709,6.1701,6.1697,6.1698,6.1698,6.1698,6.1698,6.1697,6.1692,6.1692,6.1695,6.1699,6.1699,6.1695,6.1701,6.1701,6.1701,6.1701,6.1701,6.1701,6.1701,6.1691,6.171,6.171,6.166,6.1648,6.1646,6.1687,6.166,3.0646,0.0,0.0,0.0,0.0,0.0,0.0,0.0,0.0,0.0,0.0,0.0,0.0,0.0,0.0,0.0,0.0,0.0,0.0,0.0,0.0,0.0,0.0,0.0,0.0,0.0,0.0,0.0,0.0,0.0,5.5958,5.6281,5.6388,5.6333,5.7173,5.7612,5.7592,5.8468,5.8937,5.9007,5.9241,5.9689,6.0302,6.0555,6.1003,6.1607,6.1607,6.1607,6.1607,6.1607,6.1607,6.1607,6.1607,6.1607,6.1607,6.1607,6.1607,6.1607,6.1607,6.1588,6.1606,6.1607,6.1621,6.1648,6.1691,6.1701,6.1701,6.1701,6.1701,6.1694,6.1695,6.1694,6.1707,6.1704,6.1694,6.1701,6.1694,6.1694,6.1705,6.1701,6.1701,6.1701,6.1701,6.169,6.1707,6.1699,6.1699,6.1699,6.1699,6.1699,6.1699,6.1699,6.1699,6.1699,6.1699,6.1698,6.1692,6.169,6.1701,6.1701,6.1701,6.1701,6.1696,6.1696,6.1705,6.1699,6.1673,6.1621,6.1607,6.1603,6.1654,6.1646,0.0,0.0,0.0,3.2693,0.0,0.0,0.0,0.0,3.4423,0.0,0.0,0.0,0.0,0.0,0.0,0.0,0.0,0.0,0.0,0.0,0.0,0.0,0.0,0.0,0.0,0.0,0.0,0.0,0.0,0.0,5.5005,5.595,5.6398,5.6406,5.7244,5.7672,5.7612,5.8468,5.8927,5.9017,5.9854,6.0273,6.0321,6.1179,6.1568,6.1607,6.1607,6.1607,6.1607,6.1607,6.1607,6.1607,6.1607,6.1607,6.1607,6.1607,6.1607,6.1607,6.1607,6.1606,6.1603,6.1607,6.1648,6.1699,6.1696,6.1701,6.1701,6.1701,6.1707,6.1699,6.1697,6.1698,6.1704,6.1705,6.1701,6.1694,6.1698,6.1695,6.1704,6.1705,6.1701,6.1701,6.1701,6.169,6.1699,6.1699,6.1699,6.1699,6.1699,6.1699,6.1699,6.1699,6.1699,6.1699,6.1699,6.1704,6.169,6.1707,6.1694,6.1701,6.1701,6.1701,6.1696,6.1699,6.1699,6.1673,6.1595,6.1595,6.1607,6.1603,6.1603,6.1558,0.0,0.0,3.9271,3.5583,0.0,0.0,0.0,0.0,0.0,0.0,0.0,0.0,0.0,0.0,0.0,0.0,0.0,0.0,0.0,0.0,0.0,0.0,0.0,0.0,0.0,0.0,0.0,0.0,0.0,0.0,0.0,5.5302,5.5742,5.6329,5.7733,5.8484,5.8465,5.9853,6.0589,6.0652,6.0944,6.111,6.1179,6.1471,6.1607,6.1607,6.1607,6.1607,6.1607,6.1607,6.1607,6.1607,6.1607,6.1607,6.1607,6.1607,6.1607,6.1607,6.1607,6.1606,6.1603,6.1607,6.1648,6.1699,6.1696,6.1701,6.1705,6.1704,6.1695,6.1698,6.1704,6.1692,6.1698,6.169,6.1701,6.1695,6.1699,6.1699,6.1698,6.1695,6.1701,6.1697,6.1698,6.1698,6.1699,6.1699,6.1699,6.1699,6.1699,6.1694,6.1701,6.1701,6.169,6.1695,6.1695,6.1707,6.1697,6.1694,6.1705,6.1696,6.1705,6.1705,6.1679,6.1628,6.1634,6.1619,6.1592,6.1603,6.1606,6.1597,6.1549,6.1529,3.9585,4.0855,0.0,3.8185,3.8828,0.0,3.6692,0.0,0.0,0.0,0.0,0.0,0.0,0.0,0.0,0.0,0.0,0.0,0.0,0.0,0.0,0.0,0.0,0.0,0.0,0.0,4.5899,4.7978,0.0,0.0,0.0,0.0,5.5707,5.6278,5.7981,5.8907,5.8888,6.0566,6.1428,6.1498,6.1498,6.1539,6.1607,6.1607,6.1607,6.1607,6.1607,6.1607,6.1607,6.1607,6.1607,6.1607,6.1607,6.1607,6.1607,6.1607,6.1607,6.1607,6.1607,6.1606,6.16,6.1595,6.1654,6.171,6.1696,6.1705,6.1697,6.1692,6.1699,6.1695,6.1709,6.1701,6.1698,6.1695,6.1698,6.1699,6.1695,6.1698,6.1699,6.1699,6.1698,6.1699,6.169,6.1704,6.1697,6.1699,6.1699,6.1699,6.1695,6.1697,6.1701,6.1701,6.1694,6.1701,6.1701,6.1701,6.1694,6.1701,6.1696,6.171,6.1699,6.1673,6.1641,6.1607,6.1603,6.1586,6.1586,6.189,6.188,6.1578,6.2141,6.2215]},{"header":{"parameterUnit":"m.s-1","parameterCategory":1,"la1":30.6,"la2":29.2853,"lo1":-89.7004,"lo2":-87.6739,"dy":0.0162,"dx":0.0183,"nx":112,"ny":82,"refTime":"2025-02-24T06:00:00:Z","depth":0,"parameterNumber":3,"parameterNumberName":"V-component_of_WINDS"},"data":[0.0,0.0,0.0,0.0,0.0,0.0,0.0,0.0,0.0,0.0,0.0,0.0,0.0,0.0,0.0,0.0,0.0,0.0,0.0,0.0,0.0,0.0,0.0,0.0,0.0,0.0,0.0,0.0,0.0,0.0,0.0,0.0,0.0,0.0,0.0,0.0,0.0,0.0,0.0,0.0,0.0,0.0,0.0,0.0,0.0,0.0,0.0,0.0,0.0,0.0,0.0,0.0,0.0,0.0,0.0,0.0,0.0,0.0,0.0,0.0,0.0,0.0,0.0,0.0,0.0,0.0,0.0,0.0,0.0,0.0,0.0,0.0,0.0,0.0,0.0,0.0,0.0,0.0,0.0,0.0,0.0,0.0,0.0,0.0,0.0,0.0,0.0,0.0,0.0,0.0,0.0,-0.7703,-0.8275,-0.9022,-1.0162,-1.076,-1.13,-1.1711,0.0,0.0,0.0,0.0,0.0,0.0,0.0,0.0,0.0,0.0,0.0,0.0,0.0,0.0,0.0,0.0,0.0,0.0,0.0,0.0,0.0,0.0,0.0,0.0,0.0,0.0,0.0,0.0,0.0,0.0,0.0,0.0,0.0,0.0,0.0,0.0,0.0,0.0,0.0,0.0,0.0,0.0,0.0,0.0,0.0,0.0,0.0,0.0,0.0,0.0,0.0,0.0,0.0,0.0,0.0,0.0,0.0,0.0,0.0,0.0,0.0,0.0,0.0,0.0,0.0,0.0,0.0,0.0,0.0,0.0,0.0,0.0,0.0,0.0,0.0,0.0,0.0,0.0,0.0,0.0,0.0,0.0,0.0,0.0,0.0,0.0,0.0,0.0,0.0,0.0,0.0,0.0,0.0,0.0,0.0,0.0,0.0,0.0,0.0,0.0,0.0,0.0,0.0,0.0,-0.8481,-0.8591,-0.8885,-0.9396,-1.009,-1.1023,-1.1636,-1.1638,0.0,0.0,0.0,0.0,0.0,0.0,0.0,0.0,0.0,0.0,0.0,0.0,0.0,0.0,0.0,0.0,0.0,0.0,0.0,0.0,0.0,0.0,0.0,0.0,0.0,0.0,0.0,0.0,0.0,0.0,0.0,0.0,0.0,0.0,0.0,0.0,0.0,0.0,0.0,0.0,0.0,0.0,0.0,0.0,0.0,0.0,0.0,0.0,0.0,0.0,0.0,0.0,0.0,0.0,0.0,0.0,0.0,0.0,0.0,0.0,0.0,0.0,0.0,0.0,0.0,0.0,0.0,0.0,0.0,0.0,0.0,0.0,0.0,0.0,0.0,0.0,0.0,0.0,0.0,0.0,0.0,0.0,0.0,0.0,0.0,0.0,0.0,0.0,0.0,0.0,0.0,0.0,0.0,0.0,0.0,0.0,0.0,0.0,0.0,0.0,0.0,0.0,0.0,-0.7971,-0.8151,-0.8484,-0.8846,-0.9361,-1.0001,-1.1082,-1.1847,-1.2273,-1.241,0.0,0.0,0.0,0.0,0.0,0.0,0.0,0.0,0.0,0.0,0.0,0.0,0.0,0.0,0.0,0.0,0.0,0.0,0.0,0.0,0.0,0.0,0.0,0.0,0.0,0.0,0.0,0.0,0.0,0.0,0.0,0.0,0.0,0.0,0.0,0.0,0.0,0.0,0.0,0.0,0.0,0.0,0.0,0.0,0.0,0.0,0.0,0.0,0.0,0.0,0.0,0.0,0.0,0.0,0.0,0.0,0.0,0.0,0.0,0.0,0.0,0.0,0.0,0.0,0.0,0.0,0.0,0.0,0.0,0.0,0.0,0.0,0.0,0.0,0.0,0.0,0.0,0.0,0.0,0.0,0.0,0.0,0.0,0.0,0.0,0.0,0.0,0.0,0.0,0.0,0.0,0.0,0.0,0.0,0.0,0.0,0.0,0.0,0.0,0.0,0.0,0.0,-0.7776,-0.7979,-0.8347,-0.875,-0.934,-1.0153,-1.1119,-1.2016,-1.2719,-1.2871,0.0,0.0,0.0,0.0,0.0,0.0,0.0,0.0,0.0,0.0,0.0,0.0,0.0,0.0,0.0,0.0,0.0,0.0,0.0,0.0,0.0,0.0,0.0,0.0,0.0,0.0,0.0,0.0,0.0,0.0,0.0,0.0,0.0,0.0,0.0,0.0,0.0,0.0,0.0,0.0,0.0,0.0,0.0,0.0,0.0,0.0,0.0,0.0,0.0,0.0,0.0,0.0,0.0,0.0,0.0,0.0,0.0,0.0,0.0,0.0,0.0,0.0,0.0,0.0,0.0,0.0,0.0,0.0,0.0,0.0,0.0,0.0,0.0,0.0,0.0,0.0,0.0,0.0,0.0,0.0,0.0,0.0,0.0,0.0,0.0,0.0,0.0,0.0,0.0,0.0,0.0,0.0,0.0,0.0,0.0,0.0,0.0,0.0,0.0,0.0,0.0,0.0,-0.8395,-0.8806,-0.9019,-0.9099,-0.9581,-1.0554,-1.1555,-1.2223,-1.227,-1.288,0.0,0.0,0.0,0.0,0.0,0.0,0.0,0.0,0.0,0.0,0.0,0.0,0.0,0.0,0.0,0.0,0.0,0.0,0.0,0.0,0.0,0.0,0.0,0.0,0.0,0.0,0.0,0.0,0.0,0.0,0.0,0.0,0.0,0.0,0.0,0.0,0.0,0.0,0.0,0.0,0.0,0.0,0.0,0.0,0.0,0.0,0.0,0.0,0.0,0.0,0.0,0.0,0.0,0.0,0.0,0.0,0.0,0.0,0.0,0.0,0.0,0.0,0.0,0.0,0.0,0.0,0.0,0.0,0.0,0.0,0.0,0.0,0.0,0.0,0.0,0.0,0.0,0.0,0.0,0.0,0.0,0.0,0.0,0.0,0.0,0.0,0.0,0.0,0.0,0.0,0.0,0.0,0.0,0.0,0.0,0.0,0.0,0.0,0.0,0.0,0.0,0.0,-0.8209,-0.8605,0.0,-0.9217,-0.9718,-1.0391,-1.1387,-1.2118,-1.2417,0.0,0.0,0.0,0.0,0.0,0.0,0.0,0.0,0.0,0.0,0.0,0.0,0.0,0.0,0.0,0.0,0.0,0.0,0.0,0.0,0.0,0.0,0.0,0.0,0.0,0.0,0.0,0.0,0.0,0.0,0.0,0.0,0.0,0.0,0.0,0.0,0.0,0.0,0.0,0.0,0.0,0.0,0.0,0.0,0.0,0.0,0.0,0.0,0.0,0.0,0.0,0.0,0.0,0.0,0.0,0.0,0.0,0.0,0.0,0.0,0.0,0.0,0.0,0.0,0.0,0.0,0.0,0.0,0.0,0.0,0.0,0.0,0.0,0.0,0.0,0.0,0.0,0.0,0.0,0.0,0.0,0.0,0.0,0.0,0.0,0.0,0.0,0.0,0.0,0.0,0.0,0.0,0.0,0.0,0.0,0.0,0.0,0.0,0.0,0.0,0.0,0.0,-0.7721,-0.8105,-0.8559,0.0,-0.9191,-0.9792,-1.0458,-1.1372,-1.2128,-1.2565,0.0,0.0,0.0,0.0,0.0,0.0,0.0,0.0,0.0,0.0,0.0,0.0,0.0,0.0,0.0,0.0,0.0,0.0,0.0,0.0,0.0,0.0,0.0,0.0,0.0,0.0,0.0,0.0,0.0,0.0,0.0,0.0,0.0,0.0,0.0,0.0,0.0,0.0,0.0,0.0,0.0,0.0,0.0,0.0,0.0,0.0,0.0,0.0,0.0,0.0,0.0,0.0,0.0,0.0,0.0,0.0,0.0,0.0,0.0,0.0,0.0,0.0,0.0,0.0,0.0,0.0,0.0,0.0,0.0,0.0,0.0,0.0,0.0,0.0,0.0,0.0,0.0,0.0,0.0,0.0,0.0,0.0,0.0,0.0,0.0,0.0,0.0,0.0,0.0,0.0,0.0,0.0,0.0,0.0,0.0,0.0,0.0,0.0,0.0,0.0,0.0,0.0,-0.7833,-0.8228,-0.8657,-0.8825,-0.9138,-0.9813,-1.083,-1.1778,-1.2399,0.0,0.0,0.0,0.0,0.0,0.0,0.0,0.0,0.0,0.0,0.0,0.0,0.0,0.0,0.0,0.0,0.0,0.0,0.0,0.0,0.0,0.0,0.0,0.0,0.0,0.0,0.0,0.0,0.0,0.0,0.0,0.0,0.0,0.0,0.0,0.0,0.0,0.0,0.0,0.0,0.0,0.0,0.0,0.0,0.0,0.0,0.0,0.0,0.0,0.0,0.0,0.0,0.0,0.0,0.0,0.0,0.0,0.0,0.0,0.0,0.0,0.0,0.0,0.0,0.0,0.0,0.0,0.0,0.0,0.0,0.0,0.0,0.0,0.0,0.0,0.0,0.0,0.0,0.0,0.0,0.0,0.0,0.0,0.0,0.0,0.0,0.0,0.0,0.0,0.0,0.0,0.0,0.0,0.0,0.0,0.0,0.0,0.0,0.0,0.0,0.0,0.0,0.0,-0.7783,-0.8232,-0.8657,-0.8825,-0.8925,-0.9594,-1.0826,-1.1454,-1.2082,-1.2612,0.0,0.0,0.0,0.0,0.0,0.0,0.0,0.0,0.0,0.0,0.0,0.0,0.0,0.0,0.0,0.0,0.0,0.0,0.0,0.0,0.0,0.0,0.0,0.0,0.0,0.0,0.0,0.0,0.0,0.0,0.0,0.0,0.0,0.0,0.0,0.0,0.0,0.0,0.0,0.0,0.0,0.0,0.0,0.0,0.0,0.0,0.0,0.0,0.0,0.0,0.0,0.0,0.0,0.0,0.0,0.0,0.0,0.0,0.0,0.0,0.0,0.0,0.0,0.0,0.0,0.0,0.0,0.0,0.0,0.0,0.0,0.0,0.0,0.0,0.0,0.0,0.0,0.0,0.0,0.0,0.0,0.0,0.0,0.0,0.0,0.0,0.0,0.0,0.0,0.0,0.0,0.0,0.0,0.0,0.0,0.0,0.0,0.0,0.0,0.0,0.0,0.0,-0.777,-0.8344,-0.8748,-0.8711,-0.9053,-0.9827,-1.0824,-1.1651,-1.2331,-1.2944,0.0,0.0,0.0,0.0,0.0,0.0,0.0,0.0,0.0,0.0,0.0,0.0,0.0,0.0,0.0,0.0,0.0,0.0,0.0,0.0,0.0,0.0,0.0,0.0,0.0,0.0,0.0,0.0,0.0,0.0,0.0,0.0,0.0,0.0,0.0,0.0,0.0,0.0,0.0,0.0,0.0,0.0,0.0,0.0,0.0,0.0,0.0,0.0,0.0,0.0,0.0,0.0,0.0,0.0,0.0,0.0,0.0,0.0,0.0,0.0,0.0,0.0,0.0,0.0,0.0,0.0,0.0,0.0,0.0,0.0,0.0,0.0,0.0,0.0,0.0,0.0,0.0,0.0,0.0,0.0,0.0,0.0,0.0,0.0,0.0,0.0,0.0,0.0,0.0,0.0,0.0,0.0,0.0,0.0,0.0,0.0,0.0,0.0,0.0,0.0,0.0,0.0,-0.7942,-0.8566,-0.894,-0.8591,-0.9382,-1.0256,-1.0919,-1.2133,-1.2999,-1.3604,0.0,0.0,0.0,0.0,0.0,0.0,0.0,0.0,0.0,0.0,0.0,0.0,0.0,0.0,0.0,0.0,0.0,0.0,0.0,0.0,0.0,0.0,0.0,0.0,0.0,0.0,0.0,0.0,0.0,0.0,0.0,0.0,0.0,0.0,0.0,0.0,0.0,0.0,0.0,0.0,0.0,0.0,0.0,0.0,0.0,0.0,0.0,0.0,0.0,0.0,0.0,0.0,0.0,0.0,0.0,0.0,0.0,0.0,0.0,0.0,-1.0606,0.0,0.0,0.0,0.0,0.0,0.0,0.0,0.0,0.0,0.0,0.0,0.0,0.0,0.0,0.0,0.0,0.0,0.0,0.0,0.0,0.0,0.0,0.0,0.0,0.0,0.0,0.0,0.0,0.0,0.0,0.0,0.0,0.0,0.0,0.0,0.0,0.0,0.0,0.0,0.0,0.0,-0.8034,-0.8445,-0.8781,-0.8632,-0.9233,-0.9953,-1.0932,-1.1694,-1.2531,-1.3593,0.0,0.0,0.0,0.0,0.0,0.0,0.0,0.0,0.0,0.0,0.0,0.0,0.0,0.0,0.0,0.0,0.0,0.0,0.0,0.0,0.0,0.0,0.0,0.0,0.0,0.0,0.0,0.0,0.0,0.0,0.0,0.0,0.0,0.0,0.0,0.0,0.0,0.0,0.0,0.0,0.0,0.0,0.0,0.0,0.0,0.0,0.0,0.0,0.0,0.0,0.0,0.0,0.0,0.0,0.0,0.0,0.0,0.0,0.0,0.0,0.0,-1.0457,0.0,0.0,0.0,0.0,0.0,0.0,0.0,0.0,0.0,0.0,0.0,0.0,0.0,0.0,0.0,0.0,0.0,0.0,0.0,0.0,0.0,0.0,0.0,0.0,0.0,0.0,0.0,0.0,0.0,0.0,0.0,0.0,0.0,0.0,0.0,0.0,0.0,0.0,0.0,0.0,-0.792,-0.8442,-0.8776,-0.8686,-0.9392,-1.0136,-1.1062,-1.201,-1.2957,-1.4056,-1.4272,0.0,0.0,0.0,0.0,0.0,0.0,0.0,0.0,0.0,0.0,0.0,0.0,0.0,0.0,0.0,0.0,0.0,0.0,0.0,0.0,0.0,0.0,0.0,0.0,0.0,0.0,0.0,0.0,0.0,0.0,0.0,0.0,0.0,0.0,0.0,0.0,0.0,0.0,0.0,0.0,0.0,0.0,0.0,0.0,0.0,0.0,0.0,0.0,0.0,0.0,0.0,0.0,0.0,-1.3304,-1.3182,-1.3125,-1.2563,-1.2693,-1.3235,-1.204,-1.1768,-1.2097,0.0,0.0,0.0,0.0,0.0,0.0,0.0,0.0,0.0,0.0,0.0,0.0,0.0,0.0,0.0,0.0,0.0,0.0,0.0,0.0,0.0,0.0,0.0,0.0,0.0,-0.8623,-0.8867,0.0,0.0,0.0,0.0,0.0,0.0,0.0,0.0,0.0,0.0,0.0,0.0,-0.7699,-0.8376,-0.8779,-0.8659,-0.9581,-1.0583,-1.1244,-1.2384,-1.3566,-1.475,-1.4965,-1.5374,0.0,0.0,0.0,0.0,0.0,0.0,0.0,0.0,0.0,0.0,0.0,0.0,0.0,0.0,0.0,0.0,0.0,0.0,0.0,0.0,0.0,0.0,0.0,0.0,0.0,0.0,0.0,0.0,0.0,0.0,0.0,0.0,-1.3804,-1.3816,0.0,0.0,0.0,0.0,0.0,0.0,0.0,0.0,0.0,0.0,0.0,0.0,0.0,0.0,-1.3711,-1.447,-1.4773,-1.4559,-1.4781,-1.4806,-1.4615,-1.4552,-1.4547,-1.4656,-1.4462,0.0,-1.2666,-1.2042,0.0,0.0,0.0,0.0,0.0,0.0,0.0,0.0,0.0,0.0,0.0,0.0,0.0,0.0,0.0,0.0,0.0,0.0,0.0,0.0,0.0,0.0,-0.8975,-0.9306,-0.9319,-0.9316,0.0,-0.8924,-0.8511,-0.9013,-0.891,0.0,0.0,0.0,0.0,0.0,0.0,0.0,-0.7703,-0.8175,-0.8642,-0.8716,-0.946,-1.0319,-1.1447,-1.2363,-1.3529,-1.4993,-1.5512,-1.5976,-1.6445,-1.6017,0.0,0.0,0.0,0.0,0.0,0.0,0.0,0.0,0.0,0.0,0.0,0.0,0.0,0.0,0.0,0.0,0.0,0.0,0.0,0.0,0.0,0.0,0.0,0.0,0.0,0.0,0.0,0.0,0.0,-1.3094,-1.3662,-1.3755,-1.3314,-1.2896,0.0,0.0,0.0,0.0,0.0,0.0,0.0,0.0,0.0,-1.461,-1.4592,-1.4805,-1.5235,-1.5666,-1.5813,-1.5651,-1.577,-1.5701,-1.5565,-1.5238,-1.5096,-1.5035,-1.4775,-1.4283,-1.3763,-1.3225,-1.2336,-1.1284,0.0,0.0,0.0,0.0,-0.8654,-0.8602,-0.8874,-0.8765,0.0,0.0,0.0,0.0,0.0,0.0,0.0,0.0,0.0,0.0,0.0,0.0,0.0,-0.9404,-0.9511,-0.957,-0.979,-0.9553,-0.929,0.0,-0.9152,-0.8914,-0.8867,0.0,0.0,0.0,0.0,0.0,-0.7629,-0.8113,-0.8548,-0.8655,-0.9325,-1.0152,-1.1358,-1.2308,-1.3474,-1.5109,-1.5705,-1.6228,-1.6599,-1.6156,-1.5856,0.0,0.0,0.0,0.0,0.0,0.0,0.0,0.0,0.0,0.0,0.0,0.0,0.0,0.0,0.0,0.0,0.0,0.0,0.0,0.0,0.0,0.0,0.0,0.0,0.0,0.0,0.0,0.0,-1.3089,-1.3728,-1.351,-1.3382,-1.3051,0.0,0.0,0.0,0.0,0.0,0.0,-1.3859,-1.3782,-1.4376,-1.5604,-1.5559,-1.5718,-1.6353,-1.6505,-1.6517,-1.6265,-1.6139,-1.6061,-1.5921,-1.5355,-1.5133,-1.5133,-1.4784,-1.4569,-1.453,-1.387,-1.3266,-1.2565,-1.1483,-1.0785,-1.0282,-0.9834,-0.9586,-0.9518,-0.9807,-0.9633,-0.9308,-0.9037,0.0,-0.8754,-0.8153,0.0,0.0,0.0,0.0,-0.8612,-0.8842,-0.909,-0.9311,-0.9447,-0.9567,-0.9712,-1.0015,-1.002,-0.9922,0.0,-0.9528,-0.9223,-0.9108,0.0,0.0,0.0,0.0,-0.8196,-0.7521,-0.7981,-0.8441,-0.8546,-0.9301,-1.0122,-1.1354,-1.2478,-1.3678,-1.5083,-1.5898,-1.644,-1.6625,-1.6329,-1.6006,-1.5671,0.0,0.0,0.0,0.0,0.0,0.0,0.0,0.0,0.0,0.0,0.0,0.0,0.0,0.0,0.0,0.0,0.0,0.0,0.0,0.0,0.0,0.0,0.0,0.0,0.0,0.0,0.0,0.0,0.0,-1.3086,-1.4112,0.0,0.0,0.0,0.0,-1.3641,-1.3437,-1.3738,-1.48,-1.4632,-1.5023,-1.6053,-1.6468,-1.6571,-1.6285,-1.6679,-1.6664,-1.6315,-1.5771,-1.5576,-1.5505,-1.5078,-1.4935,-1.4935,-1.507,-1.4848,-1.4353,-1.397,-1.3419,-1.2788,-1.1927,-1.1115,-1.041,-1.0586,-1.0528,-1.0384,-1.0634,-1.0601,-1.0289,-0.9476,-0.8899,-0.8559,-0.8551,-0.8518,0.0,0.0,-0.887,-0.8951,-0.9453,-0.9447,-0.9418,-0.9736,-0.9714,-0.9771,-1.0149,-1.0118,-1.005,0.0,-1.0413,-1.0172,-1.0121,0.0,-0.9115,-0.8743,-0.8492,-0.8143,-0.7529,-0.7755,-0.8122,-0.8323,-0.9286,-1.0364,-1.1366,-1.2843,-1.4028,-1.5095,-1.6042,-1.66,-1.657,-1.6349,-1.62,-1.5973,-1.5447,0.0,0.0,0.0,0.0,0.0,0.0,0.0,0.0,0.0,0.0,0.0,0.0,0.0,0.0,0.0,0.0,0.0,0.0,0.0,0.0,0.0,0.0,0.0,0.0,0.0,0.0,0.0,0.0,-1.3032,-1.376,0.0,0.0,-1.3962,-1.428,-1.4176,-1.443,-1.4823,-1.5396,-1.5377,-1.5629,-1.6373,-1.6597,-1.6611,-1.6473,-1.641,-1.6202,-1.578,-1.5346,-1.5133,-1.5086,-1.4798,-1.468,-1.4843,-1.4764,-1.4479,-1.4182,-1.4273,-1.3963,-1.3416,-1.3023,-1.2563,-1.2178,-1.1686,-1.1475,-1.1377,-1.1089,-1.0679,-1.0228,-0.9622,-0.9337,-0.9264,-0.9574,-0.9479,-0.9288,-0.9529,-0.9556,-0.9483,-0.945,-0.9702,-0.9912,-0.9705,-0.9946,-1.0333,-1.0494,-1.0375,-1.0418,-1.0949,-1.0778,-1.0512,-1.0434,-1.0317,-0.9776,-0.8636,-0.8641,-0.8504,-0.7791,-0.7871,-0.8157,-0.8673,-0.9235,-1.0182,-1.1519,-1.2684,-1.3923,-1.4997,-1.5687,-1.6226,-1.6582,-1.6398,-1.6212,-1.5941,-1.5956,-1.5488,0.0,0.0,0.0,0.0,0.0,0.0,0.0,0.0,0.0,0.0,0.0,0.0,0.0,0.0,0.0,0.0,0.0,0.0,0.0,0.0,0.0,0.0,0.0,0.0,0.0,0.0,-1.3284,-1.2622,-1.356,-1.4148,-1.3793,-1.4482,-1.4945,-1.4914,-1.5349,-1.5595,-1.5634,-1.5782,-1.5983,-1.6184,-1.6457,-1.6395,-1.6053,-1.6192,-1.5968,-1.533,-1.5219,-1.5056,-1.4933,-1.4705,-1.4577,-1.4668,-1.4517,-1.4294,-1.4137,-1.4301,-1.4132,-1.3806,-1.363,-1.3431,-1.3188,-1.2412,-1.2003,-1.1719,-1.1295,-1.0854,-1.0545,-1.0159,-1.0087,-1.0119,-1.0268,-1.0074,-0.9887,-1.0039,-0.9935,-0.9737,-0.9446,-0.9719,-0.9976,-0.9675,-0.9952,-1.0371,-1.0371,-1.044,-1.0585,-1.1052,-1.0826,-1.0559,-1.0559,-1.0538,-1.0069,-0.8852,-0.8782,-0.868,-0.8046,-0.7988,-0.832,-0.8794,-0.9395,-1.0355,-1.165,-1.2803,-1.3887,-1.4873,-1.5495,-1.6055,-1.6368,-1.6338,-1.6194,-1.6031,-1.6273,-1.5783,-1.4701,0.0,0.0,0.0,0.0,0.0,0.0,0.0,0.0,0.0,0.0,0.0,0.0,0.0,0.0,0.0,0.0,0.0,0.0,0.0,0.0,0.0,0.0,0.0,-1.2,-1.2806,-1.2941,-1.1797,-1.3657,-1.487,-1.4357,-1.5355,-1.5993,-1.5865,-1.6026,-1.5925,-1.548,-1.5978,-1.6012,-1.553,-1.6156,-1.6037,-1.4904,-1.6037,-1.6068,-1.5115,-1.5447,-1.5443,-1.4979,-1.4777,-1.455,-1.4394,-1.4401,-1.4323,-1.4088,-1.4088,-1.4009,-1.3817,-1.3732,-1.3611,-1.3265,-1.2574,-1.1948,-1.139,-1.1218,-1.1242,-1.1203,-1.0956,-1.0956,-1.0886,-1.0486,-1.0324,-1.029,-1.0267,-0.9991,-0.9616,-0.9561,-0.9584,-0.9466,-0.947,-0.9618,-0.9842,-0.9842,-1.0193,-1.0532,-1.0819,-1.0646,-1.0501,-1.0487,-1.0394,-0.996,-0.922,-0.9043,0.0,-0.8322,-0.8233,-0.8394,-0.8665,-0.987,-1.0882,-1.1488,-1.2947,-1.4054,-1.4505,-1.5615,-1.6136,-1.6155,-1.6222,-1.6212,-1.6251,-1.6384,-1.614,-1.5456,0.0,0.0,0.0,0.0,0.0,0.0,0.0,0.0,0.0,0.0,0.0,0.0,0.0,0.0,0.0,0.0,0.0,0.0,0.0,0.0,0.0,0.0,-1.1564,-1.2055,-1.2647,-1.3119,-1.3497,-1.3753,-1.4082,-1.4479,-1.4544,-1.4698,-1.4936,-1.5024,-1.4963,-1.484,-1.5096,-1.5227,-1.5243,-1.57,-1.5758,-1.5411,-1.571,-1.5523,-1.4843,-1.4632,-1.4521,-1.4535,-1.4221,-1.4328,-1.4743,-1.4472,-1.4399,-1.4317,-1.4482,-1.4324,-1.4035,-1.3829,-1.3542,-1.3209,-1.2446,-1.1725,-1.0993,-1.101,-1.09,-1.08,-1.0719,-1.0638,-1.0508,-1.0507,-1.0305,-1.0021,-1.0233,-0.9952,-0.957,-0.9509,-0.9512,-0.95,-0.9451,-0.972,-1.0052,-1.0052,-1.0316,-1.0653,-1.0753,-1.0703,-1.0769,-1.1048,-1.0806,-1.04,-0.9682,-0.9409,0.0,-0.8759,-0.8551,-0.8679,-0.9314,-0.9836,-1.0578,-1.1516,-1.2634,-1.3592,-1.4267,-1.5311,-1.5977,-1.6051,-1.6806,-1.7239,-1.7265,-1.699,-1.6557,0.0,0.0,0.0,0.0,0.0,0.0,0.0,0.0,0.0,0.0,0.0,0.0,0.0,0.0,0.0,0.0,0.0,0.0,0.0,0.0,0.0,0.0,-1.1185,-1.1913,-1.2261,-1.2838,-1.3418,-1.4044,-1.3881,-1.4039,-1.4657,-1.4271,-1.425,-1.4816,-1.4725,-1.4616,-1.4686,-1.4933,-1.5107,-1.507,-1.5523,-1.5557,-1.508,-1.5506,-1.5334,-1.4554,-1.462,-1.4524,-1.437,-1.4316,-1.4399,0.0,-1.449,-1.4314,-1.4237,-1.4321,-1.4068,0.0,0.0,0.0,0.0,0.0,-1.1611,-1.1003,-1.0811,-1.0842,-1.084,-1.0679,-1.0596,-1.0622,-1.0662,-1.0514,-1.0361,-1.0402,-1.0145,-0.9791,-0.9639,-0.9548,-0.9448,-0.9366,-0.9686,-0.9976,-0.9976,-1.0309,-1.0625,-1.0625,-1.083,0.0,-1.1212,-1.0789,-1.0316,-0.994,-0.9557,-0.9237,-0.9201,-0.891,-0.9069,-0.9543,-0.9918,-1.0514,-1.1435,-1.2236,0.0,0.0,0.0,-1.5955,-1.6535,-1.7048,0.0,0.0,0.0,0.0,0.0,0.0,0.0,0.0,-1.5029,-1.4444,0.0,0.0,0.0,0.0,0.0,0.0,0.0,0.0,0.0,0.0,0.0,0.0,0.0,0.0,0.0,0.0,-1.1485,-1.248,-1.2475,-1.3148,-1.3707,-1.3731,-1.3889,-1.4122,-1.4617,-1.4186,-1.4114,-1.4911,-1.4649,-1.4517,-1.4695,0.0,0.0,0.0,0.0,-1.5295,-1.441,-1.5302,-1.5204,-1.426,-1.4932,-1.4977,-1.4398,-1.4482,-1.4482,-1.4398,-1.4314,-1.4237,-1.4004,-1.3737,-1.3483,-1.3281,-1.3602,-1.349,-1.3035,-1.1927,-1.1402,-1.1233,-1.0763,0.0,0.0,-1.0727,-1.0743,-1.085,-1.0681,-1.0755,-1.0935,-1.0666,-1.0342,-1.0116,-0.9859,-0.9613,-0.9364,-0.9405,-0.9657,-0.9892,-0.9912,-1.0265,-1.0611,-1.0611,-1.1023,-1.1282,-1.111,-1.051,-1.0117,-1.0132,-0.9626,-0.9297,-0.9459,-0.935,-0.9391,-0.9648,0.0,0.0,-1.1335,-1.1983,-1.2771,-1.354,-1.4835,-1.6098,-1.7102,-1.7029,-1.7284,-1.7682,-1.7594,-1.7825,-1.8373,-1.8333,-1.7999,-1.7452,-1.5355,-1.4604,0.0,0.0,0.0,0.0,0.0,0.0,0.0,0.0,0.0,0.0,0.0,0.0,0.0,0.0,0.0,-1.0394,-1.1451,-1.2342,-1.2475,-1.2745,-1.3023,-1.3288,-1.323,-1.3185,-1.3258,-1.2886,-1.2813,-1.3331,-1.3644,-1.3894,-1.3802,-1.4352,0.0,-1.4422,-1.4655,-1.4784,-1.4641,-1.5036,-1.4913,-1.4169,0.0,0.0,-1.4166,-1.399,-1.4068,-1.4398,-1.3815,-1.3652,-1.3737,-1.3398,-1.2966,-1.2613,-1.2644,-1.2499,-1.2171,-1.1562,-1.1185,-1.1004,-1.0958,-1.0702,-1.0467,-1.0212,-1.0245,-1.0389,-1.0121,-1.0353,0.0,-1.0329,-1.008,-0.9868,-0.9733,-0.9515,-0.9425,-0.9518,-0.9734,-0.9823,-0.9764,-1.0359,-1.0809,-1.049,-1.0699,-1.1009,-1.0864,-1.101,-1.1021,-1.0628,-1.0306,-1.0075,-0.9806,-0.9694,-0.977,-1.0167,-1.0416,-1.086,-1.1438,-1.1953,-1.2423,-1.3301,-1.4553,-1.5776,-1.7012,-1.7326,-1.7527,-1.7967,-1.8431,-1.8589,-1.838,-1.8143,-1.7924,-1.781,-1.6933,-1.6132,0.0,0.0,0.0,0.0,0.0,0.0,0.0,0.0,0.0,0.0,0.0,-0.866,-0.9071,0.0,-1.0085,-1.0464,-1.1351,-1.1928,-1.1812,-1.2227,-1.258,-1.2879,-1.2599,-1.2599,-1.29,-1.2513,-1.2525,-1.3049,-1.3418,-1.3585,-1.3581,-1.405,-1.4275,-1.4166,-1.451,-1.4504,-1.423,-1.4496,-1.4409,-1.3952,-1.4025,-1.4017,-1.3905,-1.3844,-1.3774,-1.3767,-1.354,-1.3307,-1.3222,-1.2881,-1.2454,-1.2032,-1.1763,-1.1685,-1.1595,-1.1284,-1.0995,-1.083,-1.0697,-1.046,-1.0195,-1.0023,-0.9984,-1.0058,-0.9875,-1.02,-1.0453,-1.0265,-1.0143,-1.0049,-0.9854,-0.9747,-0.9665,-0.9742,-0.9923,-1.008,-1.0067,-1.044,-1.0779,-1.0562,-1.0779,-1.0966,-1.077,-1.1069,-1.1106,-1.0819,-1.042,-1.012,-1.0017,-0.9856,-0.9986,-1.0299,-1.0494,-1.0814,-1.1499,-1.2103,-1.2976,-1.3789,-1.4634,-1.5585,-1.6644,-1.7098,-1.7647,-1.8451,-1.844,-1.8607,-1.8879,-1.8457,-1.8044,-1.775,-1.7282,-1.6792,0.0,0.0,0.0,0.0,0.0,0.0,0.0,0.0,-0.7546,-0.8483,-0.8692,-0.8912,-0.9708,-0.9962,-1.0222,-1.0553,-1.1183,-1.1512,-1.1151,-1.1729,-1.2317,-1.2392,-1.2168,-1.2168,-1.2614,-1.2355,-1.2441,-1.3056,-1.3342,-1.346,-1.3546,-1.3933,-1.4152,-1.3964,-1.4368,-1.4233,-1.373,-1.3966,-1.3937,-1.3711,-1.3711,-1.3742,-1.3683,-1.364,-1.3453,-1.3093,-1.3083,-1.2875,-1.2433,-1.2215,-1.1882,-1.1505,-1.106,-1.0989,-1.1107,-1.0978,-1.0819,-1.0592,-1.0421,-1.0182,-1.0058,-0.9876,-0.9828,-0.9796,-0.9796,-1.0121,-1.0381,-1.0189,-1.0197,-1.0224,-0.9962,-0.9879,-0.9803,-0.9768,-1.0007,-1.0333,-1.0262,-1.0486,-1.0582,-1.0582,-1.0802,-1.0866,-1.0721,-1.0925,-1.0958,-1.0778,-1.0377,-1.0147,-1.0249,-0.9982,-0.9994,-1.0397,-1.0425,-1.0734,-1.1646,-1.2526,-1.3437,-1.4466,-1.4779,-1.5353,-1.6183,-1.6693,-1.7463,-1.8558,-1.8236,-1.8379,-1.9262,-1.8545,-1.8046,-1.7551,-1.7228,-1.6914,-0.7881,-0.767,-0.7726,-0.7926,-0.752,-0.7382,0.0,0.0,-0.8801,-0.9207,-0.9742,-1.0094,-1.0078,-1.0471,-1.0756,-1.0594,-1.1182,-1.1441,-1.0991,-1.1583,-1.2024,-1.164,-1.187,-1.1947,-1.1717,-1.18,-1.2117,-1.2593,-1.2856,-1.311,-1.3313,-1.3638,-1.3704,-1.3476,-1.3719,-1.3847,-1.376,-1.3837,-1.3711,-1.3556,-1.3465,-1.3387,-1.3144,-1.3205,-1.3188,-1.3091,-1.2471,-1.1921,-1.1462,-1.1245,-1.1112,-1.1038,-1.0771,-1.061,-1.0567,-1.0656,-1.0614,-1.0499,-1.0499,-1.0053,-0.9524,-0.9431,-0.9648,-0.9801,-0.9801,-1.0127,-1.0382,-1.0087,-1.0006,-0.9958,-0.9617,-0.9568,-0.9453,-0.9228,-0.9644,-1.0035,-0.9866,-1.0131,-1.0366,-1.0366,-1.0366,-1.0359,-1.0339,-1.057,-1.0744,-1.0778,-1.059,-1.042,-1.0275,-1.008,-1.0119,-1.0649,-1.0789,-1.1225,-1.2386,-1.2776,-1.3255,-1.4075,-1.439,-1.4883,-1.5229,-1.6037,-1.6751,-1.7244,-1.7729,-1.8243,-1.8631,-1.8016,-1.7615,-1.764,-1.7002,-1.66,-0.9233,-0.8466,0.0,0.0,-0.7963,-0.765,-0.8158,-0.8327,-0.862,-0.9485,-0.9874,-1.02,-1.0684,-1.0678,-1.0634,0.0,-1.0892,-1.0893,-1.0967,-1.1211,-1.1354,-1.1186,-1.157,-1.1766,-1.1775,-1.1999,-1.2319,-1.2557,-1.2984,-1.3136,-1.2962,-1.3243,-1.3212,-1.3027,-1.323,-1.3364,-1.3153,-1.3266,-1.3312,-1.3269,-1.3269,-1.3164,-1.2931,-1.2884,-1.2738,-1.2403,-1.1935,-1.1626,-1.1434,-1.1246,-1.1081,-1.0899,-1.0442,-1.0385,-1.0449,-1.0431,-1.0223,-1.0107,-1.0107,-0.9903,-0.9621,-0.9621,-0.9652,-0.9705,-0.9705,-0.9763,-0.992,-0.9826,-0.9697,-0.9694,-0.9564,-0.9526,-0.9497,-0.9636,-0.9854,-1.0163,-1.0131,-1.0366,-1.0472,-1.0366,-1.0476,-1.0582,-1.0582,-1.0582,-1.0704,-1.0851,-1.0647,-1.0462,-1.0282,-1.0332,-1.0531,-1.1153,-1.1518,-1.1981,-1.2927,-1.3165,-1.351,-1.4014,-1.4285,-1.454,-1.453,-1.5704,-1.6486,-1.6961,-1.7625,-1.8114,-1.8426,-1.7875,-1.7538,-1.7307,-1.6712,-1.6411,-0.9517,0.0,0.0,-0.8371,-0.8179,-0.7877,-0.7909,-0.8045,-0.8489,-0.9499,-0.981,-1.0184,-1.0954,-1.0678,-1.038,-1.0717,-1.0461,-1.0337,-1.0483,-1.0772,-1.0948,-1.1028,-1.1349,-1.1678,-1.1916,-1.2236,-1.2427,-1.2427,-1.2856,-1.2966,-1.254,-1.2783,-1.2829,-1.258,-1.2903,-1.2971,-1.2693,-1.2951,-1.2983,-1.2869,-1.2869,-1.2682,-1.2559,-1.2486,-1.2315,-1.1859,-1.1517,-1.1399,-1.1301,-1.0959,-1.0788,-1.066,-1.0286,-1.022,-1.0285,-1.0139,-0.9995,-0.9901,-0.9901,-0.9797,-0.9715,-0.9715,-0.9616,-0.9628,-0.9628,-0.9628,-0.9636,-0.9585,-0.9489,-0.9501,-0.9393,-0.9489,-0.9574,-0.9622,-1.0054,-1.0257,-1.0036,-1.0253,-1.0363,-1.0147,-1.0257,-1.0378,-1.0536,-1.0544,-1.0719,-1.1013,-1.074,-1.0471,-1.0357,-1.0558,-1.0899,-1.1387,-1.1988,-1.2627,-1.3383,-1.3515,-1.3734,-1.4199,-1.437,-1.448,-1.439,-1.5449,-1.6363,-1.6997,-1.7524,-1.7963,-1.8337,-1.7811,-1.7463,-1.7058,-1.6559,-1.6221,0.0,0.0,-0.751,-0.784,-0.8006,-0.8121,-0.8094,-0.8468,-0.886,-0.9256,-0.9646,-1.0104,-1.0555,-1.0458,-1.019,-0.9691,-0.9882,-0.9939,-0.9418,-1.0232,-1.1033,-1.1277,-1.1516,-1.1752,0.0,-1.2272,-1.2272,-1.2026,-1.2283,-1.2283,-1.2037,-1.2272,-1.2403,-1.2414,-1.2871,-1.2946,-1.2681,-1.2816,-1.2646,-1.2457,-1.2165,-1.2068,-1.1975,-1.197,-1.1868,-1.1556,-1.1163,-1.0791,-1.0491,-1.0006,-0.9947,-1.0123,-1.0127,-1.0043,-1.001,-1.0006,-1.0002,-1.0002,-1.0002,-0.9809,-0.962,-0.962,-0.9624,-0.9628,-0.9628,-0.9628,-0.9565,-0.9528,-0.9478,-0.9453,-0.9147,-0.9341,-0.9388,-0.9006,-0.9592,-1.0147,-0.9599,-0.9596,-0.9706,-0.9489,-0.9489,-0.9536,-1.0017,-1.0277,-1.0677,-1.1073,-1.0782,-1.0539,-1.0547,-1.0826,-1.1155,-1.141,-1.2091,-1.2814,-1.3589,-1.3594,-1.385,-1.4487,-1.4673,-1.4834,-1.4978,-1.5571,-1.6298,-1.7003,-1.7349,-1.7695,-1.8008,-1.7754,-1.7377,-1.7111,-1.6502,-1.6168,-0.7177,0.0,-0.7192,-0.7665,-0.7802,-0.7846,-0.7999,-0.8388,-0.8769,-0.9298,-0.9251,-0.9344,-0.9658,-0.9796,-0.9741,-0.9541,-0.9944,-1.0273,-1.0211,-1.0387,-1.0616,-1.0846,-1.1117,0.0,0.0,0.0,0.0,-1.2043,-1.2037,-1.2198,-1.2277,-1.2104,-1.2114,-1.2352,-1.2229,-1.2194,-1.2255,-1.2237,-1.2175,-1.2175,-1.1683,-1.1487,-1.1492,-1.1096,-1.0904,-1.0801,-1.044,-1.0297,-1.0311,-0.9743,-0.9726,-0.979,-0.9587,-0.9653,-0.9597,-0.9501,-0.9597,-0.9883,-0.9764,-0.9628,-0.9628,-0.9628,-0.9628,-0.9648,-0.9762,-0.9799,-0.9734,-0.9709,-0.9526,-0.9425,-0.9215,-0.9106,-0.9092,-0.9254,-0.9489,-0.9599,-0.9489,-0.9599,-0.9706,-0.9489,-0.9576,-0.9887,-1.0277,-1.0489,-1.062,-1.0677,-1.0635,-1.0591,-1.0696,-1.0904,-1.1336,-1.1952,-1.2422,-1.2876,-1.3392,-1.3657,-1.3989,-1.4254,-1.4567,-1.4683,-1.4586,-1.5176,-1.5908,-1.6549,-1.7215,-1.7554,-1.7701,-1.7401,-1.6924,-1.6372,-1.6121,-1.5893,-0.6838,-0.6855,-0.6842,-0.7502,-0.7513,-0.7513,-0.7739,-0.8125,-0.8503,-0.899,-0.8896,-0.8829,-0.9145,-0.9285,-0.9208,-0.8859,-0.9411,-0.9857,-0.9848,-0.9857,-0.9966,-1.0509,-1.0634,0.0,0.0,0.0,0.0,-1.1483,-1.1723,-1.1838,-1.1901,-1.1722,-1.1815,-1.212,-1.1823,-1.1737,-1.1683,-1.1683,-1.159,-1.1389,-1.1096,-1.09,-1.09,-1.0609,-1.0349,-1.0319,-1.0016,-0.992,-0.9994,-0.9579,-0.9434,-0.9537,-0.9328,-0.9365,-0.9373,-0.9271,-0.937,-0.9654,-0.9481,-0.9562,-0.9819,-0.9516,-0.9516,-0.9637,-0.9642,-0.9678,-0.961,-0.9575,-0.9378,-0.9255,-0.9099,-0.9081,-0.9047,-0.9158,-0.9379,-0.9503,-0.9335,-0.9568,-0.9698,-0.9423,-0.9741,-1.0056,-1.0345,-1.0604,-1.0627,-1.0502,-1.0397,-1.0456,-1.0612,-1.1027,-1.1446,-1.2123,-1.2427,-1.2841,-1.3358,-1.3625,-1.3831,-1.4226,-1.435,-1.4515,-1.4556,-1.5286,-1.5873,-1.6194,-1.6874,-1.7221,-1.7126,-1.6961,-1.6646,-1.6292,-1.5932,-1.5699,-0.646,-0.6495,-0.652,-0.723,-0.7172,-0.6952,-0.7425,-0.7753,-0.8103,-0.8443,-0.8487,-0.8484,0.0,0.0,-0.8562,-0.7739,-0.8432,-0.8886,-0.8498,-0.8783,-0.9294,0.0,0.0,0.0,0.0,0.0,0.0,-1.0585,0.0,-1.14,-1.0954,-1.1343,-1.1562,-1.1572,-1.1773,-1.1683,-1.1194,-1.1194,-1.0909,-1.0426,-1.0327,-1.0332,-1.034,-1.0345,-1.0245,-1.0116,-0.99,-0.9693,-0.9653,-0.9339,-0.9242,-0.9249,-0.9249,-0.9245,-0.9238,-0.9238,-0.9238,-0.9317,-0.9157,-0.9511,-1.0056,-0.9537,-0.9433,-0.9642,-0.9339,-0.9339,-0.9268,-0.9105,-0.9147,-0.9078,-0.891,-0.9165,-0.9272,-0.8947,-0.9382,-0.9636,-0.9226,-0.937,-0.9532,-0.9456,-0.9729,-1.0022,-1.0066,-1.0452,-1.0668,-1.0425,-1.0311,-1.0372,-1.0525,-1.0936,-1.1483,-1.1895,-1.2465,-1.2972,-1.3371,-1.3371,-1.363,-1.4272,-1.4403,-1.4577,-1.5022,-1.5763,-1.605,-1.5846,-1.6552,-1.6783,-1.6537,-1.6537,-1.6419,-1.6414,-1.6181,-1.5715,-0.5891,-0.6013,-0.6082,-0.6419,-0.6507,-0.6643,-0.7187,-0.7331,-0.7497,-0.7803,-0.741,-0.7104,0.0,0.0,0.0,-0.7878,-0.8896,0.0,-0.9292,-0.9251,0.0,0.0,0.0,-0.9972,-1.0021,-1.0314,0.0,0.0,-1.0436,-1.0915,-1.108,-1.0863,-1.0866,-1.1308,-1.0974,-1.0703,-1.0609,-1.0413,-1.0289,-1.023,-0.9924,-0.979,-0.9919,-0.9717,-0.9534,-0.9473,-0.9265,-0.9148,-0.9183,-0.8973,-0.8939,-0.9043,-0.9043,-0.9078,-0.9076,-0.8973,-0.908,-0.9389,-0.8927,-0.9079,-0.9537,-0.9328,-0.9328,-0.9455,-0.9466,-0.9499,-0.943,-0.9381,-0.9318,-0.9244,-0.9171,-0.913,-0.9075,-0.9072,-0.9126,-0.9058,-0.8984,-0.8963,-0.9051,-0.9429,-0.9972,-1.0425,-1.0583,-1.0763,-1.0789,-1.0668,-1.053,-1.05,-1.0539,-1.0814,-1.1228,-1.1895,-1.22,-1.2572,-1.2968,-1.3235,-1.363,-1.401,-1.4272,-1.4511,-1.4985,-1.5213,-1.5504,-1.5716,-1.6032,-1.6189,-1.62,-1.62,-1.5957,-1.5467,-1.5408,-1.5145,-0.538,-0.5538,-0.5698,-0.5923,-0.6008,-0.6197,-0.6514,-0.6737,-0.6857,-0.6929,-0.6622,0.0,0.0,0.0,0.0,0.0,0.0,0.0,-0.9032,-0.8869,-0.8973,0.0,-0.9609,0.0,-0.9759,-1.004,-1.0056,0.0,-1.0049,-1.0514,-1.0633,-1.0541,-1.0493,-1.0797,-1.0413,-1.0117,-0.992,-0.9701,-0.969,-0.9693,-0.9461,-0.9442,-0.9537,-0.9328,-0.9264,-0.9221,0.0,-0.8994,-0.9026,-0.8811,-0.8899,-0.9032,-0.9032,-0.9089,-0.9123,-0.9013,-0.9081,-0.924,-0.8917,-0.8974,-0.9115,-0.9115,-0.9223,-0.9344,-0.9215,-0.924,-0.9275,-0.9432,-0.9478,-0.9496,-0.9246,-0.9093,-0.8923,-0.8716,-0.8597,-0.8604,-0.8662,-0.8673,-0.8904,-0.9782,-1.0173,-1.0568,-1.1016,-1.0789,-1.0547,-1.0547,-1.0566,-1.0571,-1.0642,-1.0788,-1.1202,-1.1881,-1.2119,-1.2441,-1.2704,-1.2972,-1.3231,-1.3621,-1.4015,-1.4272,-1.467,-1.5082,-1.5258,-1.5317,-1.5649,-1.5676,-1.5488,-1.559,-1.5345,-1.4883,-1.4883,-1.4644,-0.4979,-0.5141,-0.5345,-0.5646,-0.5705,-0.5686,-0.5837,-0.609,-0.6202,-0.6024,0.0,-0.592,-0.6058,-0.6698,-0.7136,-0.6806,0.0,-0.8577,-0.8341,-0.8317,-0.857,-0.9276,-0.9435,-0.946,-0.9573,-0.9824,-0.9723,-0.9232,-0.9821,-1.0117,-0.992,-1.0117,-1.0212,-1.0212,-0.992,-0.9636,-0.9168,-0.9109,-0.9101,-0.9145,-0.9186,-0.9268,-0.929,-0.9206,-0.9179,-0.9092,0.0,0.0,-0.8886,-0.8886,-0.896,-0.9067,-0.9161,-0.9154,-0.915,-0.913,-0.9045,-0.894,-0.8937,-0.894,-0.894,-0.894,-0.9158,-0.9379,-0.9047,-0.9061,-0.9102,-0.9564,-0.9599,-0.9493,-0.9291,-0.9167,-0.8897,-0.8233,-0.8191,-0.8308,-0.8417,-0.8667,-0.9171,-1.0061,-1.0318,-1.0554,-1.1061,-1.0683,-1.0183,-1.0183,-1.0338,-1.0503,-1.0767,-1.0916,-1.133,-1.1894,-1.2177,-1.2572,-1.2836,-1.2836,-1.2968,-1.3498,-1.3752,-1.401,-1.4403,-1.5071,-1.5272,-1.4866,-1.5296,-1.5222,-1.4741,-1.4902,-1.4882,-1.4575,-1.4545,-1.4172,-0.4956,-0.5017,-0.5093,-0.5408,-0.5489,-0.547,-0.5627,-0.5666,0.0,0.0,-0.5312,-0.5311,-0.5442,-0.6246,0.0,-0.7306,0.0,0.0,0.0,0.0,-0.8713,0.0,0.0,0.0,0.0,0.0,0.0,0.0,0.0,0.0,-0.9331,-0.9126,-0.9122,-0.9122,-0.9023,-0.9091,-0.9139,-0.8864,-0.8906,-0.9055,-0.8873,-0.8845,-0.8975,-0.8873,-0.8828,-0.8745,-0.8641,0.0,-0.8502,-0.8502,-0.8515,-0.8524,-0.8749,-0.8814,-0.8801,-0.8907,-0.896,-0.8937,-0.9268,-0.9268,-0.9268,-0.9268,-0.9379,-0.9379,-0.9596,-0.9798,-0.9905,-1.0044,-0.9603,-0.9295,-0.9306,-0.8905,-0.8385,-0.8353,-0.8396,-0.8427,-0.8794,-0.9614,-1.0285,-1.0204,-1.0641,-1.1077,-1.0729,-1.0271,-0.9822,-0.9457,-0.9558,-0.9732,-1.0263,-1.1041,-1.1854,-1.2553,-1.2704,-1.2836,-1.3235,-1.2972,-1.3095,-1.3748,-1.3613,-1.3875,-1.48,-1.4936,-1.5077,-1.5077,-1.5111,-1.5236,-1.5185,-1.5049,-1.4836,-1.4548,-1.4375,-1.3928,-0.4533,-0.464,-0.4762,-0.5027,-0.5109,-0.5147,-0.4965,0.0,0.0,0.0,-0.4622,-0.4751,-0.5045,0.0,0.0,0.0,0.0,0.0,0.0,0.0,0.0,0.0,0.0,0.0,0.0,0.0,0.0,0.0,0.0,0.0,-0.8935,-0.8825,-0.8726,-0.8627,-0.8514,-0.8596,-0.8674,-0.8525,-0.8608,-0.8709,-0.8682,-0.8686,-0.8606,-0.8558,-0.8587,-0.859,-0.8427,0.0,-0.8451,-0.8493,-0.8502,-0.8433,-0.8869,-0.8814,-0.8704,-0.9051,-0.9007,-0.8828,-0.894,-0.894,-0.8815,-0.8846,-0.9265,-0.961,-0.9913,-0.9995,-1.0096,-1.0152,-0.9852,-0.9521,-0.9124,-0.874,-0.8454,-0.8212,-0.8269,-0.834,-0.8647,-0.9128,-0.9487,-0.9429,-0.9937,-1.0306,-1.0176,-0.9869,-0.9483,-0.9439,-0.9751,-1.0166,-1.0628,-1.1297,-1.1953,-1.2433,-1.2572,-1.2704,-1.3104,-1.2968,-1.2968,-1.3358,-1.3358,-1.3625,-1.415,-1.4277,-1.4312,-1.4368,-1.4465,-1.4312,-1.4142,-1.4275,-1.417,-1.383,-1.3731,-1.3449,-0.432,-0.4398,-0.446,-0.4639,-0.4791,-0.4814,-0.4409,-0.4498,0.0,0.0,-0.4135,-0.4411,-0.4846,0.0,-0.5937,0.0,0.0,0.0,0.0,0.0,0.0,0.0,0.0,0.0,0.0,0.0,0.0,0.0,0.0,0.0,-0.8736,-0.8628,-0.8528,-0.8331,-0.815,-0.814,-0.8203,-0.8185,-0.8256,-0.831,-0.8501,-0.8489,-0.8369,-0.8399,-0.8296,-0.8299,-0.8356,0.0,0.0,-0.8369,-0.8378,-0.8314,-0.8752,-0.8833,-0.8644,-0.9073,-0.8912,-0.859,-0.87,-0.8455,-0.8301,-0.852,-0.9037,-0.9621,-0.989,-0.9971,-0.9953,-1.0005,-0.9961,-0.9605,-0.8888,-0.865,-0.8394,-0.808,-0.8141,-0.8245,-0.8349,-0.8564,-0.8735,-0.8909,-0.9328,-0.9604,-0.9638,-0.9355,-0.9142,-0.9159,-0.9919,-1.0572,-1.0599,-1.1282,-1.178,-1.1912,-1.2177,-1.2441,-1.284,-1.2836,-1.2836,-1.2968,-1.3104,-1.3367,-1.3498,-1.3752,-1.3809,-1.366,-1.38,-1.3638,-1.3146,-1.3501,-1.3495,-1.3147,-1.3102,-1.2844,-0.47,-0.4512,-0.4256,-0.4424,-0.4613,-0.4657,-0.4537,0.0,0.0,-0.4251,-0.4356,-0.4574,-0.5014,-0.5552,-0.598,-0.6363,-0.6773,-0.7187,0.0,0.0,0.0,0.0,0.0,0.0,0.0,0.0,0.0,0.0,0.0,0.0,0.0,-0.8233,-0.8023,-0.8023,-0.783,-0.7745,-0.799,-0.7892,-0.7971,-0.8228,-0.8118,-0.8072,-0.8088,-0.8213,-0.804,-0.7818,-0.8054,0.0,0.0,-0.7746,-0.7844,-0.8084,-0.7952,-0.8093,-0.8424,-0.8311,-0.8262,-0.8249,-0.859,-0.8617,-0.8501,-0.8816,-0.8702,-0.8732,-0.9441,-0.9592,-0.9511,-0.9912,-0.9483,-0.8769,-0.8769,-0.8295,-0.7845,-0.7936,-0.8094,-0.8355,-0.8366,-0.8864,-0.9265,-0.95,-0.9678,-0.9635,-0.9255,-0.8931,-0.8652,-0.8284,-0.891,-0.9429,-0.9568,-1.0889,-1.1516,-1.0986,-1.178,-1.2572,-1.3235,-1.2968,-1.2968,-1.3367,-1.3104,-1.3099,-1.3879,-1.3879,-1.387,-1.3853,-1.3866,-1.3769,-1.3545,-1.3378,-1.3194,-1.2987,-1.2807,-1.2479,-0.3939,-0.3897,-0.4028,-0.4297,-0.4444,-0.4491,-0.4504,0.0,-0.435,-0.41,-0.4298,-0.4601,-0.4975,-0.5277,-0.5603,-0.601,-0.6487,-0.6809,-0.6835,0.0,0.0,0.0,0.0,0.0,0.0,0.0,0.0,0.0,0.0,0.0,0.0,-0.8265,-0.796,-0.796,-0.7618,-0.76,-0.7919,-0.7731,-0.7727,-0.7903,-0.785,-0.7867,-0.7721,-0.7769,-0.7676,-0.7682,-0.7666,0.0,0.0,-0.7721,-0.7682,-0.7626,-0.7838,-0.7933,-0.7989,-0.813,-0.8136,-0.8019,-0.813,-0.8034,-0.7932,-0.7963,-0.7879,-0.807,-0.9154,-0.9507,-0.954,-0.9333,-0.889,-0.8403,-0.8043,-0.7925,-0.7834,-0.7954,-0.8175,-0.8389,-0.8461,-0.8476,-0.8591,-0.8562,-0.8703,-0.8714,-0.8438,-0.827,-0.8184,-0.8133,-0.9215,-0.997,-1.0205,-1.0816,-1.1251,-1.1383,-1.2045,-1.2572,-1.2444,-1.2441,-1.2704,-1.2972,-1.26,-1.254,-1.3055,-1.3059,-1.3005,-1.29,-1.3001,-1.2913,-1.262,-1.2794,-1.2717,-1.2398,-1.2323,-1.2102,-0.3469,-0.3522,-0.3763,-0.4073,-0.4155,-0.4308,0.0,-0.4486,-0.4401,-0.4356,-0.4463,-0.4716,-0.4997,-0.5174,-0.542,-0.5717,-0.5998,-0.626,-0.6405,-0.6859,0.0,0.0,0.0,0.0,0.0,0.0,0.0,0.0,0.0,0.0,0.0,-0.8192,-0.7871,-0.7974,-0.7528,-0.7486,-0.763,-0.7575,-0.7553,-0.7675,-0.7635,-0.7553,-0.741,-0.7528,-0.7413,-0.7297,0.0,0.0,0.0,-0.747,-0.7428,-0.739,-0.7636,-0.7759,-0.7728,-0.7935,-0.799,-0.7789,-0.7789,-0.7707,-0.7505,-0.7418,-0.7472,-0.769,-0.8629,-0.8927,-0.8791,-0.8569,-0.8238,-0.7872,-0.7388,-0.7385,-0.7651,-0.7857,-0.8063,-0.8144,-0.8349,-0.8121,-0.7975,-0.7766,-0.7943,-0.7973,-0.7763,-0.7872,-0.7954,-0.8198,-0.9252,-1.0118,-1.0148,-1.0452,-1.0853,-1.1118,-1.1912,-1.2177,-1.1648,-1.1912,-1.2285,-1.2366,-1.211,-1.2149,-1.2363,-1.2407,-1.2375,-1.2258,-1.2294,-1.2238,-1.1811,-1.2134,-1.2113,-1.1736,-1.1805,-1.1724,-0.3659,-0.3549,-0.3526,-0.3526,-0.3776,-0.4161,0.0,-0.4611,-0.4521,-0.4971,-0.5011,-0.4956,-0.5073,-0.5377,-0.5556,-0.5438,-0.5227,-0.5399,-0.6156,-0.5948,0.0,0.0,0.0,0.0,0.0,0.0,0.0,0.0,0.0,0.0,0.0,-0.7715,-0.7712,-0.8042,-0.7487,-0.7211,-0.7331,-0.7214,-0.7217,-0.7334,-0.7214,-0.7157,-0.716,-0.7499,-0.7276,0.0,0.0,0.0,0.0,-0.684,-0.7158,-0.7607,-0.7268,-0.7528,-0.7976,-0.7633,-0.7592,-0.7698,-0.7698,-0.7619,-0.7519,-0.7516,-0.76,-0.7701,-0.7698,-0.7456,-0.7357,-0.7837,-0.7385,-0.69,-0.69,-0.69,-0.7023,-0.7388,-0.7388,-0.7508,-0.7872,-0.7872,-0.775,-0.7508,-0.763,-0.775,-0.7508,-0.7627,-0.7954,-0.8198,-0.8869,-0.9218,-0.9082,-1.005,-1.0455,-0.9794,-1.0588,-1.1247,-1.1247,-1.1516,-1.1709,-1.1671,-1.1915,-1.197,-1.181,-1.1958,-1.2044,-1.204,-1.1822,-1.1691,-1.1519,-1.1749,-1.1542,-1.1158,-1.1366,-1.1166,-0.2652,-0.2725,-0.2903,-0.3327,-0.3463,-0.3692,-0.4505,-0.4461,-0.4355,-0.4764,-0.4849,-0.4934,-0.4993,-0.5076,-0.5163,-0.5381,-0.5294,-0.5391,0.0,0.0,0.0,0.0,0.0,0.0,0.0,0.0,0.0,0.0,0.0,0.0,0.0,-0.7601,-0.749,-0.7715,-0.7379,-0.7173,-0.7211,-0.7173,-0.7173,-0.7211,-0.7173,-0.7154,-0.7154,-0.7049,0.0,0.0,0.0,0.0,0.0,-0.6633,-0.6744,-0.6829,-0.7062,-0.7222,-0.7285,-0.7402,-0.7543,-0.7576,-0.7576,-0.7606,-0.7644,-0.7644,-0.7722,-0.7818,-0.7818,-0.7575,-0.7218,-0.7006,-0.6771,-0.6528,-0.6285,-0.6405,-0.6667,-0.6862,-0.7071,-0.7406,-0.7356,-0.7436,-0.7508,-0.7385,-0.7508,-0.763,-0.775,-0.7872,-0.7954,-0.8198,-0.8617,-0.8963,-0.9085,-0.9649,-0.9915,-0.9652,-1.0187,-1.0588,-1.0853,-1.1251,-1.149,-1.1706,-1.146,-1.1375,-1.1585,-1.163,-1.1603,-1.1494,-1.1523,-1.1527,-1.1239,-1.1314,-1.122,-1.1066,-1.0739,-1.0395,-0.2309,-0.2449,-0.269,-0.3295,-0.3347,-0.3508,-0.4424,-0.4449,-0.4411,-0.4857,-0.4959,-0.499,-0.4978,-0.4964,-0.5002,-0.5188,-0.5101,-0.52,0.0,0.0,0.0,0.0,0.0,0.0,0.0,0.0,0.0,0.0,0.0,0.0,0.0,0.0,-0.7268,-0.7493,-0.7268,-0.7154,-0.7154,-0.7154,-0.7154,-0.7154,-0.7091,-0.7001,-0.7001,-0.6706,0.0,0.0,0.0,0.0,0.0,-0.635,-0.6464,-0.6581,-0.682,-0.7079,-0.7115,-0.7471,-0.7614,-0.7652,-0.7652,-0.7584,-0.7645,-0.7645,-0.7572,-0.7508,-0.7508,-0.7385,-0.7021,-0.6405,-0.616,-0.616,-0.5916,-0.6039,-0.6298,-0.6607,-0.685,-0.7096,-0.7161,-0.7373,-0.7341,-0.7132,-0.7356,-0.7462,-0.7503,-0.7598,-0.7772,-0.8007,-0.8263,-0.845,-0.882,-0.9117,-0.9383,-0.9649,-0.9921,-1.0193,-1.0455,-1.0853,-1.109,-1.1162,-1.1066,-1.1113,-1.1184,-1.1239,-1.1221,-1.1126,-1.1149,-1.1182,-1.0959,-1.0959,-1.0848,-1.0623,-1.033,-0.9983,0.0,-0.2615,-0.2788,-0.3255,-0.338,-0.3608,-0.4457,-0.4606,0.0,-0.5132,-0.5128,-0.5018,-0.4916,-0.4986,-0.5034,-0.4908,-0.4741,0.0,0.0,0.0,0.0,0.0,0.0,0.0,0.0,0.0,0.0,0.0,0.0,0.0,0.0,0.0,-0.7168,-0.7168,-0.7176,-0.7176,-0.7168,-0.7176,-0.7182,-0.7182,-0.6958,-0.6782,-0.6784,-0.6539,0.0,0.0,0.0,0.0,0.0,-0.6138,-0.6255,-0.6485,-0.6842,-0.702,-0.7227,-0.7592,-0.7782,-0.7872,-0.7872,-0.7627,-0.7385,-0.7385,-0.7143,-0.69,-0.69,-0.69,-0.6778,-0.6162,-0.5916,-0.5919,-0.5925,-0.5927,-0.6052,-0.6676,-0.662,-0.6688,-0.7316,-0.7441,-0.7348,-0.681,-0.7134,-0.7348,-0.6812,-0.7131,-0.7514,-0.7854,-0.7674,-0.7816,-0.8424,-0.8587,-0.8853,-0.9516,-0.9658,-0.9794,-1.0057,-1.0455,-1.0396,-1.0,-1.0637,-1.0834,-1.0696,-1.0952,-1.1027,-1.1027,-1.0781,-1.0721,-1.0721,-1.0721,-1.0386,-0.9856,-0.9847,-0.9638,-0.2851,0.0,-0.2286,-0.2868,-0.3067,-0.3434,0.0,-0.4626,-0.4688,-0.4802,-0.4743,-0.4608,-0.4552,-0.4602,-0.4716,-0.4856,-0.4825,0.0,0.0,0.0,0.0,0.0,0.0,0.0,0.0,0.0,0.0,0.0,0.0,0.0,0.0,0.0,-0.6842,-0.6611,-0.6692,-0.6812,-0.7293,-0.7159,-0.7091,-0.7091,-0.6766,-0.6543,-0.6546,-0.6338,0.0,0.0,0.0,0.0,-0.5977,-0.5977,-0.5975,-0.6096,-0.6458,-0.6717,-0.6982,-0.7347,-0.7484,-0.7508,-0.7508,-0.7266,-0.7023,-0.7023,-0.7023,-0.69,-0.665,-0.6528,-0.6528,-0.6283,-0.628,-0.63,-0.6372,-0.6393,-0.6411,-0.6356,-0.6519,-0.6664,-0.6532,-0.6662,-0.6801,-0.6695,-0.6807,-0.6926,-0.7077,-0.7188,-0.7343,-0.7476,-0.7217,-0.725,-0.7643,-0.8058,-0.8323,-0.8853,-0.9392,-0.9658,-0.9386,-0.9658,-0.9911,-0.9748,-1.0141,-1.0389,-1.0356,-1.0649,-1.0798,-1.0798,-1.07,-1.0588,-1.0326,-1.0326,-1.0174,-0.9745,-0.9374,-0.9124,-0.2798,-0.2519,-0.2406,-0.3128,-0.3297,-0.3411,-0.4132,-0.4301,-0.4356,-0.4356,0.0,-0.4475,-0.4436,-0.4665,-0.4788,-0.475,-0.4881,0.0,0.0,0.0,0.0,0.0,0.0,0.0,0.0,0.0,0.0,0.0,0.0,0.0,0.0,0.0,-0.656,-0.6493,-0.6361,-0.66,-0.6957,-0.6788,-0.6818,-0.6818,-0.6511,-0.6414,-0.6298,-0.5988,-0.5916,0.0,0.0,0.0,-0.5916,-0.5916,-0.5916,-0.5916,-0.6283,-0.6528,-0.6653,-0.7021,-0.7143,-0.7143,-0.7143,-0.6898,-0.6653,-0.6653,-0.653,-0.6407,-0.6405,-0.6313,-0.6226,-0.6226,-0.6226,-0.6247,-0.6339,-0.6364,-0.6377,-0.6428,-0.6475,-0.6504,-0.6504,-0.6636,-0.6779,-0.6564,-0.6666,-0.6781,-0.6823,-0.6924,-0.7057,-0.7158,-0.7003,-0.7012,-0.7381,-0.7791,-0.8189,-0.8587,-0.9123,-0.9389,-0.9117,-0.9123,-0.9259,-0.9389,-0.9791,-0.9927,-0.9927,-1.0323,-1.0455,-1.0455,-1.0326,-1.0057,-0.9655,-0.9924,-0.963,-0.9039,-0.8909,-0.8779,-0.2633,-0.2606,-0.274,-0.3477,-0.3535,-0.3495,-0.3884,-0.394,0.0,0.0,0.0,0.0,0.0,-0.4797,0.0,0.0,0.0,0.0,0.0,0.0,0.0,0.0,0.0,0.0,0.0,0.0,0.0,0.0,0.0,0.0,0.0,0.0,0.0,-0.6366,-0.6226,-0.6118,-0.6276,-0.6273,-0.6391,-0.6393,-0.6239,-0.6037,-0.6039,-0.5634,-0.5669,0.0,0.0,0.0,-0.5916,-0.5916,-0.5916,-0.5916,-0.616,-0.6403,-0.6403,-0.6775,-0.6778,-0.6778,-0.6778,-0.653,-0.6283,-0.6283,-0.616,-0.5919,-0.63,-0.6239,-0.6059,-0.6086,-0.6084,-0.6094,-0.6308,-0.6331,-0.6335,-0.661,-0.6545,-0.6471,-0.6736,-0.6738,-0.6762,-0.6573,-0.6657,-0.6762,-0.6575,-0.6657,-0.6764,-0.6973,-0.6786,-0.6898,-0.7381,-0.7791,-0.8192,-0.8454,-0.8853,-0.8984,-0.8984,-0.872,-0.872,-0.8984,-0.9392,-0.9661,-0.9661,-0.9927,-1.006,-1.006,-0.9794,-0.9525,-0.9117,-0.9389,-0.9203,-0.844,-0.8705,-0.8453,-0.3135,-0.297,-0.2785,-0.314,-0.3199,-0.3321,-0.3669,-0.3724,-0.3669,0.0,0.0,0.0,0.0,0.0,0.0,0.0,0.0,0.0,0.0,0.0,0.0,0.0,0.0,0.0,0.0,0.0,0.0,0.0,0.0,0.0,0.0,0.0,0.0,-0.5879,-0.5602,-0.5517,-0.5628,-0.5628,-0.575,-0.5998,-0.5641,-0.5525,-0.5525,-0.5786,-0.5794,0.0,0.0,-0.5794,-0.5916,-0.5916,-0.5916,-0.5916,-0.5916,-0.616,-0.6403,-0.6403,-0.6526,-0.6405,-0.6162,-0.6039,-0.5916,-0.5916,-0.5916,-0.5933,-0.6008,-0.6043,-0.6086,-0.6235,-0.6481,-0.6571,-0.6669,-0.6692,-0.6714,-0.6529,-0.6556,-0.6433,-0.6566,-0.6566,-0.6571,-0.6451,-0.6577,-0.6571,-0.6451,-0.6577,-0.6571,-0.6585,-0.6575,-0.6704,-0.6985,-0.739,-0.7791,-0.8189,-0.8454,-0.872,-0.872,-0.8587,-0.8587,-0.872,-0.8987,-0.9389,-0.9661,-0.9794,-0.9794,-0.9794,-0.9661,-0.9525,-0.9117,-0.9117,-0.8975,-0.856,-0.8443,-0.8323,-0.3261,-0.3205,-0.3073,-0.3158,-0.3211,-0.3238,-0.3508,-0.3432,-0.3339,0.0,0.0,0.0,0.0,0.0,0.0,0.0,0.0,0.0,0.0,0.0,0.0,0.0,0.0,0.0,0.0,0.0,0.0,0.0,0.0,0.0,0.0,0.0,0.0,-0.5608,-0.5158,-0.493,-0.5177,-0.4808,-0.481,-0.5302,-0.5423,-0.5421,-0.5421,-0.5425,-0.5548,-0.5916,0.0,-0.5425,-0.5669,-0.5794,-0.5794,-0.5669,-0.5794,-0.6039,-0.616,-0.616,-0.616,-0.616,-0.5916,-0.5916,-0.5925,-0.5976,-0.599,-0.6008,-0.6096,-0.6157,-0.6212,-0.6294,-0.6419,-0.6538,-0.6634,-0.6657,-0.6668,-0.6577,-0.6453,-0.6453,-0.6453,-0.6453,-0.6453,-0.6453,-0.6453,-0.6453,-0.6453,-0.6453,-0.6453,-0.6453,-0.6453,-0.6587,-0.6985,-0.7257,-0.7658,-0.8058,-0.8456,-0.8587,-0.8587,-0.8587,-0.8587,-0.8587,-0.872,-0.8987,-0.9389,-0.9256,-0.9256,-0.9389,-0.9259,-0.8989,-0.8851,-0.8851,-0.8687,-0.8494,-0.8306,-0.8091,-0.3263,-0.3285,-0.3279,-0.3268,-0.3192,-0.3117,-0.3246,-0.3078,-0.2958,0.0,0.0,0.0,0.0,0.0,0.0,0.0,0.0,0.0,0.0,0.0,0.0,0.0,0.0,0.0,0.0,0.0,0.0,0.0,0.0,0.0,0.0,0.0,-0.5234,-0.5297,-0.4684,-0.4562,-0.481,-0.4196,-0.4196,-0.481,-0.5054,-0.5176,-0.53,-0.5056,-0.5179,-0.5794,-0.5179,-0.5056,-0.5298,-0.5548,-0.5546,-0.5421,-0.5669,-0.5794,-0.5916,-0.5916,-0.5916,-0.5916,-0.5916,-0.5931,-0.5959,-0.5904,-0.5942,-0.5974,-0.5929,-0.6,-0.6058,-0.608,-0.6086,-0.6101,-0.6435,-0.6453,-0.6453,-0.6453,-0.6453,-0.6453,-0.6453,-0.6453,-0.6453,-0.6453,-0.6453,-0.6453,-0.6453,-0.6453,-0.6453,-0.6453,-0.6453,-0.6587,-0.6853,-0.7123,-0.739,-0.7658,-0.8056,-0.832,-0.8323,-0.8323,-0.8323,-0.8454,-0.8587,-0.872,-0.8984,-0.872,-0.872,-0.8984,-0.872,-0.8587,-0.8587,-0.8454,-0.8278,-0.8328,-0.7928,-0.7606,-0.3205,-0.3192,-0.3155,-0.3188,-0.303,-0.285,-0.2858,-0.2659,0.0,-0.3151,0.0,0.0,0.0,0.0,0.0,0.0,0.0,0.0,0.0,0.0,0.0,0.0,0.0,0.0,0.0,0.0,0.0,0.0,0.0,0.0,0.0,0.0,0.0,-0.4933,-0.4562,-0.4439,-0.4439,-0.4073,-0.4073,-0.4439,-0.4439,-0.4685,-0.4933,-0.4935,-0.5054,-0.5421,-0.5056,-0.4935,-0.4933,-0.4933,-0.5179,-0.5421,-0.5421,-0.5669,-0.5916,-0.5916,-0.5916,-0.5916,-0.5916,-0.5974,-0.592,-0.567,-0.5599,-0.5549,-0.5367,-0.5262,-0.528,-0.5485,-0.5506,-0.5642,-0.6317,-0.6453,-0.6453,-0.6453,-0.6453,-0.6453,-0.6453,-0.6453,-0.6453,-0.6453,-0.6453,-0.6453,-0.6453,-0.6453,-0.6453,-0.6453,-0.6453,-0.6453,-0.6587,-0.6587,-0.6587,-0.6587,-0.6853,-0.7254,-0.7526,-0.7526,-0.7791,-0.8058,-0.8454,-0.8587,-0.8587,-0.8587,-0.8587,-0.8587,-0.8587,-0.8587,-0.8587,-0.7915,-0.7781,-0.8046,-0.7376,-0.7053,-0.3223,-0.3253,-0.3262,-0.3197,-0.318,0.0,0.0,-0.3158,-0.3254,-0.3429,-0.3955,0.0,0.0,0.0,0.0,0.0,0.0,0.0,0.0,0.0,0.0,0.0,0.0,0.0,0.0,0.0,0.0,0.0,0.0,0.0,0.0,0.0,0.0,-0.4562,-0.4318,-0.4071,-0.4071,-0.395,-0.395,-0.4071,-0.4316,-0.4562,-0.4935,-0.4687,-0.493,-0.5421,-0.4808,-0.4562,-0.4562,-0.481,-0.481,-0.4807,-0.5176,-0.5546,-0.5916,-0.5916,-0.5953,-0.6002,-0.6002,-0.6059,-0.6014,-0.5814,-0.5723,-0.5633,-0.5447,-0.5338,-0.5343,-0.5372,-0.5381,-0.5513,-0.6049,-0.6182,-0.6183,-0.6453,-0.6453,-0.6453,-0.6453,-0.6453,-0.6453,-0.6453,-0.6453,-0.6453,-0.6453,-0.6317,-0.6183,-0.6453,-0.6051,-0.5917,-0.6049,-0.6182,-0.6182,-0.6182,-0.6451,-0.6719,-0.6855,-0.7254,-0.7519,-0.765,-0.8056,-0.8323,-0.8587,-0.8587,-0.832,-0.7917,-0.7917,-0.765,-0.7254,-0.6985,-0.6985,-0.7386,-0.6717,-0.6431,-0.3115,-0.3262,-0.3421,-0.3227,0.0,0.0,-0.3669,-0.368,-0.3784,-0.3971,-0.4462,0.0,0.0,0.0,0.0,0.0,0.0,0.0,0.0,0.0,0.0,0.0,0.0,0.0,0.0,0.0,0.0,0.0,0.0,0.0,0.0,0.0,0.0,0.0,-0.4073,-0.3951,-0.3951,-0.3951,-0.3951,-0.3951,-0.4071,-0.4441,-0.4687,-0.4439,-0.4562,-0.5053,-0.4439,-0.4193,-0.4316,-0.4441,-0.4564,-0.4562,-0.5176,-0.5546,-0.5921,-0.5949,-0.6,-0.6057,-0.6084,-0.6151,-0.6106,-0.5775,-0.5681,-0.5581,-0.5232,-0.5112,-0.5112,-0.5112,-0.5112,-0.5245,-0.5646,-0.578,-0.6048,-0.6453,-0.6453,-0.6453,-0.6453,-0.6453,-0.6453,-0.6453,-0.6453,-0.6317,-0.6317,-0.6048,-0.5914,-0.6185,-0.5781,-0.5647,-0.578,-0.5644,-0.551,-0.551,-0.578,-0.5915,-0.6051,-0.6583,-0.6849,-0.698,-0.725,-0.7653,-0.8187,-0.8053,-0.7653,-0.7116,-0.7116,-0.6851,-0.6453,-0.6185,-0.6317,-0.6581,-0.5912,-0.5646,-0.2907,-0.3228,-0.3455,0.0,0.0,0.0,-0.4207,-0.399,-0.4013,-0.4881,0.0,-0.5323,0.0,0.0,0.0,0.0,0.0,0.0,0.0,0.0,0.0,0.0,0.0,0.0,0.0,0.0,0.0,0.0,0.0,0.0,0.0,0.0,0.0,0.0,-0.3951,-0.3951,-0.3951,-0.3951,-0.3951,-0.3951,-0.3951,-0.4071,-0.4438,-0.4073,-0.4071,-0.4438,-0.4073,-0.3951,-0.3951,-0.3951,-0.4319,-0.4933,-0.53,-0.5546,-0.5931,-0.6021,-0.6055,-0.6068,-0.6153,-0.6241,-0.6185,-0.5398,-0.532,-0.5247,-0.4575,-0.4308,-0.4308,-0.4308,-0.4574,-0.4841,-0.5245,-0.5647,-0.6048,-0.6453,-0.6453,-0.6453,-0.6453,-0.6453,-0.6453,-0.6453,-0.6183,-0.5912,-0.5912,-0.5912,-0.578,-0.5515,-0.5646,-0.578,-0.5381,-0.4975,-0.4839,-0.4839,-0.4839,-0.4975,-0.5381,-0.5381,-0.5513,-0.5914,-0.5912,-0.6313,-0.7381,-0.6851,-0.6453,-0.6453,-0.6453,-0.6453,-0.6319,-0.5649,-0.5513,-0.5912,-0.5108,-0.4839,-0.3001,-0.3267,0.0,-0.3267,0.0,0.0,0.0,-0.4437,0.0,0.0,0.0,0.0,0.0,0.0,0.0,0.0,0.0,0.0,0.0,0.0,0.0,0.0,0.0,0.0,0.0,0.0,0.0,0.0,0.0,0.0,0.0,0.0,0.0,0.0,-0.3951,-0.3951,-0.3951,-0.3951,-0.3951,-0.3951,-0.3951,-0.4071,-0.4438,-0.4073,-0.4071,-0.4438,-0.4073,-0.3951,-0.3951,-0.3951,-0.4319,-0.4935,-0.5056,-0.5461,-0.6016,-0.6043,-0.6133,-0.6241,-0.6268,-0.6203,-0.6011,-0.5478,-0.5227,-0.4841,-0.4441,-0.4441,-0.4707,-0.4707,-0.4977,-0.5245,-0.5646,-0.5778,-0.6048,-0.6453,-0.6453,-0.6453,-0.6453,-0.6453,-0.6453,-0.6453,-0.6453,-0.6183,-0.5912,-0.5912,-0.578,-0.5515,-0.5243,-0.4975,-0.471,-0.4575,-0.4441,-0.4441,-0.4441,-0.4441,-0.4575,-0.5112,-0.5381,-0.5513,-0.5513,-0.5915,-0.6717,-0.6451,-0.6185,-0.5649,-0.5649,-0.5381,-0.4978,-0.471,-0.4842,-0.5108,-0.4438,-0.4171,-0.3143,-0.3231,0.0,-0.3272,-0.3628,-0.4064,-0.4414,0.0,0.0,0.0,0.0,0.0,0.0,0.0,0.0,0.0,0.0,0.0,0.0,0.0,0.0,0.0,0.0,0.0,0.0,0.0,0.0,0.0,0.0,0.0,0.0,0.0,0.0,0.0,-0.3951,-0.3951,-0.3951,-0.3951,-0.3951,-0.3951,-0.3951,-0.395,-0.4195,-0.395,-0.395,-0.4195,-0.395,-0.3951,-0.3951,-0.3951,-0.4319,-0.4937,-0.4842,-0.5131,-0.5808,-0.5878,-0.5968,-0.6062,-0.6093,-0.6004,-0.5778,-0.5379,-0.4975,-0.4707,-0.4441,-0.4441,-0.4574,-0.4574,-0.4977,-0.5381,-0.5647,-0.5914,-0.6182,-0.6183,-0.6319,-0.6453,-0.6317,-0.6453,-0.6453,-0.6453,-0.6319,-0.6183,-0.5781,-0.5646,-0.5512,-0.4978,-0.4708,-0.4574,-0.4307,-0.4308,-0.4308,-0.4308,-0.4308,-0.4308,-0.4308,-0.471,-0.4978,-0.4978,-0.4978,-0.5112,-0.5515,-0.5515,-0.5381,-0.4978,-0.4978,-0.471,-0.4038,-0.4038,-0.4171,-0.4168,-0.3767,-0.3633,-0.3289,0.0,0.0,-0.3386,-0.3533,0.0,0.0,0.0,0.0,0.0,0.0,0.0,0.0,0.0,0.0,0.0,0.0,0.0,0.0,0.0,0.0,0.0,0.0,0.0,0.0,0.0,0.0,0.0,0.0,0.0,0.0,0.0,0.0,0.0,-0.3951,-0.3951,-0.3951,-0.3951,-0.3951,0.0,-0.3951,-0.3951,-0.3951,-0.3951,-0.3951,-0.3951,-0.3951,-0.3951,-0.3951,-0.3951,-0.4324,-0.4827,-0.4643,-0.4926,-0.5459,-0.5739,-0.5801,-0.5818,-0.5889,-0.5778,-0.5644,-0.4973,-0.4839,-0.4707,-0.4441,-0.4308,-0.4307,-0.4307,-0.4844,-0.5381,-0.5381,-0.5917,-0.6453,-0.6048,-0.6183,-0.6453,-0.6048,-0.6183,-0.6453,-0.6453,-0.6182,-0.578,-0.5379,-0.5381,-0.5112,-0.4441,-0.4308,-0.4308,-0.4308,-0.4308,-0.4308,-0.4308,-0.4308,-0.4308,-0.4308,-0.4308,-0.4308,-0.4307,-0.4307,-0.4172,-0.4172,-0.4307,-0.4308,-0.4307,-0.4307,-0.4038,-0.3768,-0.3768,-0.3498,-0.3228,-0.3229,-0.3095,-0.3141,-0.331,0.0,0.0,-0.3576,0.0,0.0,0.0,0.0,0.0,0.0,0.0,0.0,0.0,0.0,0.0,0.0,0.0,0.0,0.0,0.0,0.0,0.0,0.0,0.0,0.0,0.0,0.0,0.0,0.0,0.0,0.0,0.0,-0.3951,-0.3951,-0.3951,-0.3951,-0.3951,-0.3951,0.0,-0.3951,-0.3951,-0.3951,-0.3951,-0.3951,-0.3951,-0.3951,-0.3951,-0.3951,-0.3951,-0.4225,-0.4521,-0.4536,-0.486,-0.5223,-0.5255,-0.5438,-0.5494,-0.5508,-0.5243,-0.4973,-0.4841,-0.4574,-0.4441,-0.4308,-0.444,-0.4707,-0.4707,-0.5243,-0.578,-0.578,-0.6183,-0.6453,-0.6048,-0.6183,-0.6453,-0.6453,-0.6183,-0.6048,-0.6048,-0.578,-0.5379,-0.4975,-0.5245,-0.5245,-0.4707,-0.4441,-0.4308,-0.4308,-0.4308,-0.4308,-0.4308,-0.4308,-0.4308,-0.4308,-0.4308,-0.4172,-0.3902,-0.3902,-0.3768,-0.3498,-0.4038,-0.4172,-0.3902,-0.3902,-0.3768,-0.3363,-0.3363,-0.3228,-0.3228,-0.2961,-0.2828,-0.2986,0.0,0.0,-0.3199,0.0,0.0,0.0,0.0,0.0,0.0,0.0,0.0,0.0,0.0,0.0,0.0,0.0,0.0,0.0,0.0,0.0,0.0,0.0,0.0,0.0,0.0,0.0,0.0,0.0,0.0,0.0,-0.3085,-0.3455,-0.3703,-0.3826,-0.3951,-0.3951,-0.3951,-0.3951,-0.3951,-0.3951,-0.3951,-0.3951,-0.3951,-0.3951,-0.3951,-0.3951,-0.3951,-0.3952,-0.398,-0.4135,-0.4547,-0.4357,-0.455,-0.5009,-0.5041,-0.5078,-0.5111,-0.5111,-0.4975,-0.4841,-0.4574,-0.4441,-0.4308,-0.4308,-0.4441,-0.4574,-0.4574,-0.4975,-0.5376,-0.5376,-0.5647,-0.5917,-0.5647,-0.5914,-0.6183,-0.6051,-0.5781,-0.5647,-0.5647,-0.5513,-0.5245,-0.4841,-0.4708,-0.4574,-0.4574,-0.4305,-0.4172,-0.4308,-0.4308,-0.4308,-0.4308,-0.4308,-0.4308,-0.4308,-0.4308,-0.4172,-0.3768,-0.3768,-0.3632,-0.3228,-0.3632,-0.3633,-0.3498,-0.3498,-0.3365,-0.2961,-0.2961,-0.2827,-0.2692,-0.2558,-0.2425,-0.2775,0.0,-0.2676,-0.3148,-0.3416,0.0,0.0,0.0,0.0,0.0,0.0,0.0,0.0,0.0,0.0,0.0,0.0,0.0,0.0,0.0,0.0,0.0,0.0,0.0,0.0,0.0,0.0,0.0,0.0,0.0,-0.2466,-0.2837,-0.3085,-0.3455,-0.3703,-0.3828,-0.3826,-0.3828,-0.3951,-0.3951,-0.3951,-0.3951,-0.3951,-0.3951,-0.3951,-0.3951,-0.3951,-0.395,-0.3954,-0.4,-0.4284,-0.4443,-0.4292,-0.4478,-0.4637,-0.4687,-0.4707,-0.4707,-0.4707,-0.4707,-0.4707,-0.4441,-0.4308,-0.4308,-0.4308,-0.4308,-0.4308,-0.4308,-0.4574,-0.4839,-0.4839,-0.5111,-0.5381,-0.5381,-0.5513,-0.5646,-0.5381,-0.5381,-0.5245,-0.5245,-0.5247,-0.5112,-0.4707,-0.417,-0.3902,-0.4307,-0.3902,-0.3768,-0.4172,-0.4172,-0.4172,-0.4172,-0.4172,-0.4172,-0.4172,-0.4307,-0.4172,-0.3768,-0.3633,-0.3499,-0.3095,-0.296,-0.296,-0.296,-0.3095,-0.2961,-0.2559,-0.2559,-0.2425,-0.2155,-0.2155,-0.2155,0.0,0.0,-0.2788,0.0,-0.3455,0.0,0.0,0.0,0.0,0.0,0.0,0.0,0.0,0.0,0.0,0.0,0.0,0.0,0.0,0.0,0.0,0.0,0.0,0.0,0.0,0.0,0.0,0.0,0.0,0.0,-0.2466,-0.2837,-0.2961,-0.3085,-0.358,-0.3826,-0.358,-0.3826,-0.3951,-0.3951,-0.3951,-0.3951,-0.3951,-0.3951,-0.3951,-0.3951,-0.3951,-0.4073,-0.4316,-0.4325,-0.4397,-0.4631,-0.452,-0.4467,-0.4297,-0.4304,-0.4307,-0.4307,-0.4307,-0.4307,-0.4307,-0.4308,-0.4308,-0.4308,-0.4308,-0.4308,-0.4308,-0.4308,-0.4574,-0.4839,-0.4839,-0.5111,-0.5381,-0.5381,-0.5109,-0.4975,-0.5381,-0.5111,-0.4841,-0.4841,-0.4708,-0.4442,-0.4441,-0.4037,-0.3902,-0.4307,-0.3768,-0.3363,-0.3768,-0.3498,-0.3363,-0.3363,-0.3632,-0.3902,-0.3902,-0.4172,-0.4038,-0.3363,-0.3228,-0.296,-0.2423,-0.2289,-0.2289,-0.2289,-0.2558,-0.2558,-0.2289,-0.2289,-0.2289,-0.2155,-0.2155,-0.2155,-0.227,-0.2452,-0.2611,0.0,-0.3307,0.0,0.0,0.0,0.0,0.0,0.0,0.0,0.0,0.0,0.0,0.0,0.0,0.0,0.0,0.0,0.0,0.0,0.0,0.0,0.0,0.0,0.0,0.0,0.0,-0.2084,-0.2466,-0.2837,-0.2961,-0.2961,-0.358,-0.3826,-0.3455,-0.3826,-0.3951,-0.3951,-0.3951,-0.3951,-0.3951,-0.3951,-0.3951,-0.3951,-0.4071,-0.4316,-0.4444,-0.477,-0.4714,-0.4651,-0.4724,-0.4525,-0.4308,-0.4308,-0.4308,-0.4308,-0.4308,-0.4308,-0.4308,-0.4308,-0.4308,-0.4308,-0.4308,-0.4308,-0.4308,-0.4308,-0.4441,-0.4574,-0.4574,-0.471,-0.4844,-0.4844,-0.471,-0.4575,-0.471,-0.471,-0.4574,-0.4574,-0.4441,-0.4308,-0.4308,-0.3768,-0.3632,-0.3902,-0.3365,-0.3096,-0.3363,-0.3362,-0.3228,-0.3228,-0.3498,-0.3768,-0.3768,-0.4172,-0.4038,-0.3228,-0.3228,-0.296,-0.2289,-0.2155,-0.2155,-0.2155,-0.2289,-0.2289,-0.2155,-0.2155,-0.2155,-0.2155,-0.2155,-0.2155,0.0,0.0,-0.2319,-0.2861,-0.3016,0.0,0.0,0.0,0.0,0.0,0.0,0.0,0.0,0.0,0.0,0.0,0.0,0.0,0.0,0.0,0.0,0.0,0.0,0.0,0.0,0.0,0.0,0.0,0.0,-0.2099,-0.2467,-0.2714,-0.2961,-0.2961,-0.3579,-0.3703,-0.3455,-0.3826,-0.3951,-0.3951,-0.3951,-0.3951,-0.3951,-0.3951,-0.3958,-0.3971,-0.42,-0.4572,-0.4719,-0.508,-0.5149,-0.4938,-0.4909,-0.4693,-0.4441,-0.4307,-0.4308,-0.4308,-0.4308,-0.4308,-0.4308,-0.4308,-0.4308,-0.4308,-0.4308,-0.4308,-0.4308,-0.4308,-0.4308,-0.4308,-0.4308,-0.4308,-0.4308,-0.4308,-0.4308,-0.4308,-0.4308,-0.4308,-0.4308,-0.4172,-0.4172,-0.4172,-0.4038,-0.3499,-0.3229,-0.3632,-0.3097,-0.2693,-0.3095,-0.296,-0.296,-0.296,-0.323,-0.35,-0.35,-0.3769,-0.3768,-0.3095,-0.3095,-0.2827,-0.2289,-0.2155,-0.2155,-0.2155,-0.2155,-0.2155,-0.2155,-0.2155,-0.2155,-0.2155,-0.202,-0.1885,0.0,-0.151,0.0,-0.2718,0.0,0.0,0.0,0.0,0.0,0.0,0.0,0.0,0.0,0.0,0.0,0.0,0.0,0.0,0.0,0.0,0.0,0.0,0.0,0.0,0.0,0.0,0.0,0.0,0.0,-0.2099,-0.2467,-0.2467,-0.2714,-0.2961,-0.3332,-0.3455,-0.3455,-0.3826,-0.3951,-0.3951,-0.3951,-0.3951,-0.3951,-0.3951,-0.398,-0.4027,-0.4342,-0.4847,-0.5541,-0.5549,-0.5646,-0.5659,-0.527,-0.5049,-0.4707,-0.4441,-0.4308,-0.4308,-0.4308,-0.4308,-0.4308,-0.4308,-0.4308,-0.4308,-0.4308,-0.4308,-0.4308,-0.4308,-0.4308,-0.4308,-0.4308,-0.4308,-0.4308,-0.4308,-0.4308,-0.4308,-0.4308,-0.4308,-0.4172,-0.3902,-0.3768,-0.3768,-0.3363,-0.2961,-0.2828,-0.3229,-0.2692,-0.2289,-0.2694,-0.2424,-0.2289,-0.2289,-0.2558,-0.2694,-0.2694,-0.3096,-0.3095,-0.2694,-0.2694,-0.2559,-0.2155,-0.2155,-0.2155,-0.2155,-0.2155,-0.2155,-0.2155,-0.2155,-0.2155,-0.2155,-0.1481,-0.0808,0.0,0.0,0.0,-0.2243,0.0,0.0,0.0,0.0,0.0,0.0,0.0,0.0,0.0,0.0,0.0,0.0,0.0,0.0,0.0,0.0,0.0,0.0,0.0,0.0,0.0,0.0,0.0,0.0,0.0,0.0,-0.2837,-0.2837,-0.2961,-0.3332,-0.358,-0.372,-0.3879,-0.3879,-0.4025,-0.4063,-0.4063,-0.4063,-0.4063,-0.4063,-0.4202,-0.435,-0.4453,-0.4837,-0.5374,-0.5685,-0.5743,-0.5801,-0.5454,-0.5088,-0.4707,-0.4441,-0.4308,-0.4308,-0.4308,-0.4308,-0.4308,-0.4308,-0.4308,-0.4308,-0.4308,-0.4308,-0.4307,-0.4038,-0.4172,-0.4307,-0.4038,-0.4172,-0.4307,-0.4038,-0.3768,-0.3632,-0.3632,-0.3768,-0.3902,-0.3498,-0.3363,-0.3363,-0.3228,-0.2962,-0.2694,-0.2828,-0.2558,-0.2289,-0.2424,-0.2289,-0.2155,-0.2155,-0.2559,-0.2694,-0.2694,-0.2961,-0.3095,-0.2694,-0.2694,-0.2559,-0.2155,-0.2155,-0.2155,-0.2155,-0.175,-0.175,-0.2155,-0.2155,-0.2155,-0.2155,-0.0942,0.0269,-0.0489,0.0,0.0,0.0,0.0,0.0,0.0,0.0,0.0,0.0,0.0,0.0,0.0,0.0,0.0,0.0,0.0,0.0,0.0,0.0,0.0,0.0,0.0,0.0,0.0,0.0,0.0,0.0,0.0,0.0,-0.2837,-0.2837,-0.3085,-0.3455,-0.3703,-0.3969,-0.4006,-0.4007,-0.4027,-0.4067,-0.4067,-0.4067,-0.4067,-0.4086,-0.4234,-0.4386,-0.4407,-0.4805,-0.5456,-0.5642,-0.5944,-0.5975,-0.5628,-0.5379,-0.4977,-0.4574,-0.4441,-0.4308,-0.4308,-0.4308,-0.4308,-0.4308,-0.4308,-0.4308,-0.4172,-0.4172,-0.4038,-0.3633,-0.3768,-0.3902,-0.3632,-0.3768,-0.3902,-0.3632,-0.3363,-0.3229,-0.3095,-0.3365,-0.3498,-0.3095,-0.3095,-0.296,-0.2826,-0.2692,-0.2559,-0.2559,-0.2289,-0.2155,-0.2155,-0.2155,-0.2155,-0.2155,-0.2424,-0.2559,-0.2559,-0.2692,-0.2827,-0.2559,-0.2559,-0.2424,-0.2155,-0.2155,-0.2155,-0.2155,-0.1481,-0.1346,-0.1885,-0.202,-0.1885,-0.1481,0.0,0.1212,0.0,0.0,0.0,0.0,0.0,0.0,0.0,0.0,0.0,0.0,0.0,0.0,0.0,0.0,0.0,0.0,0.0,0.0,0.0,0.0,0.0,0.0,0.0,0.0,0.0,0.0,0.0,0.0,0.0,-0.2099,-0.2467,-0.2467,-0.2837,-0.3455,-0.3703,-0.3951,-0.3954,-0.3954,-0.3954,-0.3955,-0.3955,-0.3955,-0.3958,-0.4014,-0.4072,-0.4132,-0.4192,-0.4746,-0.5799,-0.5799,-0.6111,-0.6453,-0.6048,-0.5646,-0.5381,-0.4975,-0.4574,-0.4308,-0.4308,-0.4308,-0.4308,-0.4308,-0.4308,-0.4172,-0.3902,-0.3768,-0.3768,-0.3362,-0.3228,-0.3228,-0.3228,-0.3228,-0.3228,-0.3228,-0.3228,-0.3095,-0.2694,-0.2961,-0.3095,-0.2694,-0.2694,-0.2559,-0.2289,-0.2155,-0.2155,-0.2155,-0.2155,-0.2155,-0.2155,-0.2155,-0.2155,-0.2155,-0.2155,-0.2155,-0.2155,-0.2155,-0.2155,-0.2155,-0.2155,-0.2155,-0.2155,-0.2155,-0.2155,-0.2155,-0.1481,-0.1077,-0.0942,-0.175,-0.1346,0.0135,0.1481,0.2155,0.1074,0.0,0.0,0.0,0.0,0.0,0.0,0.0,0.0,0.0,0.0,0.0,0.0,0.0,0.0,0.0,0.0,0.0,0.0,0.0,0.0,0.0,0.0,0.0,0.0,0.0,0.0,0.0,-0.2222,-0.2344,-0.2467,-0.2961,-0.3332,-0.3455,-0.3703,-0.397,-0.4011,-0.4011,-0.4033,-0.4078,-0.4078,-0.4078,-0.4079,-0.4139,-0.4176,-0.4195,-0.4256,-0.4548,-0.508,-0.535,-0.5761,-0.6048,-0.5912,-0.5646,-0.5381,-0.4975,-0.4574,-0.4308,-0.4308,-0.4308,-0.4308,-0.4308,-0.4308,-0.4172,-0.3902,-0.3768,-0.3633,-0.2962,-0.2961,-0.3228,-0.3228,-0.2961,-0.2828,-0.2828,-0.2692,-0.2424,-0.2424,-0.2424,-0.2424,-0.2289,-0.2289,-0.2155,-0.1481,-0.1885,-0.202,-0.1481,-0.1885,-0.2155,-0.2155,-0.2155,-0.2155,-0.2155,-0.2155,-0.2155,-0.2155,-0.2155,-0.2155,-0.2155,-0.2155,-0.202,-0.1481,-0.1885,-0.2155,-0.2155,-0.0942,0.0269,0.1346,0.1077,0.1212,0.1616,0.202,0.2155,0.0,0.0,0.0,0.0,0.0,0.0,0.0,0.0,0.0,0.0,0.0,0.0,0.0,0.0,0.0,0.0,0.0,0.0,0.0,0.0,0.0,0.0,0.0,0.0,0.0,0.0,0.0,-0.2219,-0.2344,-0.259,-0.2961,-0.3332,-0.358,-0.3703,-0.3826,-0.3966,-0.3999,-0.4,-0.4016,-0.4053,-0.4053,-0.4053,-0.4056,-0.414,-0.4179,-0.4184,-0.427,-0.4441,-0.4574,-0.4977,-0.5512,-0.5912,-0.6048,-0.5781,-0.5381,-0.5111,-0.4708,-0.4308,-0.4308,-0.4308,-0.4308,-0.4308,-0.4172,-0.4038,-0.3632,-0.3499,-0.3231,-0.2693,-0.2692,-0.2826,-0.2826,-0.2692,-0.2425,-0.2425,-0.2289,-0.2155,-0.2155,-0.2155,-0.2155,-0.2155,-0.2155,-0.202,-0.1616,-0.1885,-0.202,-0.1616,-0.1885,-0.2155,-0.2155,-0.2155,-0.2155,-0.2155,-0.2155,-0.2155,-0.2155,-0.2155,-0.2155,-0.2155,-0.2155,-0.202,-0.1616,-0.1346,-0.1346,-0.1346,0.0135,0.1346,0.2155,0.2155,0.2155,0.2155,0.2155,0.2155,0.0,0.1683,0.0,0.0,0.0,0.0,-0.0661,-0.1026,0.0,0.0,0.0,0.0,0.0,0.0,0.0,0.0,0.0,0.0,0.0,0.0,0.0,0.0,0.0,0.0,0.0,-0.2404,-0.2422,-0.2587,-0.259,-0.2837,-0.3455,-0.3455,-0.358,-0.3828,-0.3828,-0.3951,-0.3951,-0.3951,-0.3951,-0.3951,-0.3951,-0.3951,-0.3955,-0.4072,-0.4125,-0.4132,-0.4255,-0.4308,-0.4307,-0.4707,-0.5242,-0.5778,-0.6183,-0.5917,-0.5381,-0.5381,-0.4844,-0.4308,-0.4308,-0.4308,-0.4308,-0.4308,-0.4038,-0.3768,-0.3363,-0.2961,-0.2694,-0.2289,-0.2155,-0.2155,-0.2155,-0.2155,-0.2155,-0.2155,-0.2155,-0.2155,-0.2155,-0.2155,-0.2155,-0.2155,-0.2155,-0.2155,-0.2155,-0.2155,-0.2155,-0.2155,-0.2155,-0.2155,-0.2155,-0.2155,-0.2155,-0.2155,-0.2155,-0.2155,-0.2155,-0.2155,-0.2155,-0.2155,-0.2155,-0.2155,-0.202,-0.0538,0.0269,0.0269,0.1481,0.2155,0.2155,0.2155,0.2155,0.2155,0.2155,0.2155,0.2099,0.1952,0.1684,0.0,0.0,0.0,0.0,-0.0231,0.0,0.0,0.0,0.0,0.0,0.0,0.0,0.0,0.0,0.0,0.0,0.0,0.0,0.0,0.0,0.0,0.0,-0.2131,-0.2275,-0.2832,-0.2961,-0.3085,-0.3455,-0.3455,-0.3579,-0.358,-0.3826,-0.3951,-0.3951,-0.3951,-0.3951,-0.3951,-0.3951,-0.3951,-0.3955,-0.4072,-0.4125,-0.4132,-0.4255,-0.4308,-0.4307,-0.4707,-0.4839,-0.5108,-0.5513,-0.5379,-0.4975,-0.4975,-0.4708,-0.4308,-0.4308,-0.4308,-0.4308,-0.4308,-0.4038,-0.3768,-0.3363,-0.2961,-0.2694,-0.2289,-0.2155,-0.2155,-0.2155,-0.2155,-0.2155,-0.2155,-0.2155,-0.2155,-0.2155,-0.2155,-0.2155,-0.2155,-0.2155,-0.202,-0.1481,-0.175,-0.202,-0.1346,-0.1885,-0.2155,-0.2155,-0.2155,-0.2155,-0.2155,-0.2155,-0.2155,-0.2155,-0.1616,-0.1616,-0.2155,-0.2155,-0.1616,-0.0538,0.0942,0.175,0.175,0.202,0.2155,0.2155,0.2155,0.2155,0.2155,0.2155,0.2289,0.0,0.0,0.1587,0.1542,0.0,0.0,0.0,0.0,0.0,0.0,0.0,0.0,0.0,0.0,0.0,0.0,0.0,0.0,0.0,0.0,0.0,0.0,0.0,0.0,0.0,-0.2579,-0.2626,-0.3201,-0.3209,-0.3332,-0.3703,-0.3703,-0.3825,-0.3947,-0.4071,-0.4195,-0.4195,-0.4195,-0.4073,-0.3951,-0.3951,-0.3965,-0.3996,-0.4085,-0.4142,-0.4176,-0.4267,-0.4308,-0.4308,-0.444,-0.4574,-0.4574,-0.5111,-0.5111,-0.4839,-0.4839,-0.4574,-0.4308,-0.4308,-0.4308,-0.4308,-0.4308,-0.3902,-0.3498,-0.3228,-0.2827,-0.2424,-0.2289,-0.2155,-0.2155,-0.2155,-0.2155,-0.2155,-0.2155,-0.2155,-0.2155,-0.2155,-0.2155,-0.2155,-0.2155,-0.2155,-0.202,-0.175,-0.202,-0.202,-0.175,-0.202,-0.2155,-0.2155,-0.2155,-0.2155,-0.2155,-0.1885,-0.175,-0.2155,-0.1885,-0.1481,-0.1077,-0.0404,0.0269,0.1077,0.175,0.2155,0.2155,0.2155,0.2155,0.2155,0.2155,0.2155,0.2155,0.2155,0.2424,0.0,0.0,0.0,0.0,0.0,0.1105,0.0,0.0,0.0,-0.0166,0.0,0.0,0.0,0.0,0.0,0.0,0.0,0.0,0.0,0.0,0.0,0.0,0.0,0.0,0.0,-0.3133,-0.321,-0.3447,-0.355,-0.3669,-0.3948,-0.3951,-0.4073,-0.4438,-0.4316,-0.4316,-0.4438,-0.4316,-0.4195,-0.3951,-0.3962,-0.3991,-0.4037,-0.411,-0.4169,-0.4219,-0.4281,-0.4308,-0.4308,-0.4308,-0.4308,-0.4307,-0.4978,-0.4977,-0.4707,-0.4707,-0.4574,-0.4308,-0.4308,-0.4308,-0.4308,-0.4308,-0.3768,-0.3228,-0.3095,-0.2692,-0.2155,-0.2155,-0.2155,-0.2155,-0.2155,-0.2155,-0.2155,-0.2155,-0.2155,-0.2155,-0.2155,-0.2155,-0.2155,-0.2155,-0.2155,-0.2155,-0.2155,-0.202,-0.202,-0.202,-0.202,-0.202,-0.202,-0.202,-0.202,-0.2155,-0.1616,-0.1481,-0.175,-0.175,-0.1212,0.0269,0.1481,0.2155,0.2155,0.2155,0.2155,0.2155,0.2155,0.2155,0.2155,0.2155,0.2289,0.2289,0.2289,0.2558,0.0,0.0,0.0,0.0,0.1645,0.0,0.0,0.0,0.1254,0.1041,0.0,0.0,0.0,0.0,0.0,0.0,0.0,0.0,0.0,0.0,0.0,0.0,0.0,0.0,0.0,0.0,-0.3762,-0.3568,-0.38,-0.3899,-0.3943,-0.3951,-0.4073,-0.4438,-0.4071,-0.4071,-0.4438,-0.4071,-0.395,-0.3951,-0.4001,-0.4029,-0.4038,-0.4154,-0.421,-0.4219,-0.4281,-0.4308,-0.4308,-0.4308,-0.4308,-0.4308,-0.4441,-0.4441,-0.4307,-0.4307,-0.4307,-0.4308,-0.4308,-0.4308,-0.4308,-0.4308,-0.3768,-0.3094,-0.2558,-0.2289,-0.2155,-0.2155,-0.2155,-0.2155,-0.2155,-0.2155,-0.2155,-0.2155,-0.2155,-0.2155,-0.2155,-0.2155,-0.2155,-0.2155,-0.2155,-0.2155,-0.2155,-0.1616,-0.1212,-0.1212,-0.1212,-0.1212,-0.1212,-0.1212,-0.1481,-0.2155,-0.2155,-0.1616,-0.0404,-0.0269,0.0404,0.1885,0.2155,0.2155,0.2155,0.2155,0.2155,0.2155,0.2155,0.2155,0.2155,0.2155,0.2289,0.2694,0.2694,0.2962,0.0,0.0,0.0,0.0,0.0,0.0,0.0,0.0,0.1244,0.0,0.0,0.0,0.0,0.0,0.0,0.0,0.0,0.0,0.0,0.0,0.0,0.0,0.0,0.0,0.0,0.0,0.0,0.0,0.0,-0.443,-0.4436,-0.4318,-0.4439,-0.493,-0.4724,-0.4621,-0.4745,-0.4662,-0.4431,-0.4052,-0.4076,-0.4106,-0.4142,-0.4194,-0.4236,-0.427,-0.4296,-0.4308,-0.4308,-0.4308,-0.4308,-0.4308,-0.4308,-0.4308,-0.4308,-0.4308,-0.4308,-0.4308,-0.4308,-0.4308,-0.4172,-0.3768,-0.3498,-0.3094,-0.2423,-0.2155,-0.2155,-0.2155,-0.1885,-0.1616,-0.1616,-0.1616,-0.1616,-0.1616,-0.1885,-0.2155,-0.2155,-0.2155,-0.2155,-0.2155,-0.2155,-0.2155,-0.2155,-0.1885,-0.1481,-0.0538,-0.0404,-0.0404,-0.0404,-0.0404,-0.0538,-0.0942,-0.0942,-0.0673,-0.0,0.0,0.0673,0.2155,0.2155,0.2155,0.2155,0.2155,0.2155,0.2155,0.2424,0.2425,0.2425,0.2692,0.2961,0.3366,0.2963,0.3097,0.1874,0.0,0.0,0.0,0.0,0.0,0.0,0.0,0.0,0.0,0.0,0.0,0.0,0.0,0.0,0.0,0.0,0.0,0.0,0.0,0.0,0.0,0.0,0.0,0.0,0.0,0.0,0.0,0.0,0.0,-0.4896,-0.4553,-0.4685,-0.53,-0.5128,-0.504,-0.5039,-0.5115,-0.4897,-0.4256,-0.4272,-0.4305,-0.4217,-0.4234,-0.4266,-0.4308,-0.4308,-0.4308,-0.4308,-0.4308,-0.4308,-0.4308,-0.4308,-0.4308,-0.4308,-0.4308,-0.4308,-0.4308,-0.4308,-0.4307,-0.4038,-0.3363,-0.3095,-0.2961,-0.2424,-0.2155,-0.2155,-0.2155,-0.1481,-0.0808,-0.0673,-0.0808,-0.1212,-0.1346,-0.175,-0.2155,-0.175,-0.175,-0.202,-0.2155,-0.2155,-0.2155,-0.2155,-0.1885,-0.1212,-0.0135,0.0,0.0,0.0,0.0,0.0,0.0,0.0,0.0,0.0,0.0404,0.0942,0.1885,0.2155,0.2155,0.2155,0.2155,0.2289,0.2289,0.2559,0.2694,0.2828,0.3095,0.3363,0.3768,0.3231,0.3366,0.0,0.0,0.0,0.2,0.0,0.0,0.0,0.0,0.1428,0.0,0.0,0.0,0.0,0.0,0.0,0.0,0.0,0.0,0.0,0.0,0.0,0.0,0.0,0.0,0.0,0.0,0.0,0.0,0.0,0.0,-0.4812,-0.4526,-0.4562,-0.4935,-0.4757,-0.4792,-0.504,-0.5115,-0.5026,-0.4645,-0.4711,-0.4611,-0.4218,-0.4278,-0.4305,-0.4308,-0.4308,-0.4308,-0.4308,-0.4308,-0.4308,-0.4308,-0.4308,-0.4308,-0.4308,-0.4308,-0.4308,-0.4308,-0.4308,-0.4038,-0.3768,-0.3363,-0.2961,-0.2694,-0.2289,-0.2155,-0.2155,-0.2155,-0.1212,0.0135,0.0538,-0.0269,-0.1346,-0.202,-0.2155,-0.175,-0.0404,-0.0673,-0.1346,-0.202,-0.2155,-0.2155,-0.2155,-0.1077,-0.0,-0.0,0.0,0.0,0.0,0.0,0.0,0.0,0.0,0.0,0.0,0.1346,0.1885,0.1212,0.175,0.2155,0.2155,0.2155,0.2289,0.2694,0.2694,0.2828,0.3228,0.3228,0.3363,0.3768,0.3768,0.417,0.0,0.0,0.2574,0.2098,0.0,0.0,0.0,0.0,0.0,0.0,0.0,0.0,0.0,0.0,0.0,0.0,0.0,0.0,0.0,0.0,0.0,0.0,0.0,0.0,0.0,0.0,0.0,0.0,0.0,0.0,0.0,-0.5203,-0.5122,-0.5548,-0.5432,-0.5374,-0.5372,-0.5631,-0.5301,-0.4773,-0.4796,-0.4675,-0.4278,-0.4298,-0.4308,-0.4308,-0.4308,-0.4308,-0.4308,-0.4308,-0.4308,-0.4308,-0.4308,-0.4308,-0.4308,-0.4308,-0.4308,-0.4308,-0.4308,-0.4038,-0.3768,-0.3363,-0.2961,-0.2694,-0.2289,-0.2155,-0.202,-0.1346,-0.0673,0.0269,0.1346,0.0942,-0.0269,-0.1885,-0.1481,-0.0673,-0.0135,-0.0135,-0.0404,-0.0673,-0.1481,-0.1616,0.0404,0.0269,0.0,0.0,0.0,0.0,0.0,0.0808,0.1481,0.1481,0.1077,0.0673,0.0673,0.1212,0.1616,0.175,0.202,0.2289,0.2559,0.2559,0.2693,0.296,0.323,0.3499,0.3632,0.3768,0.4038,0.4172,0.4304,0.4572,0.2248,0.2588,0.0,0.2419,0.246,0.0,0.1843,0.0,0.0,0.0,0.0,0.0,0.0,0.0,0.0,0.0,0.0,0.0,0.0,0.0,0.0,0.0,0.0,0.0,0.0,0.0,-0.4824,-0.5043,0.0,0.0,0.0,0.0,-0.5487,-0.5667,-0.5711,-0.5672,-0.567,-0.5965,-0.578,-0.4975,-0.4975,-0.4708,-0.4308,-0.4308,-0.4308,-0.4308,-0.4308,-0.4308,-0.4308,-0.4308,-0.4308,-0.4308,-0.4308,-0.4308,-0.4308,-0.4308,-0.4308,-0.4308,-0.4308,-0.4038,-0.3498,-0.3228,-0.2827,-0.2425,-0.2289,-0.202,-0.1616,-0.0942,-0.0135,0.0673,0.1885,0.1481,0.0404,-0.0673,-0.0404,0.0135,0.0673,0.0404,0.0,0.0,-0.0404,-0.0,0.1885,0.1346,0.0538,0.0135,0.0,0.0135,0.0673,0.1616,0.2155,0.2155,0.175,0.1481,0.1481,0.1481,0.175,0.2155,0.2289,0.2425,0.2694,0.2828,0.3096,0.3363,0.3768,0.4037,0.4037,0.4463,0.4598,0.4441,0.5027,0.5306]}]]